[[{"header":{"parameterUnit":"m.s-1","parameterCategory":1,"la1":30.6,"la2":29.2853,"lo1":-89.7004,"lo2":-87.6739,"dy":0.0162,"dx":0.0183,"nx":112,"ny":82,"refTime":"2026-03-16T00:00:00:Z","depth":0,"parameterNumber":2,"parameterNumberName":"U-component_of_WINDS"},"data":[0.0,0.0,0.0,0.0,0.0,0.0,0.0,0.0,0.0,0.0,0.0,0.0,0.0,0.0,0.0,0.0,0.0,0.0,0.0,0.0,0.0,0.0,0.0,0.0,0.0,0.0,0.0,0.0,0.0,0.0,0.0,0.0,0.0,0.0,0.0,0.0,0.0,0.0,0.0,0.0,0.0,0.0,0.0,0.0,0.0,0.0,0.0,0.0,0.0,0.0,0.0,0.0,0.0,0.0,0.0,0.0,0.0,0.0,0.0,0.0,0.0,0.0,0.0,0.0,0.0,0.0,0.0,0.0,0.0,0.0,0.0,0.0,0.0,0.0,0.0,0.0,0.0,0.0,0.0,0.0,0.0,0.0,0.0,0.0,0.0,0.0,0.0,0.0,0.0,0.0,0.0,-3.1338,-3.4516,-3.592,-3.4745,-3.3844,-3.145,-2.7021,0.0,0.0,0.0,0.0,0.0,0.0,0.0,0.0,0.0,0.0,0.0,0.0,0.0,0.0,0.0,0.0,0.0,0.0,0.0,0.0,0.0,0.0,0.0,0.0,0.0,0.0,0.0,0.0,0.0,0.0,0.0,0.0,0.0,0.0,0.0,0.0,0.0,0.0,0.0,0.0,0.0,0.0,0.0,0.0,0.0,0.0,0.0,0.0,0.0,0.0,0.0,0.0,0.0,0.0,0.0,0.0,0.0,0.0,0.0,0.0,0.0,0.0,0.0,0.0,0.0,0.0,0.0,0.0,0.0,0.0,0.0,0.0,0.0,0.0,0.0,0.0,0.0,0.0,0.0,0.0,0.0,0.0,0.0,0.0,0.0,0.0,0.0,0.0,0.0,0.0,0.0,0.0,0.0,0.0,0.0,0.0,0.0,0.0,0.0,0.0,0.0,0.0,0.0,0.0,-2.9435,-3.3558,-3.5012,-3.5574,-3.5355,-3.3694,-3.1165,-2.7649,0.0,0.0,0.0,0.0,0.0,0.0,0.0,0.0,0.0,0.0,0.0,0.0,0.0,0.0,0.0,0.0,0.0,0.0,0.0,0.0,0.0,0.0,0.0,0.0,0.0,0.0,0.0,0.0,0.0,0.0,0.0,0.0,0.0,0.0,0.0,0.0,0.0,0.0,0.0,0.0,0.0,0.0,0.0,0.0,0.0,0.0,0.0,0.0,0.0,0.0,0.0,0.0,0.0,0.0,0.0,0.0,0.0,0.0,0.0,0.0,0.0,0.0,0.0,0.0,0.0,0.0,0.0,0.0,0.0,0.0,0.0,0.0,0.0,0.0,0.0,0.0,0.0,0.0,0.0,0.0,0.0,0.0,0.0,0.0,0.0,0.0,0.0,0.0,0.0,0.0,0.0,0.0,0.0,0.0,0.0,0.0,0.0,0.0,0.0,0.0,0.0,0.0,0.0,-2.7659,-3.013,-3.4102,-3.51,-3.5504,-3.5504,-3.3664,-3.1106,-2.7835,-2.6004,0.0,0.0,0.0,0.0,0.0,0.0,0.0,0.0,0.0,0.0,0.0,0.0,0.0,0.0,0.0,0.0,0.0,0.0,0.0,0.0,0.0,0.0,0.0,0.0,0.0,0.0,0.0,0.0,0.0,0.0,0.0,0.0,0.0,0.0,0.0,0.0,0.0,0.0,0.0,0.0,0.0,0.0,0.0,0.0,0.0,0.0,0.0,0.0,0.0,0.0,0.0,0.0,0.0,0.0,0.0,0.0,0.0,0.0,0.0,0.0,0.0,0.0,0.0,0.0,0.0,0.0,0.0,0.0,0.0,0.0,0.0,0.0,0.0,0.0,0.0,0.0,0.0,0.0,0.0,0.0,0.0,0.0,0.0,0.0,0.0,0.0,0.0,0.0,0.0,0.0,0.0,0.0,0.0,0.0,0.0,0.0,0.0,0.0,0.0,0.0,0.0,0.0,-2.9541,-3.1055,-3.4385,-3.519,-3.5444,-3.528,-3.329,-3.0687,-2.7545,-2.5345,0.0,0.0,0.0,0.0,0.0,0.0,0.0,0.0,0.0,0.0,0.0,0.0,0.0,0.0,0.0,0.0,0.0,0.0,0.0,0.0,0.0,0.0,0.0,0.0,0.0,0.0,0.0,0.0,0.0,0.0,0.0,0.0,0.0,0.0,0.0,0.0,0.0,0.0,0.0,0.0,0.0,0.0,0.0,0.0,0.0,0.0,0.0,0.0,0.0,0.0,0.0,0.0,0.0,0.0,0.0,0.0,0.0,0.0,0.0,0.0,0.0,0.0,0.0,0.0,0.0,0.0,0.0,0.0,0.0,0.0,0.0,0.0,0.0,0.0,0.0,0.0,0.0,0.0,0.0,0.0,0.0,0.0,0.0,0.0,0.0,0.0,0.0,0.0,0.0,0.0,0.0,0.0,0.0,0.0,0.0,0.0,0.0,0.0,0.0,0.0,0.0,0.0,-3.0083,-3.2377,-3.5145,-3.5474,-3.525,-3.4607,-3.2153,-2.9505,-2.6826,-2.4238,0.0,0.0,0.0,0.0,0.0,0.0,0.0,0.0,0.0,0.0,0.0,0.0,0.0,0.0,0.0,0.0,0.0,0.0,0.0,0.0,0.0,0.0,0.0,0.0,0.0,0.0,0.0,0.0,0.0,0.0,0.0,0.0,0.0,0.0,0.0,0.0,0.0,0.0,0.0,0.0,0.0,0.0,0.0,0.0,0.0,0.0,0.0,0.0,0.0,0.0,0.0,0.0,0.0,0.0,0.0,0.0,0.0,0.0,0.0,0.0,0.0,0.0,0.0,0.0,0.0,0.0,0.0,0.0,0.0,0.0,0.0,0.0,0.0,0.0,0.0,0.0,0.0,0.0,0.0,0.0,0.0,0.0,0.0,0.0,0.0,0.0,0.0,0.0,0.0,0.0,0.0,0.0,0.0,0.0,0.0,0.0,0.0,0.0,0.0,0.0,0.0,0.0,-2.9267,-3.1644,0.0,-3.5504,-3.5235,-3.4532,-3.2811,-3.0268,-2.6811,0.0,0.0,0.0,0.0,0.0,0.0,0.0,0.0,0.0,0.0,0.0,0.0,0.0,0.0,0.0,0.0,0.0,0.0,0.0,0.0,0.0,0.0,0.0,0.0,0.0,0.0,0.0,0.0,0.0,0.0,0.0,0.0,0.0,0.0,0.0,0.0,0.0,0.0,0.0,0.0,0.0,0.0,0.0,0.0,0.0,0.0,0.0,0.0,0.0,0.0,0.0,0.0,0.0,0.0,0.0,0.0,0.0,0.0,0.0,0.0,0.0,0.0,0.0,0.0,0.0,0.0,0.0,0.0,0.0,0.0,0.0,0.0,0.0,0.0,0.0,0.0,0.0,0.0,0.0,0.0,0.0,0.0,0.0,0.0,0.0,0.0,0.0,0.0,0.0,0.0,0.0,0.0,0.0,0.0,0.0,0.0,0.0,0.0,0.0,0.0,0.0,0.0,-2.6811,-2.8981,-3.148,0.0,-3.5175,-3.4906,-3.4218,-3.2183,-2.9609,-2.6482,0.0,0.0,0.0,0.0,0.0,0.0,0.0,0.0,0.0,0.0,0.0,0.0,0.0,0.0,0.0,0.0,0.0,0.0,0.0,0.0,0.0,0.0,0.0,0.0,0.0,0.0,0.0,0.0,0.0,0.0,0.0,0.0,0.0,0.0,0.0,0.0,0.0,0.0,0.0,0.0,0.0,0.0,0.0,0.0,0.0,0.0,0.0,0.0,0.0,0.0,0.0,0.0,0.0,0.0,0.0,0.0,0.0,0.0,0.0,0.0,0.0,0.0,0.0,0.0,0.0,0.0,0.0,0.0,0.0,0.0,0.0,0.0,0.0,0.0,0.0,0.0,0.0,0.0,0.0,0.0,0.0,0.0,0.0,0.0,0.0,0.0,0.0,0.0,0.0,0.0,0.0,0.0,0.0,0.0,0.0,0.0,0.0,0.0,0.0,0.0,0.0,0.0,-2.6258,-2.9475,-3.2273,-3.4247,-3.4472,-3.4203,-3.3544,-2.9864,-2.7021,0.0,0.0,0.0,0.0,0.0,0.0,0.0,0.0,0.0,0.0,0.0,0.0,0.0,0.0,0.0,0.0,0.0,0.0,0.0,0.0,0.0,0.0,0.0,0.0,0.0,0.0,0.0,0.0,0.0,0.0,0.0,0.0,0.0,0.0,0.0,0.0,0.0,0.0,0.0,0.0,0.0,0.0,0.0,0.0,0.0,0.0,0.0,0.0,0.0,0.0,0.0,0.0,0.0,0.0,0.0,0.0,0.0,0.0,0.0,0.0,0.0,0.0,0.0,0.0,0.0,0.0,0.0,0.0,0.0,0.0,0.0,0.0,0.0,0.0,0.0,0.0,0.0,0.0,0.0,0.0,0.0,0.0,0.0,0.0,0.0,0.0,0.0,0.0,0.0,0.0,0.0,0.0,0.0,0.0,0.0,0.0,0.0,0.0,0.0,0.0,0.0,0.0,0.0,0.0,-2.9056,-3.1569,-3.3574,-3.3784,-3.3514,-3.2856,-3.0462,-2.8023,-2.5749,0.0,0.0,0.0,0.0,0.0,0.0,0.0,0.0,0.0,0.0,0.0,0.0,0.0,0.0,0.0,0.0,0.0,0.0,0.0,0.0,0.0,0.0,0.0,0.0,0.0,0.0,0.0,0.0,0.0,0.0,0.0,0.0,0.0,0.0,0.0,0.0,0.0,0.0,0.0,0.0,0.0,0.0,0.0,0.0,0.0,0.0,0.0,0.0,0.0,0.0,0.0,0.0,0.0,0.0,0.0,0.0,0.0,0.0,0.0,0.0,0.0,0.0,0.0,0.0,0.0,0.0,0.0,0.0,0.0,0.0,0.0,0.0,0.0,0.0,0.0,0.0,0.0,0.0,0.0,0.0,0.0,0.0,0.0,0.0,0.0,0.0,0.0,0.0,0.0,0.0,0.0,0.0,0.0,0.0,0.0,0.0,0.0,0.0,0.0,0.0,0.0,0.0,-2.5854,-2.8727,-3.1165,-3.2916,-3.3095,-3.2841,-3.2183,-3.0058,-2.7754,-2.5375,0.0,0.0,0.0,0.0,0.0,0.0,0.0,0.0,0.0,0.0,0.0,0.0,0.0,0.0,0.0,0.0,0.0,0.0,0.0,0.0,0.0,0.0,0.0,0.0,0.0,0.0,0.0,0.0,0.0,0.0,0.0,0.0,0.0,0.0,0.0,0.0,0.0,0.0,0.0,0.0,0.0,0.0,0.0,0.0,0.0,0.0,0.0,0.0,0.0,0.0,0.0,0.0,0.0,0.0,0.0,0.0,0.0,0.0,0.0,0.0,0.0,0.0,0.0,0.0,0.0,0.0,0.0,0.0,0.0,0.0,0.0,0.0,0.0,0.0,0.0,0.0,0.0,0.0,0.0,0.0,0.0,0.0,0.0,0.0,0.0,0.0,0.0,0.0,0.0,0.0,0.0,0.0,0.0,0.0,0.0,0.0,0.0,0.0,0.0,0.0,0.0,0.0,-2.527,-2.8427,-3.0926,-3.2273,-3.2422,-3.2153,-3.1437,-2.9116,-2.6811,-2.4806,0.0,0.0,0.0,0.0,0.0,0.0,0.0,0.0,0.0,0.0,0.0,0.0,0.0,0.0,0.0,0.0,0.0,0.0,0.0,0.0,0.0,0.0,0.0,0.0,0.0,0.0,0.0,0.0,0.0,0.0,0.0,0.0,0.0,0.0,0.0,0.0,0.0,0.0,0.0,0.0,0.0,0.0,0.0,0.0,0.0,0.0,0.0,0.0,0.0,0.0,0.0,0.0,0.0,0.0,0.0,0.0,0.0,0.0,0.0,0.0,-2.6597,0.0,0.0,0.0,0.0,0.0,0.0,0.0,0.0,0.0,0.0,0.0,0.0,0.0,0.0,0.0,0.0,0.0,0.0,0.0,0.0,0.0,0.0,0.0,0.0,0.0,0.0,0.0,0.0,0.0,0.0,0.0,0.0,0.0,0.0,0.0,0.0,0.0,0.0,0.0,0.0,0.0,-2.527,-2.8053,-3.0283,-3.1599,-3.1676,-3.1465,-3.0776,-2.928,-2.753,-2.5525,0.0,0.0,0.0,0.0,0.0,0.0,0.0,0.0,0.0,0.0,0.0,0.0,0.0,0.0,0.0,0.0,0.0,0.0,0.0,0.0,0.0,0.0,0.0,0.0,0.0,0.0,0.0,0.0,0.0,0.0,0.0,0.0,0.0,0.0,0.0,0.0,0.0,0.0,0.0,0.0,0.0,0.0,0.0,0.0,0.0,0.0,0.0,0.0,0.0,0.0,0.0,0.0,0.0,0.0,0.0,0.0,0.0,0.0,0.0,0.0,0.0,-2.7915,0.0,0.0,0.0,0.0,0.0,0.0,0.0,0.0,0.0,0.0,0.0,0.0,0.0,0.0,0.0,0.0,0.0,0.0,0.0,0.0,0.0,0.0,0.0,0.0,0.0,0.0,0.0,0.0,0.0,0.0,0.0,0.0,0.0,0.0,0.0,0.0,0.0,0.0,0.0,0.0,-2.4837,-2.747,-2.949,-3.0492,-3.0597,-3.0328,-2.9639,-2.8682,-2.726,-2.527,-2.2966,0.0,0.0,0.0,0.0,0.0,0.0,0.0,0.0,0.0,0.0,0.0,0.0,0.0,0.0,0.0,0.0,0.0,0.0,0.0,0.0,0.0,0.0,0.0,0.0,0.0,0.0,0.0,0.0,0.0,0.0,0.0,0.0,0.0,0.0,0.0,0.0,0.0,0.0,0.0,0.0,0.0,0.0,0.0,0.0,0.0,0.0,0.0,0.0,0.0,0.0,0.0,0.0,0.0,0.0,0.0,-3.3697,-3.4357,-3.5092,-3.5716,-3.3036,-3.1861,-3.1623,0.0,0.0,0.0,0.0,0.0,0.0,0.0,0.0,0.0,0.0,0.0,0.0,0.0,0.0,0.0,0.0,0.0,0.0,0.0,0.0,0.0,0.0,0.0,0.0,0.0,-2.7858,-2.7334,0.0,0.0,0.0,0.0,0.0,0.0,0.0,0.0,0.0,0.0,0.0,0.0,-2.4537,-2.7021,-2.8861,-2.9505,-2.9579,-2.931,-2.8667,-2.8068,-2.6916,-2.4881,-2.3161,-2.1365,0.0,0.0,0.0,0.0,0.0,0.0,0.0,0.0,0.0,0.0,0.0,0.0,0.0,0.0,0.0,0.0,0.0,0.0,0.0,0.0,0.0,0.0,0.0,0.0,0.0,0.0,0.0,0.0,0.0,0.0,0.0,0.0,-2.5178,-2.6159,0.0,0.0,0.0,0.0,0.0,0.0,0.0,0.0,0.0,0.0,0.0,0.0,0.0,0.0,-3.3146,-3.5404,-3.6578,-3.6707,-3.8322,-3.867,-3.79,-3.801,-3.8487,-3.9221,-3.8799,0.0,-3.3348,-3.1623,0.0,0.0,0.0,0.0,0.0,0.0,0.0,0.0,0.0,0.0,0.0,0.0,0.0,0.0,0.0,0.0,0.0,0.0,0.0,0.0,0.0,0.0,-3.0192,-2.977,-3.0226,-3.0243,0.0,-2.6081,-2.4069,-2.3122,0.0,0.0,0.0,0.0,0.0,0.0,0.0,0.0,-2.5226,-2.7305,-2.8861,-2.9505,-2.9579,-2.931,-2.8667,-2.8517,-2.7604,-2.5615,-2.4702,-2.361,-2.2218,-1.9854,0.0,0.0,0.0,0.0,0.0,0.0,0.0,0.0,0.0,0.0,0.0,0.0,0.0,0.0,0.0,0.0,0.0,0.0,0.0,0.0,0.0,0.0,0.0,0.0,0.0,0.0,0.0,0.0,0.0,-2.5139,-2.6717,-2.6621,-2.7428,-2.7448,0.0,0.0,0.0,0.0,0.0,0.0,0.0,0.0,0.0,-3.2938,-3.3933,-3.5121,-3.6541,-3.8065,-3.9074,-3.9533,-4.0708,-4.1056,-4.0726,-4.0726,-4.1167,-4.1864,-4.0965,-3.9808,-3.8358,-3.5367,-3.3458,-3.2184,0.0,0.0,0.0,0.0,0.0,-2.9556,-3.0844,0.0,0.0,0.0,0.0,0.0,0.0,0.0,0.0,0.0,0.0,0.0,0.0,0.0,0.0,-3.1833,-3.2205,-3.2256,-3.1613,-2.977,-2.7655,0.0,-2.4314,-2.29,-2.1069,0.0,0.0,0.0,0.0,0.0,-2.4896,-2.6797,-2.8128,-2.8412,-2.8509,-2.8338,-2.8038,-2.8023,-2.7335,-2.5704,-2.494,-2.3852,-2.2219,-2.0635,-1.892,0.0,0.0,0.0,0.0,0.0,0.0,0.0,0.0,0.0,0.0,0.0,0.0,0.0,0.0,0.0,0.0,0.0,0.0,0.0,0.0,0.0,0.0,0.0,0.0,0.0,0.0,0.0,0.0,-2.6601,-2.7967,-2.7313,-2.8736,-2.8929,0.0,0.0,0.0,0.0,0.0,0.0,-3.291,-3.3677,-3.4717,-3.6142,-3.73,-3.8451,-3.9606,-4.0414,-4.1111,-4.1735,-4.2323,-4.2598,-4.2598,-4.2598,-4.2928,-4.3424,-4.2231,-4.2047,-4.2323,-3.8707,-3.6725,-3.5742,-3.3634,-3.2564,0.0,-3.3086,-3.2794,-3.2219,-3.3867,-3.3981,-3.3182,-3.2036,0.0,-3.0607,-2.7844,0.0,0.0,0.0,0.0,-2.8991,-3.0328,0.0,-3.2324,-3.3423,-3.3846,-3.3914,-3.3728,-3.2814,-3.1157,0.0,-2.6831,-2.5504,-2.3361,0.0,0.0,0.0,0.0,-2.4358,-2.5046,-2.6557,-2.7625,-2.7625,-2.7625,-2.7625,-2.7625,-2.746,-2.6841,-2.5674,-2.494,-2.3822,-2.2046,-2.1178,-1.9721,0.0,0.0,0.0,0.0,0.0,0.0,0.0,0.0,0.0,0.0,0.0,0.0,0.0,0.0,0.0,0.0,0.0,0.0,0.0,0.0,0.0,0.0,0.0,0.0,0.0,0.0,0.0,0.0,0.0,0.0,-2.8967,-3.0506,0.0,0.0,0.0,0.0,-3.1506,-3.3795,-3.5565,-3.6411,-3.7452,-3.8765,-4.0438,-4.077,-4.1258,-4.2103,-4.291,-4.3332,-4.3369,-4.3406,-4.3424,-4.3424,-4.3424,-4.3442,-4.3497,-4.3406,-4.3387,-4.324,-4.0744,-3.9239,-3.8401,-3.7121,-3.5706,-3.4443,-3.5253,-3.4717,-3.3699,-3.4516,-3.446,-3.4068,-3.4244,-3.3347,-3.2043,-3.1173,-2.9922,0.0,0.0,-3.0463,-3.1207,-3.1968,-3.3254,-3.4336,-3.4421,-3.4979,-3.5318,-3.459,-3.4387,-3.3457,0.0,-2.7937,-2.6029,-2.5189,0.0,0.0,-2.4283,-2.5031,-2.5749,-2.6408,-2.7126,-2.7625,-2.7625,-2.7625,-2.7625,-2.7625,-2.7006,-2.6348,-2.5659,-2.494,-2.4029,-2.268,-2.1541,-2.0076,-1.8259,-1.657,0.0,0.0,0.0,0.0,0.0,0.0,0.0,0.0,0.0,0.0,0.0,0.0,0.0,0.0,0.0,0.0,0.0,0.0,0.0,0.0,0.0,0.0,0.0,0.0,0.0,0.0,0.0,0.0,-3.1545,-3.3545,0.0,0.0,-3.3776,-3.493,-3.493,-3.6796,-3.8447,-3.9602,-4.0517,-4.1354,-4.2053,-4.266,-4.3005,-4.3057,-4.3351,-4.3497,-4.3497,-4.3497,-4.3497,-4.3497,-4.3497,-4.3497,-4.3497,-4.3497,-4.3497,-4.3424,-4.2561,-4.1735,-4.0928,-3.9973,-3.9232,-3.8775,-3.9081,-3.864,-3.7882,-3.7836,-3.7474,-3.6809,-3.5596,-3.4218,-3.2949,-3.2696,-3.2256,-3.1884,-3.2154,-3.2747,-3.3372,-3.3643,-3.4455,-3.5216,-3.5216,-3.5419,-3.5537,-3.5267,-3.4844,-3.3946,-3.2017,-3.0128,-2.8281,-2.6362,-2.5679,-2.5211,-2.4702,-2.5555,-2.6318,-2.6557,-2.7171,-2.7625,-2.7625,-2.7625,-2.7445,-2.6976,-2.6722,-2.5944,-2.4418,-2.4103,-2.3054,-2.0962,-2.0484,-1.9475,-1.774,-1.6957,-1.5575,0.0,0.0,0.0,0.0,0.0,0.0,0.0,0.0,0.0,0.0,0.0,0.0,0.0,0.0,0.0,0.0,0.0,0.0,0.0,0.0,0.0,0.0,0.0,0.0,0.0,0.0,-3.3891,-3.416,-3.643,-3.7219,-3.5257,-3.7103,-3.843,-3.843,-4.0008,-4.1332,-4.2082,-4.2816,-4.3215,-4.3185,-4.3602,-4.3726,-4.3479,-4.3497,-4.3497,-4.3497,-4.3497,-4.3497,-4.3497,-4.3497,-4.3497,-4.3497,-4.3497,-4.3497,-4.3497,-4.3497,-4.3185,-4.2653,-4.2121,-4.1754,-4.1482,-4.1259,-4.0673,-3.9866,-3.9206,-3.8685,-3.8094,-3.6537,-3.5334,-3.4506,-3.4235,-3.415,-3.415,-3.415,-3.4506,-3.4878,-3.4878,-3.525,-3.5622,-3.5622,-3.5622,-3.5622,-3.5622,-3.503,-3.4034,-3.2492,-3.1197,-2.9685,-2.7545,-2.6965,-2.6518,-2.5721,-2.6363,-2.6916,-2.6916,-2.7355,-2.7625,-2.7625,-2.7625,-2.7355,-2.6647,-2.6378,-2.56,-2.4044,-2.3535,-2.2395,-2.0335,-1.9838,-1.892,-1.742,-1.6702,-1.5614,-1.4072,0.0,0.0,0.0,0.0,0.0,0.0,0.0,0.0,0.0,0.0,0.0,0.0,0.0,0.0,0.0,0.0,0.0,0.0,0.0,0.0,0.0,0.0,0.0,-3.165,-3.4048,-3.593,-3.6719,-3.9046,-4.0258,-3.9488,-4.0912,-4.1893,-4.1893,-4.3412,-4.4191,-4.3857,-4.4321,-4.4419,-4.3998,-4.366,-4.3497,-4.3497,-4.3497,-4.3497,-4.3497,-4.3497,-4.3497,-4.3497,-4.3497,-4.3497,-4.3497,-4.3497,-4.3497,-4.3497,-4.3497,-4.3497,-4.3497,-4.3497,-4.302,-4.2255,-4.1687,-4.0659,-3.94,-3.8328,-3.7956,-3.7821,-3.7094,-3.6823,-3.6637,-3.5876,-3.5639,-3.5622,-3.5622,-3.5622,-3.5622,-3.5622,-3.5622,-3.5622,-3.5622,-3.5622,-3.5622,-3.5622,-3.503,-3.3929,-3.1965,-3.1004,-3.0067,-2.8715,-2.7993,-2.7625,-2.7625,-2.7625,0.0,-2.7625,-2.7625,-2.7625,-2.7625,-2.7625,-2.7305,-2.6617,-2.5974,-2.53,-2.4537,-2.334,-2.2074,-2.0862,-1.9654,-1.8528,-1.7395,-1.5772,-1.4664,-1.411,0.0,0.0,0.0,0.0,0.0,0.0,0.0,0.0,0.0,0.0,0.0,0.0,0.0,0.0,0.0,0.0,0.0,0.0,0.0,0.0,0.0,0.0,-3.3093,-3.3539,-3.6286,-3.8546,-3.9354,-4.1181,-4.2297,-4.2085,-4.3008,-4.3605,-4.3605,-4.4624,-4.5093,-4.4753,-4.4643,-4.4419,-4.3998,-4.366,-4.3497,-4.3497,-4.3497,-4.3497,-4.3497,-4.3497,-4.3497,-4.3497,-4.3497,-4.3497,-4.3497,-4.3497,-4.3497,-4.3497,-4.3497,-4.3497,-4.3497,-4.3497,-4.3351,-4.3149,-4.2973,-4.217,-4.1004,-3.985,-3.914,-3.865,-3.8447,-3.7652,-3.6738,-3.6535,-3.6062,-3.5622,-3.5622,-3.5622,-3.5622,-3.5622,-3.5622,-3.5622,-3.5622,-3.5622,-3.5622,-3.5622,-3.503,-3.3929,-3.1965,-3.1004,-2.9927,-2.8149,-2.771,-2.7625,-2.7625,0.0,0.0,-2.7625,-2.7625,-2.7625,-2.7625,-2.7625,-2.7111,-2.5974,-2.5719,-2.4717,0.0,-2.1801,-2.0664,-1.8934,-1.8166,-1.7466,-1.6748,-1.5906,-1.5203,0.0,0.0,0.0,0.0,0.0,0.0,0.0,0.0,0.0,0.0,0.0,0.0,0.0,0.0,0.0,0.0,0.0,0.0,0.0,0.0,0.0,0.0,-3.3559,-3.5446,-3.6841,-3.893,-4.0777,-4.195,-4.3297,-4.4143,-4.4143,-4.4566,-4.4836,-4.4836,-4.5297,-4.5438,-4.5118,-4.4781,-4.4419,-4.3998,-4.366,-4.3497,-4.3497,-4.3497,-4.3497,-4.3497,-4.3497,-4.3497,-4.3497,-4.3497,-4.3497,0.0,-4.3497,-4.3497,-4.3497,-4.3497,-4.3497,0.0,0.0,0.0,0.0,0.0,-4.2208,-4.1313,-4.0434,-3.98,-3.9394,-3.9089,-3.8413,-3.7601,-3.6975,-3.6468,-3.6045,-3.5707,-3.5622,-3.5622,-3.5622,-3.5622,-3.5622,-3.5622,-3.5622,-3.5515,-3.5253,-3.4387,-3.3188,-3.1518,0.0,0.0,-2.7821,-2.7625,-2.7625,-2.7625,-2.7625,-2.7625,0.0,-2.7625,-2.7625,-2.7625,-2.7625,-2.7036,-2.5719,-2.5615,0.0,0.0,0.0,-1.9946,-1.7828,-1.7229,0.0,0.0,0.0,0.0,0.0,0.0,0.0,0.0,-1.4714,-1.4676,0.0,0.0,0.0,0.0,0.0,0.0,0.0,0.0,0.0,0.0,0.0,0.0,0.0,0.0,0.0,0.0,-3.5689,-3.7454,-4.0653,-4.1609,-4.2524,-4.4105,-4.5066,-4.5586,-4.5586,-4.5586,-4.5586,-4.5586,-4.5586,-4.5476,-4.518,0.0,0.0,0.0,0.0,-4.3548,-4.3497,-4.3497,-4.3497,-4.3497,-4.3497,-4.3497,-4.3497,-4.3497,-4.3497,-4.3497,-4.3497,-4.3497,-4.3497,-4.3497,-4.3497,-4.3497,-4.3497,-4.3497,-4.3356,-4.2306,-4.1534,0.0,0.0,0.0,0.0,-3.9326,-3.9056,-3.8734,-3.733,-3.6857,-3.662,-3.5842,-3.5622,-3.5622,-3.5622,-3.5622,-3.5622,-3.5622,-3.5622,-3.5424,-3.483,-3.3611,-3.2207,-3.0948,-2.9572,-2.8367,-2.771,-2.7625,-2.7625,-2.7625,-2.7625,0.0,-2.7625,-2.7625,-2.7625,-2.7625,0.0,0.0,-2.5719,-2.5615,-2.4955,-2.3493,-2.1684,-1.9712,-1.7479,-1.6944,-1.671,-1.671,-1.7212,-1.7476,-1.7476,-1.7965,-1.8204,-1.8154,-1.617,-1.5768,0.0,0.0,0.0,0.0,0.0,0.0,0.0,0.0,0.0,0.0,0.0,0.0,0.0,0.0,0.0,-3.5469,-3.7565,-3.9915,-4.2671,-4.2986,-4.3274,-4.4179,-4.5066,-4.5586,-4.5586,-4.5586,-4.5586,-4.5586,-4.5586,-4.5568,-4.5513,-4.5201,0.0,-4.4501,-4.4106,-4.3772,-4.3479,-4.3497,-4.3497,-4.3497,0.0,0.0,-4.3497,-4.3497,-4.3497,-4.3497,-4.3497,-4.3497,-4.3497,-4.3497,-4.3497,-4.3497,-4.3497,-4.3497,-4.341,-4.277,-4.2162,-4.1534,-4.0967,-4.0449,-4.0054,-3.9918,-3.9462,-3.8836,-3.7956,-3.7263,0.0,-3.5842,-3.5622,-3.5622,-3.5622,-3.5622,-3.5622,-3.5622,-3.5622,-3.556,-3.5407,-3.4263,-3.2884,-3.163,-3.0226,-2.8857,-2.781,-2.7625,-2.7625,-2.7625,-2.7625,-2.7625,-2.7625,-2.7625,-2.7625,-2.7625,-2.7625,-2.7036,-2.5719,-2.5615,-2.4578,-2.2236,-2.0387,-1.8975,-1.8063,-1.7924,-1.7877,-1.7877,-1.799,-1.8053,-1.8053,-1.8154,-1.8204,-1.8191,-1.7765,-1.7677,0.0,0.0,0.0,0.0,0.0,0.0,0.0,0.0,0.0,0.0,0.0,-3.0508,0.0,0.0,-3.5918,-3.7676,-3.9352,-4.1194,-4.3298,-4.3838,-4.4268,-4.4984,-4.5365,-4.5586,-4.5586,-4.5586,-4.5586,-4.5586,-4.5586,-4.5586,-4.5586,-4.5263,-4.4943,-4.4606,-4.4204,-4.3818,-4.3479,-4.3497,-4.3497,-4.3497,-4.3497,-4.3497,-4.3497,-4.3497,-4.3497,-4.3497,-4.3497,-4.3497,-4.3497,-4.3497,-4.3497,-4.3497,-4.3497,-4.3497,-4.3444,-4.2902,-4.2302,-4.1707,-4.1133,-4.0528,-4.007,-4.007,-3.9834,-3.9326,-3.8244,-3.7652,-3.711,-3.5943,-3.5622,-3.5622,-3.5622,-3.5622,-3.5622,-3.5622,-3.5622,-3.5515,-3.5161,-3.3703,-3.2207,-3.1292,-2.9703,-2.8304,-2.771,-2.7625,-2.7625,-2.7625,-2.7625,-2.7625,-2.7625,-2.7625,-2.7625,-2.7625,-2.7625,-2.7036,-2.5719,-2.471,-2.3493,-2.1888,-2.0339,-1.9232,-1.8668,-1.8367,-1.8204,-1.8204,-1.848,-1.8618,-1.8618,-1.8882,-1.9007,-1.9007,-1.9007,-1.8869,0.0,0.0,0.0,0.0,0.0,0.0,0.0,0.0,-2.792,-2.9182,-3.1302,-3.3398,-3.4922,-3.6055,-3.75,-3.9785,-4.0879,-4.199,-4.3648,-4.4415,-4.4988,-4.5528,-4.5636,-4.5618,-4.5603,-4.5586,-4.5586,-4.5586,-4.5586,-4.5586,-4.5586,-4.5342,-4.5033,-4.4726,-4.4318,-4.3943,-4.3597,-4.3548,-4.3497,-4.3497,-4.3497,-4.3497,-4.3497,-4.3497,-4.3497,-4.3497,-4.3497,-4.3497,-4.3497,-4.3497,-4.3497,-4.3497,-4.3497,-4.3497,-4.3444,-4.3014,-4.2422,-4.1707,-4.1251,-4.0672,-4.007,-4.007,-3.9986,-3.9631,-3.8311,-3.7804,-3.7398,-3.6011,-3.5622,-3.5622,-3.5622,-3.5622,-3.5622,-3.5622,-3.5622,-3.547,-3.4894,-3.3315,-3.1725,-3.0948,-2.9277,-2.7894,-2.761,-2.7625,-2.7625,-2.7625,-2.7625,-2.7625,-2.7625,-2.7625,-2.7625,-2.7625,-2.7625,-2.7036,-2.5719,-2.3824,-2.2472,-2.1886,-2.065,-1.9743,-1.9258,-1.8767,-1.8518,-1.8518,-1.8957,-1.9183,-1.9183,-1.9597,-1.9798,-1.9798,-1.9798,-1.9572,-2.3081,-2.2581,0.0,-2.4485,-2.4937,-2.5871,0.0,0.0,-3.095,-3.3376,-3.4796,-3.5879,-3.6836,-3.8359,-3.9805,-4.0879,-4.1738,-4.2871,-4.4609,-4.4826,-4.4831,-4.4894,-4.5424,-4.5718,-4.562,-4.5586,-4.5586,-4.5586,-4.5586,-4.5586,-4.5586,-4.5568,-4.54,-4.5052,-4.4707,-4.4346,-4.3955,-4.3646,-4.3497,-4.3497,-4.3497,-4.3497,-4.3497,-4.3497,-4.3497,-4.3497,-4.3497,-4.3497,-4.3497,-4.3497,-4.3497,-4.3497,-4.3497,-4.3497,-4.3479,-4.3444,-4.2734,-4.181,-4.1707,-4.0984,-4.007,-4.007,-3.9648,-3.8954,-3.8159,-3.7432,-3.6721,-3.5859,-3.5622,-3.5622,-3.5622,-3.5622,-3.5622,-3.5622,-3.5622,-3.5577,-3.5515,-3.4307,-3.2884,-3.1725,-3.0273,-2.8857,-2.7795,-2.7625,-2.7625,-2.7625,-2.7625,-2.7625,-2.7625,-2.7625,-2.7625,-2.7625,-2.7625,-2.7036,-2.5719,-2.3837,-2.2422,-2.1736,-2.0515,-1.9775,-1.9712,-1.9674,-1.9623,-1.9623,-1.9685,-1.971,-1.971,-1.9773,-1.9798,-1.9798,-1.9798,-1.9773,-2.4582,0.0,0.0,0.0,-2.7178,-2.8161,-3.0623,-3.2019,-3.3262,-3.4948,-3.6817,-3.8292,-3.873,-3.9824,-4.0937,0.0,-4.2617,-4.3594,-4.4824,-4.4958,-4.4889,-4.4805,-4.4561,-4.4552,-4.4911,-4.5346,-4.5586,-4.5586,-4.5586,-4.5586,-4.5586,-4.5586,-4.5438,-4.5096,-4.4966,-4.4612,-4.4016,-4.3849,-4.3693,-4.3497,-4.3497,-4.3497,-4.3497,-4.3497,-4.3497,-4.3497,-4.3497,-4.3497,-4.3497,-4.3497,-4.3497,-4.3497,-4.3497,-4.3497,-4.3444,-4.3142,-4.2501,-4.175,-4.1402,-4.0767,-4.0003,-3.958,-3.9242,-3.8768,-3.7601,-3.7026,-3.662,-3.5842,-3.5622,-3.5622,-3.5622,-3.5622,-3.5622,-3.5622,-3.5622,-3.5504,-3.5064,-3.3601,-3.2092,-3.1146,-2.9564,-2.8174,-2.766,-2.7625,-2.7625,-2.7625,-2.7625,-2.7625,-2.7625,-2.7625,-2.7625,-2.7625,-2.723,-2.6519,-2.5169,-2.3957,-2.2822,-2.1785,-2.0868,-2.0396,-2.0396,-2.0003,-1.9798,-1.9798,-1.9798,-1.9798,-1.9798,-1.9798,-1.9798,-1.9798,-1.9798,-1.9987,-2.5774,0.0,0.0,-2.8313,-2.9217,-3.0275,-3.2006,-3.3388,-3.4642,-3.5842,-3.7648,-3.9114,-3.9429,-4.0234,0.0,-4.1933,-4.2988,-4.3926,-4.4551,-4.4844,-4.4783,-4.4218,-4.3733,-4.3564,-4.3804,-4.4693,-4.5336,-4.5566,-4.5586,-4.5586,-4.5586,-4.5586,-4.5495,-4.5243,-4.5159,-4.4853,-4.4318,-4.4087,-4.3881,-4.3646,-4.3548,-4.3497,-4.3497,-4.3497,-4.3497,-4.3497,-4.3497,-4.3497,-4.3497,-4.3497,-4.3497,-4.3497,-4.3497,-4.3497,-4.3444,-4.2902,-4.2302,-4.175,-4.1313,-4.0535,-3.9698,-3.9157,-3.8717,-3.8176,-3.711,-3.6637,-3.6349,-3.5774,-3.5622,-3.5622,-3.5622,-3.5622,-3.5622,-3.5622,-3.5622,-3.5419,-3.4658,-3.3082,-3.1562,-3.0667,-2.9042,-2.781,-2.7625,-2.7625,-2.7625,-2.7625,-2.7625,-2.7625,-2.7625,-2.7625,-2.7625,-2.7625,-2.7141,-2.6351,-2.5058,-2.4163,-2.315,-2.1799,-2.0966,-2.0497,-2.0497,-2.0055,-1.9798,-1.9798,-1.9798,-1.9798,-1.9798,-1.9798,-1.9798,-1.9798,-1.9962,-2.0263,0.0,0.0,-2.8255,-2.991,-3.0987,-3.2064,-3.3737,-3.4218,-3.4788,-3.6503,-3.7086,-3.7526,-3.8307,-3.9252,-4.0215,-4.1094,-4.2617,-4.3711,-4.373,-4.4473,-4.4375,-4.2676,-4.3147,-4.3226,0.0,-4.3504,-4.4682,-4.5528,-4.5586,-4.5586,-4.5586,-4.5586,-4.5605,-4.5586,-4.5263,-4.5096,-4.5074,-4.4354,-4.3998,-4.3986,-4.3646,-4.3497,-4.3497,-4.3497,-4.3497,-4.3497,-4.3497,-4.3497,-4.3497,-4.3497,-4.3497,-4.3497,-4.3497,-4.3497,-4.3444,-4.2902,-4.2302,-4.181,-4.1768,-4.0561,-3.9022,-3.9005,-3.8024,-3.684,-3.6789,-3.6265,-3.5656,-3.5622,-3.5622,-3.5622,-3.5622,-3.5622,-3.5622,-3.5622,-3.5622,-3.5419,-3.4658,-3.3428,-3.2085,-3.076,-2.9423,-2.8286,-2.771,-2.7625,-2.7625,-2.7625,-2.7625,-2.7625,-2.7625,-2.7625,-2.7625,-2.7625,-2.761,-2.7021,-2.5672,-2.4404,-2.3145,-2.1779,-2.0521,-1.985,-1.985,-1.9798,-1.9798,-1.9798,-1.9798,-1.9798,-1.9798,-1.9798,-1.9798,-1.9811,-2.0376,-2.0706,0.0,0.0,-2.9967,-3.1641,-3.2718,-3.366,-3.4795,-3.5489,-3.6086,-3.6753,-3.6957,-3.7124,-3.7531,-3.7873,-3.8607,-4.0097,-4.1738,-4.3047,-4.3613,-4.4453,-4.4355,-4.2617,-4.2602,0.0,0.0,0.0,0.0,-4.468,-4.4739,-4.4989,-4.5566,-4.5586,-4.5586,-4.5586,-4.5495,-4.5322,-4.5096,-4.4853,-4.4463,-4.4016,-4.3679,-4.3497,-4.3497,-4.3497,-4.3497,-4.3497,-4.3497,-4.3497,-4.3497,-4.3497,-4.3497,-4.3497,-4.3497,-4.3497,-4.3479,-4.3286,-4.2521,-4.1461,-4.1115,-4.0359,-3.9353,-3.8356,-3.745,-3.6688,-3.6163,-3.5825,-3.5622,-3.5622,-3.5622,-3.5622,-3.5622,-3.5622,-3.5622,-3.5622,-3.5622,-3.5419,-3.4658,-3.3445,-3.2237,-3.1258,-2.9687,-2.8431,-2.8238,-2.786,-2.7625,-2.7625,-2.7625,-2.7625,-2.7625,-2.7625,-2.7625,-2.7625,-2.7625,-2.6872,-2.515,-2.4985,-2.4019,-2.1827,-2.1328,-2.0855,-2.0497,-2.0055,-1.9798,-1.9798,-1.9798,-1.9798,-1.9798,-1.9798,-1.9999,-2.0376,-2.063,-2.1054,0.0,-3.0025,-3.1641,-3.3026,-3.4026,-3.4814,-3.5372,-3.5661,-3.5836,-3.5921,-3.5484,-3.523,-3.5685,-3.5783,-3.6491,-3.8632,-4.0664,-4.2266,-4.3125,-4.3984,-4.4121,-4.3008,-4.2554,0.0,0.0,0.0,0.0,-4.4311,-4.4617,-4.5009,-4.5566,-4.5586,-4.5586,-4.5586,-4.5586,-4.5495,-4.5263,-4.5159,-4.4806,-4.4204,-4.3868,-4.3679,-4.366,-4.3529,-4.3497,-4.3497,-4.3497,-4.3497,-4.3497,-4.3497,-4.3497,-4.3497,-4.3497,-4.3497,-4.3461,-4.3167,-4.2518,-4.1615,-4.0887,-3.9912,-3.878,-3.7627,-3.6853,-3.6265,-3.5774,-3.5622,-3.5622,-3.5622,-3.5622,-3.5622,-3.5622,-3.5622,-3.5622,-3.5622,-3.5622,-3.5351,-3.432,-3.3261,-3.2154,-3.0931,-2.9482,-2.8415,-2.8238,-2.786,-2.7625,-2.7625,-2.7625,-2.7625,-2.7625,-2.7625,-2.7625,-2.7625,-2.7415,-2.6619,-2.5135,-2.4732,-2.3741,-2.1813,-2.128,-2.0855,-2.0446,-2.0055,-1.9798,-1.9798,-1.9798,-1.9798,-1.9798,-1.9798,-2.01,-2.0718,-2.092,-2.1443,-3.0025,-3.1698,-3.3179,-3.4045,-3.4891,-3.5488,-3.5449,-3.4795,-3.418,-3.4083,-3.2808,-3.1995,0.0,0.0,-3.409,-3.6738,-3.9394,-4.1426,-4.2285,-4.3183,-4.375,0.0,0.0,0.0,0.0,0.0,0.0,-4.4478,0.0,-4.5565,-4.5586,-4.5586,-4.5586,-4.5586,-4.5586,-4.5586,-4.5586,-4.5282,-4.4943,-4.4606,-4.4204,-4.3998,-4.3986,-4.3679,-4.3513,-4.3497,-4.3497,-4.3497,-4.3497,-4.3497,-4.3497,-4.3497,-4.3442,-4.3424,-4.3332,-4.2543,-4.2213,-4.2022,-4.096,-3.9258,-3.7456,-3.6962,-3.626,-3.5622,-3.5622,-3.5622,-3.5622,-3.5622,-3.5622,-3.5622,-3.5622,-3.5622,-3.5622,-3.5622,-3.5588,-3.5182,-3.3761,-3.2927,-3.19,-2.9891,-2.8935,-2.8334,-2.771,-2.7625,-2.7625,-2.7625,-2.7625,-2.7625,-2.7625,-2.7625,-2.7625,-2.7625,-2.7006,-2.6363,-2.5674,-2.3923,-2.2512,-2.1799,-2.0557,-1.9901,-1.985,-1.9798,-1.9798,-1.9798,-1.9798,-1.9798,-1.9798,-1.9798,-2.0112,-2.0769,-2.1242,-2.1794,-3.1083,-3.2583,-3.4083,-3.4949,-3.5353,-3.5334,-3.468,-3.4353,-3.3853,-3.2583,-3.1484,-3.0656,0.0,0.0,0.0,-3.5019,-3.8105,0.0,-4.2207,-4.3711,0.0,0.0,0.0,-4.416,-4.3729,-4.4179,0.0,0.0,-4.4769,-4.5012,-4.5565,-4.5586,-4.5586,-4.5586,-4.5586,-4.5586,-4.5586,-4.5282,-4.5052,-4.4966,-4.4631,-4.429,-4.4016,-4.3893,-4.3758,-4.3497,-4.3497,-4.3497,-4.3497,-4.3497,-4.3497,-4.3424,-4.2837,-4.2598,-4.2506,-4.1699,-4.1038,-4.0423,-3.9716,-3.8913,-3.8056,-3.7316,-3.6404,-3.5622,-3.5622,-3.5622,-3.5622,-3.5622,-3.5622,-3.5622,-3.5622,-3.5622,-3.5622,-3.5622,-3.5182,-3.4675,-3.4303,-3.3254,-3.2077,-3.1063,-2.9621,-2.8334,-2.771,-2.7625,-2.7625,-2.7625,-2.7625,-2.7625,-2.7625,-2.7625,-2.7625,-2.7625,-2.7475,-2.6856,-2.5704,-2.5153,-2.4174,-2.2569,-2.1663,-2.1002,-2.0547,-2.0055,-1.9798,-1.9798,-1.9798,-1.9798,-1.9798,-1.9798,-2.0313,-2.128,-2.143,-2.2008,-3.2564,-3.3757,-3.4891,-3.5391,-3.5218,-3.4699,-3.3833,-3.3064,-3.216,-3.0833,-2.9583,0.0,0.0,0.0,0.0,0.0,0.0,0.0,-4.2051,-4.3574,-4.4531,0.0,-4.4941,0.0,-4.4844,-4.5229,-4.5428,0.0,-4.5172,-4.5253,-4.5673,-4.5635,-4.5586,-4.5586,-4.5586,-4.5586,-4.5586,-4.5419,-4.5322,-4.5322,-4.4966,-4.4707,-4.4463,-4.4146,-4.3912,-4.3707,0.0,-4.2965,-4.2947,-4.2598,-4.2451,-4.2396,-4.1956,-4.1772,-4.168,-4.0873,-4.0286,-3.9795,-3.9148,-3.8579,-3.8058,-3.739,-3.6643,-3.5941,-3.5941,-3.5783,-3.5622,-3.5622,-3.5622,-3.5622,-3.5622,-3.5622,-3.5622,-3.5622,-3.5047,-3.4404,-3.4083,-3.3102,-3.195,-3.0762,-2.9202,-2.7993,-2.766,-2.7625,-2.7625,-2.7625,-2.7625,-2.7625,-2.7625,-2.7625,-2.7625,-2.7625,-2.737,-2.6722,-2.5689,-2.5097,-2.4197,-2.2812,-2.1819,-2.1161,-2.0795,-2.0156,-1.9798,-1.9798,-1.9798,-1.9798,-1.9798,-2.0062,-2.0627,-2.1493,-2.1732,-2.2309,-3.3987,-3.4834,-3.5493,-3.5493,-3.4834,-3.393,-3.2968,-3.1525,-3.0102,-2.8986,0.0,0.0,-2.7608,0.0,-2.9226,-3.2674,0.0,-3.8184,-4.1738,-4.2988,-4.418,-4.5918,-4.5566,-4.5469,-4.623,-4.6308,-4.6247,-4.6144,-4.5957,-4.5828,-4.5796,-4.5677,-4.562,-4.5586,-4.5586,-4.5586,-4.5586,-4.5586,-4.5586,-4.5605,-4.5302,-4.514,-4.5074,-4.4455,-4.4031,-4.3781,0.0,0.0,-4.2084,-4.1405,-4.1111,-4.1111,-4.0983,-4.0946,-4.0855,-4.0047,-3.9735,-3.9643,-3.8946,-3.8382,-3.7946,-3.7433,-3.6882,-3.6374,-3.6374,-3.6028,-3.5622,-3.5622,-3.5622,-3.5622,-3.5622,-3.5622,-3.5622,-3.5622,-3.4962,-3.4167,-3.3541,-3.2647,-3.1408,-2.9742,-2.8448,-2.7625,-2.7625,-2.7625,-2.7625,-2.7625,-2.7625,-2.7625,-2.7625,-2.7625,-2.7625,-2.7625,-2.6976,-2.6284,-2.5565,-2.44,-2.3324,-2.2509,-2.1417,-2.0746,-2.0646,-2.0105,-1.9798,-1.9798,-1.9798,-1.9798,-1.9798,-2.03,-2.0878,-2.1493,-2.1983,-2.2535,-3.416,-3.4834,-3.5493,-3.5493,-3.4834,-3.3795,-3.2256,-3.1141,0.0,0.0,0.0,-2.6458,-2.5955,-2.7101,0.0,-3.1858,0.0,0.0,0.0,0.0,-4.3262,0.0,0.0,0.0,0.0,0.0,0.0,0.0,0.0,0.0,-4.5809,-4.5769,-4.5723,-4.5603,-4.5586,-4.5586,-4.5586,-4.5586,-4.5586,-4.5586,-4.5531,-4.5362,-4.5096,-4.4966,-4.419,-4.3021,0.0,0.0,-4.1313,-4.1167,-4.1111,-4.1038,-4.0377,-4.0102,-4.001,-3.9203,-3.8909,-3.8891,-3.8762,-3.8627,-3.8465,-3.7946,-3.7155,-3.6374,-3.6374,-3.6028,-3.5622,-3.5622,-3.5622,-3.5622,-3.5622,-3.5622,-3.5622,-3.5622,-3.459,-3.3558,-3.344,-3.156,-2.9819,-2.9467,-2.8448,-2.7625,-2.7625,-2.7625,-2.7625,-2.7625,-2.7625,-2.7625,-2.7625,-2.7625,-2.7625,-2.7625,-2.6976,-2.6109,-2.4946,-2.4148,-2.298,-2.1215,-2.0944,-2.0547,-2.0003,-1.985,-1.9798,-1.9798,-1.9798,-1.9798,-1.9798,-1.9911,-2.0476,-2.1493,-2.1594,-2.2171,-3.4757,-3.518,-3.5493,-3.5493,-3.4507,-3.3083,-3.141,0.0,0.0,0.0,0.0,-2.5832,-2.5461,0.0,0.0,0.0,0.0,0.0,0.0,0.0,0.0,0.0,0.0,0.0,0.0,0.0,0.0,0.0,0.0,0.0,-4.5955,-4.5856,-4.5733,-4.5603,-4.5586,-4.5586,-4.5586,-4.5586,-4.5586,-4.5586,-4.5586,-4.5282,-4.4672,-4.4512,-4.3779,-4.2599,0.0,0.0,-4.064,-4.0086,-3.9863,-3.9827,-3.9423,-3.9276,-3.9239,-3.8836,-3.8707,-3.8707,-3.8707,-3.8707,-3.8658,-3.8382,-3.7808,-3.7135,-3.6865,-3.6457,-3.5985,-3.5694,-3.5622,-3.5622,-3.5622,-3.5334,-3.503,-3.503,-3.3897,-3.2713,-3.2341,-3.1016,-2.9761,-2.9451,-2.8685,-2.7944,-2.766,-2.7625,-2.7625,-2.7625,-2.7625,-2.7625,-2.7625,-2.7275,-2.7186,-2.758,-2.6976,-2.6221,-2.525,-2.4258,-2.3169,-2.1888,-2.1175,-2.0646,-2.0346,-2.0003,-1.9798,-1.9798,-1.9798,-1.9798,-1.9798,-2.0112,-2.0526,-2.1066,-2.1355,-2.1769,-3.5257,-3.5493,-3.5493,-3.5493,-3.4199,-3.2468,-3.0794,-2.9102,0.0,0.0,0.0,0.0,0.0,0.0,0.0,0.0,0.0,0.0,0.0,0.0,0.0,0.0,0.0,0.0,0.0,0.0,0.0,0.0,0.0,0.0,0.0,-4.589,-4.5733,-4.5603,-4.5586,-4.5586,-4.5586,-4.5586,-4.5509,-4.5316,-4.5316,-4.4874,-4.4028,-4.3771,-4.3135,-4.2176,0.0,0.0,0.0,-3.9172,-3.8773,-3.8773,-3.8719,-3.8707,-3.8707,-3.8707,-3.8707,-3.8689,-3.8505,-3.8432,-3.8414,-3.8248,-3.7994,-3.7685,-3.7323,-3.6764,-3.6105,-3.5552,-3.5368,-3.5351,-3.5182,-3.4709,-3.4218,-3.4066,-3.3119,-3.2087,-3.136,-3.0601,-2.9995,-2.9496,-2.8826,-2.814,-2.766,-2.7625,-2.7625,-2.7625,-2.7505,-2.7415,-2.7415,-2.6782,-2.6572,-2.7096,-2.6557,-2.5911,-2.5248,-2.3992,-2.2979,-2.2342,-2.1224,-2.0597,-2.0597,-2.0105,-1.9798,-1.9798,-1.9798,-1.9798,-1.9798,-2.0263,-2.0592,-2.0731,-2.1104,-2.138,-3.5257,-3.5493,-3.5493,-3.5493,-3.4199,-3.2468,-3.0794,0.0,0.0,0.0,-2.5303,-2.5313,-2.5303,0.0,0.0,0.0,0.0,0.0,0.0,0.0,0.0,0.0,0.0,0.0,0.0,0.0,0.0,0.0,0.0,0.0,0.0,-4.5836,-4.5733,-4.5603,-4.5586,-4.5586,-4.5586,-4.5586,-4.5201,-4.4412,-4.4412,-4.3989,-4.322,-4.3184,-4.2524,-4.1397,0.0,0.0,0.0,-3.9242,-3.9044,-3.9036,-3.8803,-3.8707,-3.8707,-3.8707,-3.8707,-3.8597,-3.7845,-3.7606,-3.7477,-3.6762,-3.6841,-3.7266,-3.721,-3.6481,-3.5514,-3.4793,-3.459,-3.4438,-3.3778,-3.3558,-3.3339,-3.2645,-3.2374,-3.2087,-3.136,-3.0309,-2.9451,-2.9406,-2.8496,-2.7675,-2.7625,-2.7625,-2.7625,-2.7625,-2.7066,-2.6677,-2.6677,-2.6108,-2.5719,-2.5779,-2.5196,-2.4534,-2.3934,-2.263,-2.1636,-2.0993,-2.0295,-1.9901,-1.9901,-1.985,-1.9798,-1.9798,-1.9798,-1.9798,-1.9798,-1.9861,-2.015,-2.0718,-2.0769,-2.1004,-3.4353,-3.5103,-3.5493,-3.5493,-3.4199,-3.2468,-3.0794,0.0,0.0,-2.5649,-2.5303,-2.5303,-2.5303,0.0,0.0,0.0,0.0,0.0,0.0,0.0,0.0,0.0,0.0,0.0,0.0,0.0,0.0,0.0,0.0,0.0,0.0,-4.5365,-4.5783,-4.5603,-4.5086,-4.4816,-4.4816,-4.4335,-4.3912,-4.3585,-4.3585,-4.3143,-4.2316,-4.2316,-4.1767,-4.0818,0.0,0.0,0.0,-3.9314,-3.9099,-3.9072,-3.8803,-3.8707,-3.8652,-3.8157,-3.7973,-3.7845,-3.7055,-3.678,-3.6707,-3.6395,-3.624,-3.6164,-3.6164,-3.5666,-3.5022,-3.4404,-3.4065,-3.3778,-3.3491,-3.3068,-3.2544,-3.1799,-3.163,-3.1546,-3.1258,-3.0838,-3.0251,-2.954,-2.8996,-2.8448,-2.771,-2.7625,-2.749,-2.7036,-2.6752,-2.6437,-2.6048,-2.542,-2.5016,-2.5016,-2.4746,-2.4476,-2.4279,-2.2686,-2.1615,-2.1342,-2.0383,-1.9798,-1.9798,-1.9798,-1.9798,-1.9798,-1.9798,-1.9798,-1.9798,-1.9798,-1.9924,-2.015,-2.015,-2.0263,-3.3353,-3.4449,-3.5122,-3.5122,-3.3814,-3.2102,0.0,0.0,-2.7082,-2.561,-2.5303,-2.5303,-2.5303,-2.5303,-2.5339,0.0,0.0,0.0,0.0,0.0,0.0,0.0,0.0,0.0,0.0,0.0,0.0,0.0,0.0,0.0,0.0,-4.4631,-4.5113,-4.4897,-4.4299,-4.3978,-4.3951,-4.3374,-4.297,-4.272,-4.272,-4.2258,-4.1412,-4.1412,-4.1085,0.0,0.0,0.0,0.0,-3.898,-3.8584,-3.8483,-3.822,-3.8063,-3.7918,-3.7349,-3.7129,-3.7019,-3.6193,-3.5917,-3.5881,-3.5642,-3.5294,-3.4999,-3.4999,-3.4807,-3.4458,-3.3753,-3.3185,-3.2763,-3.2763,-3.2357,-3.1833,-3.1309,-3.119,-3.119,-3.119,-3.1055,-3.0699,-2.9805,-2.9361,-2.8857,-2.7993,-2.771,-2.735,-2.6692,-2.6422,-2.6063,-2.5405,-2.4732,-2.4313,-2.4313,-2.4313,-2.4313,-2.4313,-2.2726,-2.1697,-2.1697,-2.0521,-1.9798,-1.9798,-1.9798,-1.9798,-1.9798,-1.9798,-1.9798,-1.9798,-1.9798,-1.9798,-1.9798,-1.9798,-1.9798,-3.2468,-3.3545,-3.4199,-3.4199,-3.2949,-3.1256,0.0,-2.7813,-2.637,-2.5476,-2.5303,-2.5303,-2.5303,-2.5303,-2.5312,0.0,0.0,0.0,0.0,0.0,0.0,0.0,0.0,0.0,0.0,0.0,0.0,0.0,0.0,0.0,0.0,0.0,-4.3493,-4.3228,-4.3228,-4.3187,-4.3104,-4.3104,-4.2662,-4.1816,-4.1816,-4.1354,-4.0508,-4.0508,0.0,0.0,0.0,0.0,0.0,-3.8016,-3.7356,-3.7087,-3.6833,-3.6554,-3.6321,-3.6321,-3.6303,-3.6193,-3.5302,-3.5009,-3.4862,-3.4082,-3.3825,-3.3825,-3.3825,-3.3949,-3.3852,-3.2655,-3.1765,-3.1207,-3.1207,-3.1207,-3.1207,-3.119,-3.119,-3.119,-3.119,-3.074,-3.0293,-3.0293,-2.9316,-2.8511,-2.8511,-2.7993,-2.735,-2.6692,-2.6033,-2.5375,-2.4686,-2.4044,-2.361,-2.361,-2.361,-2.361,-2.361,-2.2469,-2.1697,-2.1697,-2.0521,-1.9798,-1.9798,-1.9798,-1.9798,-1.9798,-1.9798,-1.9798,-1.9798,-1.9798,-1.9798,-1.9798,-1.9798,-1.9798,-3.0006,-3.0948,-3.1602,-3.1602,-3.0756,-2.9621,-2.8525,-2.7409,-2.6351,-2.5476,-2.5303,-2.5303,-2.5303,-2.5303,-2.5524,-2.6177,0.0,0.0,0.0,0.0,0.0,0.0,0.0,0.0,0.0,0.0,0.0,0.0,0.0,0.0,0.0,0.0,-4.2381,-4.3306,-4.2707,-4.237,-4.2356,-4.1682,-4.1181,-4.0912,-4.0912,-4.0758,-4.0469,-3.9931,0.0,0.0,0.0,0.0,0.0,-3.7547,-3.7175,-3.7065,-3.6604,-3.638,-3.6229,-3.5642,-3.5422,-3.5293,-3.4486,-3.4192,-3.4137,-3.388,-3.3807,-3.3734,-3.3465,-3.3417,-3.3275,-3.2258,-3.1581,-3.119,-3.119,-3.119,-3.119,-3.119,-3.119,-3.119,-3.119,-3.1055,-3.0658,-2.9865,-2.9361,-2.8873,-2.8042,-2.7349,-2.6677,-2.6019,-2.536,-2.4687,-2.4014,-2.3729,-2.3595,-2.3595,-2.3231,-2.3143,-2.3551,-2.2409,-2.1697,-2.1697,-2.0521,-1.9798,-1.9798,-1.9798,-1.9798,-1.9798,-1.9798,-1.9798,-1.9798,-1.9798,-1.9798,-1.9798,-1.9798,-1.9798,0.0,-2.9275,-2.991,-2.991,-2.9275,-2.8429,-2.7601,-2.6736,-2.5967,-2.5399,-2.5303,-2.5303,-2.5303,-2.5303,-2.5486,-2.608,0.0,0.0,0.0,0.0,0.0,0.0,0.0,0.0,0.0,0.0,0.0,0.0,0.0,0.0,0.0,0.0,-4.1478,-4.2056,-4.1782,-4.1577,-4.1505,-4.0893,-4.0545,-4.0489,-4.0181,-4.0046,-4.0008,0.0,0.0,0.0,0.0,0.0,0.0,-3.678,-3.6445,-3.6288,-3.5875,-3.5636,-3.5449,-3.4798,-3.4559,-3.4486,-3.3972,-3.3807,-3.3807,-3.3807,-3.3807,-3.3734,-3.3302,-3.2952,-3.2568,-3.177,-3.1372,-3.119,-3.119,-3.119,-3.119,-3.119,-3.119,-3.119,-3.119,-3.1015,-3.0658,-2.9908,-2.9361,-2.8732,-2.774,-2.7037,-2.6288,-2.5375,-2.4896,-2.4373,-2.3684,-2.3595,-2.3508,-2.3275,-2.292,-2.2725,-2.2891,-2.1946,-2.1342,-2.1342,-2.0383,-1.9798,-1.9798,-1.9798,-1.9798,-1.9798,-1.9798,-1.9798,-1.9798,-1.9798,-1.9798,-1.9798,-1.9798,-1.9643,0.0,-2.8255,-2.8832,-2.8832,-2.8275,-2.7505,-2.6697,-2.589,0.0,-2.5303,-2.5303,-2.5322,-2.538,-2.5341,-2.5341,-2.5457,0.0,0.0,0.0,0.0,0.0,0.0,0.0,0.0,0.0,0.0,0.0,0.0,0.0,0.0,0.0,0.0,0.0,-3.9844,-4.0474,-4.0727,-4.0533,-4.0521,-4.0456,-4.0327,-3.9576,-3.9215,-3.9181,0.0,0.0,0.0,0.0,0.0,0.0,-3.5801,-3.532,-3.507,-3.4793,-3.4508,-3.4171,-3.3928,-3.3815,-3.3807,-3.3807,-3.3807,-3.3807,-3.3807,-3.3807,-3.3734,-3.3302,-3.2601,-3.1858,-3.1368,-3.123,-3.119,-3.119,-3.119,-3.119,-3.119,-3.119,-3.119,-3.119,-3.0757,-3.0335,-3.0227,-2.9281,-2.8264,-2.755,-2.6868,-2.6033,-2.4761,-2.4537,-2.4313,-2.3684,-2.3551,-2.3334,-2.274,-2.2603,-2.23,-2.171,-2.1113,-2.0795,-2.0795,-2.0156,-1.9798,-1.9798,-1.9798,-1.9798,-1.9798,-1.9798,-1.9798,-1.9798,-1.9798,-1.9798,-1.9798,-1.9798,-1.9423,-2.5813,0.0,-2.6197,-2.6197,-2.6063,-2.587,0.0,-2.5437,-2.5303,0.0,0.0,0.0,0.0,0.0,0.0,0.0,0.0,0.0,0.0,0.0,0.0,0.0,0.0,0.0,0.0,0.0,0.0,0.0,0.0,0.0,0.0,0.0,0.0,-3.8926,-3.9062,-3.9086,-3.8934,-3.8899,-3.8802,-3.8658,-3.8465,-3.8363,-3.8277,0.0,0.0,0.0,0.0,0.0,-3.5762,-3.5366,-3.5174,-3.507,-3.4793,-3.4508,-3.4176,-3.4123,-3.3986,-3.3807,-3.3807,-3.3807,-3.3807,-3.3807,-3.3807,-3.3734,-3.3302,-3.2827,-3.2248,-3.1806,-3.1449,-3.119,-3.119,-3.119,-3.119,-3.119,-3.119,-3.119,-3.119,-3.1095,-3.067,-2.965,-2.8876,-2.806,-2.6851,-2.5758,-2.4986,-2.4627,-2.4178,-2.3789,-2.3625,-2.3201,-2.2844,-2.2694,-2.1846,-2.1175,-2.1028,-2.0894,-2.0795,-2.0795,-2.0156,-1.9798,-1.9798,-1.9798,-1.9798,-1.9798,-1.9798,-1.9798,-1.9798,-1.9798,-1.9798,-1.9798,-1.9798,-1.9695,-2.5303,-2.5591,-2.5909,-2.5909,-2.5909,-2.5909,-2.5909,0.0,0.0,0.0,0.0,0.0,0.0,0.0,0.0,0.0,0.0,0.0,0.0,0.0,0.0,0.0,0.0,0.0,0.0,0.0,0.0,0.0,0.0,0.0,0.0,0.0,0.0,0.0,-3.8008,-3.812,-3.8397,-3.8361,-3.8291,-3.8181,-3.7762,-3.7541,-3.7456,0.0,0.0,0.0,0.0,0.0,-3.5493,-3.5335,-3.5289,-3.5273,-3.4981,-3.4695,-3.4401,-3.4265,-3.4018,-3.3807,-3.3807,-3.3807,-3.3807,-3.3807,-3.3807,-3.3734,-3.3302,-3.2872,-3.2417,-3.1915,-3.1507,-3.119,-3.119,-3.119,-3.119,-3.119,-3.0937,-3.07,-3.07,-3.0202,-2.9582,-2.8834,-2.8023,-2.7158,-2.6109,-2.5196,-2.4477,-2.4208,-2.3834,-2.3595,-2.3595,-2.3054,-2.2603,-2.2253,-2.1369,-2.0696,-2.0346,-2.0346,-2.0346,-2.0346,-2.0003,-1.9798,-1.9798,-1.9798,-1.9798,-1.9798,-1.9798,-1.9798,-1.9798,-1.9798,-1.9798,-1.9798,-1.9798,-1.9631,-2.5457,-2.614,-2.6736,-2.6467,-2.6505,-2.6563,-2.6428,0.0,0.0,0.0,0.0,0.0,0.0,0.0,0.0,0.0,0.0,0.0,0.0,0.0,0.0,0.0,0.0,0.0,0.0,0.0,0.0,0.0,0.0,0.0,0.0,0.0,0.0,0.0,-3.7109,-3.7399,-3.8037,-3.8037,-3.8005,-3.7921,-3.7122,-3.6726,-3.6665,-3.5881,0.0,0.0,0.0,0.0,-3.5493,-3.5493,-3.5493,-3.5479,-3.5239,-3.4999,-3.4715,-3.4295,-3.4011,-3.3868,-3.3815,-3.3715,-3.3623,-3.3623,-3.3532,-3.3368,-3.3027,-3.2594,-3.213,-3.1673,-3.1394,-3.114,-3.092,-3.0937,-3.1004,-3.0886,-3.0395,-2.9939,-2.9939,-2.9059,-2.8196,-2.8003,-2.7109,-2.6137,-2.5369,-2.4787,-2.4268,-2.3684,-2.3595,-2.3595,-2.3595,-2.2965,-2.2346,-2.1758,-2.1064,-2.0396,-1.985,-1.9798,-1.9798,-1.9798,-1.9798,-1.9798,-1.9798,-1.9798,-1.9798,-1.9798,-1.9798,-1.9747,-1.9631,-1.9631,-1.9579,-1.9475,-1.9475,-1.915,-2.6197,-2.7044,-2.7351,-2.587,-2.6063,-2.6409,0.0,0.0,0.0,0.0,0.0,0.0,0.0,0.0,0.0,0.0,0.0,0.0,0.0,0.0,0.0,0.0,0.0,0.0,0.0,0.0,0.0,0.0,0.0,0.0,0.0,0.0,0.0,0.0,0.0,-3.625,-3.6366,-3.6366,-3.6339,-3.6278,-3.6114,-3.5963,-3.5785,-3.5648,-3.5538,0.0,0.0,-3.5493,-3.5493,-3.5493,-3.5493,-3.5493,-3.5446,-3.5273,-3.494,-3.4144,-3.3994,-3.4099,-3.3876,-3.3348,-3.2797,-3.2797,-3.232,-3.177,-3.1701,-3.1393,-3.0951,-3.0552,-3.0802,-3.0903,-2.9651,-2.9786,-3.0108,-2.9482,-2.9228,-2.9161,-2.9161,-2.9022,-2.8535,-2.7474,-2.6749,-2.5932,-2.4751,-2.4116,-2.3729,-2.361,-2.3595,-2.3595,-2.3595,-2.256,-2.1805,-2.1697,-2.0657,-1.9901,-1.9798,-1.9798,-1.9798,-1.9798,-1.9798,-1.9798,-1.9798,-1.9798,-1.9798,-1.9798,-1.9798,-1.9475,-1.8874,-1.8874,-1.8555,-1.795,-1.795,-1.7907,-2.5793,-2.6524,-2.7005,-2.6197,-2.6986,-2.7852,0.0,0.0,0.0,0.0,0.0,0.0,0.0,0.0,0.0,0.0,0.0,0.0,0.0,0.0,0.0,0.0,0.0,0.0,0.0,0.0,0.0,0.0,0.0,0.0,0.0,0.0,0.0,0.0,0.0,-3.5996,-3.5996,-3.5996,-3.5976,-3.595,-3.5913,-3.5856,-3.5768,-3.5698,-3.5621,-3.5519,0.0,-3.4815,-3.4757,-3.4295,-3.4103,-3.4103,-3.4103,-3.3921,-3.3623,-3.3085,-3.2899,-3.2887,-3.2765,-3.2398,-3.1953,-3.1953,-3.1696,-3.1384,-3.1384,-3.0957,-3.0339,-2.9763,-2.9913,-3.0082,-2.9217,-2.9245,-2.9414,-2.9059,-2.8653,-2.8349,-2.8349,-2.8044,-2.7533,-2.6647,-2.6065,-2.5449,-2.4558,-2.3964,-2.3595,-2.3595,-2.3595,-2.3465,-2.3143,-2.2285,-2.1568,-2.1245,-2.0383,-1.9798,-1.9798,-1.9798,-1.9798,-1.9798,-1.9798,-1.9798,-1.9798,-1.9798,-1.9798,-1.9798,-1.9798,-1.9423,-1.8715,-1.8715,-1.834,-1.7578,-1.7578,-1.7578,-2.5543,-2.6101,-2.6659,-2.6851,0.0,0.0,0.0,0.0,0.0,0.0,0.0,0.0,0.0,0.0,0.0,0.0,0.0,0.0,0.0,0.0,0.0,0.0,0.0,0.0,0.0,0.0,0.0,0.0,0.0,0.0,0.0,0.0,0.0,0.0,0.0,0.0,-3.5996,-3.5996,-3.5996,-3.5996,-3.5947,-3.5815,-3.5588,-3.5485,-3.5293,-3.501,-3.4304,-3.3981,-3.3865,-3.3173,-3.2891,-3.2891,-3.2891,-3.2664,-3.2298,-3.2164,-3.1898,-3.16,-3.1693,-3.1449,-3.1109,-3.1109,-3.098,-3.0834,-3.0834,-3.0396,-2.9779,-2.9126,-2.9082,-2.9117,-2.8594,-2.8586,-2.867,-2.8484,-2.7994,-2.7554,-2.7554,-2.7097,-2.6556,-2.6085,-2.5577,-2.5012,-2.4511,-2.3964,-2.3595,-2.3595,-2.3595,-2.3421,-2.2965,-2.2193,-2.152,-2.1077,-2.0295,-1.9748,-1.9623,-1.9623,-1.9623,-1.9623,-1.9736,-1.9798,-1.9798,-1.9798,-1.9798,-1.9798,-1.9798,-1.9371,-1.8447,-1.8447,-1.795,-1.7079,-1.7079,-1.7079,-2.6304,-2.6544,-2.6794,-2.7601,0.0,0.0,0.0,0.0,0.0,0.0,0.0,0.0,0.0,0.0,0.0,0.0,0.0,0.0,0.0,0.0,0.0,0.0,0.0,0.0,0.0,0.0,0.0,0.0,0.0,0.0,0.0,0.0,0.0,0.0,0.0,0.0,-3.5996,-3.5996,-3.5996,-3.5996,-3.5996,-3.5541,-3.469,-3.4686,-3.4204,-3.3354,-3.316,-3.3083,-3.3073,-3.2952,-3.2891,-3.2891,-3.2891,-3.2417,-3.1789,-3.2083,-3.1676,-3.0997,-3.133,-3.0931,-3.0283,-3.0283,-2.9787,-2.9159,-2.9159,-2.9135,-2.9004,-2.858,-2.845,-2.8245,-2.7158,-2.7385,-2.7723,-2.7029,-2.681,-2.6776,-2.6776,-2.6725,-2.6556,-2.6085,-2.5577,-2.5012,-2.4511,-2.3964,-2.3595,-2.3595,-2.3595,-2.3595,-2.3551,-2.2455,-2.1697,-2.1663,-2.0521,-1.961,-1.912,-1.9083,-1.9083,-1.9083,-1.9535,-1.9798,-1.9798,-1.9798,-1.9798,-1.9798,-1.9798,-1.9097,-1.7688,-1.7688,-1.6968,-1.5575,-1.5575,-1.5575,-2.5766,-2.6603,-2.7486,-2.7813,0.0,0.0,0.0,0.0,0.0,0.0,0.0,0.0,0.0,0.0,0.0,0.0,0.0,0.0,0.0,0.0,0.0,0.0,0.0,0.0,0.0,0.0,0.0,0.0,0.0,0.0,0.0,0.0,0.0,0.0,0.0,0.0,0.0,-3.5469,-3.5195,-3.5195,-3.5195,-3.5019,-3.4643,-3.4096,-3.3632,-3.3229,-3.2597,-3.2283,-3.2203,-3.1603,-3.1352,-3.1352,-3.1352,-3.116,-3.0905,-3.1024,-3.078,-3.0373,-3.0488,-3.0166,-2.9709,-2.9709,-2.9374,-2.8994,-2.8994,-2.8839,-2.8608,-2.8446,-2.8084,-2.7631,-2.7178,-2.7274,-2.7363,-2.6826,-2.6691,-2.6691,-2.6691,-2.6691,-2.6556,-2.6085,-2.5577,-2.5012,-2.4511,-2.3964,-2.3595,-2.3595,-2.3595,-2.3465,-2.3098,-2.2285,-2.1431,-2.0698,-1.9568,-1.8731,-1.853,-1.8518,-1.8518,-1.8518,-1.9321,-1.9798,-1.9798,-1.9371,-1.8992,-1.8727,-1.8291,-1.7546,-1.6526,-1.6526,-1.6133,-1.541,-1.541,-1.541,-2.5413,-2.6215,-2.7217,0.0,0.0,0.0,0.0,0.0,0.0,0.0,0.0,0.0,0.0,0.0,0.0,0.0,0.0,0.0,0.0,0.0,0.0,0.0,0.0,0.0,0.0,0.0,0.0,0.0,0.0,0.0,0.0,0.0,0.0,0.0,0.0,0.0,-3.5543,-3.4707,-3.4297,-3.4297,-3.4023,-3.3906,-3.3887,-3.3281,-3.2849,-3.25,-3.1815,-3.1493,-3.1402,-3.0704,-3.0425,-3.0398,-3.0398,-3.0398,-3.0398,-3.0311,-3.015,-2.9999,-2.9924,-2.9678,-2.9412,-2.9412,-2.9203,-2.8994,-2.8994,-2.8815,-2.859,-2.859,-2.8237,-2.7805,-2.7689,-2.7378,-2.7019,-2.6758,-2.6691,-2.6691,-2.6691,-2.6691,-2.6624,-2.6297,-2.5689,-2.5089,-2.4712,-2.4074,-2.3595,-2.3595,-2.3595,-2.3465,-2.3024,-2.2239,-2.1193,-1.9812,-1.8639,-1.794,-1.794,-1.794,-1.794,-1.794,-1.8794,-1.9196,-1.9019,-1.8549,-1.8021,-1.7564,-1.7054,-1.642,-1.5658,-1.5658,-1.5457,-1.501,-1.5146,-1.5215,-2.5427,-2.5365,0.0,0.0,0.0,0.0,0.0,0.0,0.0,0.0,0.0,0.0,0.0,0.0,0.0,0.0,0.0,0.0,0.0,0.0,0.0,0.0,0.0,0.0,0.0,0.0,0.0,0.0,0.0,0.0,0.0,0.0,0.0,0.0,0.0,0.0,-3.4573,-3.3784,-3.3398,-3.3379,-3.2578,-3.2187,-3.2207,-3.2187,-3.1719,-3.0898,-3.0767,-3.0696,-3.069,-3.0554,-3.0462,-3.041,-3.041,-3.041,-3.0367,-3.0089,-2.9999,-2.9984,-2.9782,-2.957,-2.9412,-2.9412,-2.9225,-2.9017,-2.9017,-2.9017,-2.8994,-2.8994,-2.8994,-2.8905,-2.8496,-2.7554,-2.6691,-2.6691,-2.6691,-2.6691,-2.6691,-2.6691,-2.6691,-2.6691,-2.5892,-2.5221,-2.5221,-2.4307,-2.3595,-2.3595,-2.3595,-2.3595,-2.3595,-2.2441,-2.0988,-1.9157,-1.8028,-1.7375,-1.7375,-1.7375,-1.7375,-1.7375,-1.789,-1.7941,-1.7327,-1.7278,-1.6985,-1.64,-1.64,-1.5974,-1.5174,-1.5174,-1.4778,-1.4087,-1.458,-1.4785,-2.5654,-2.6726,0.0,0.0,0.0,0.0,0.0,0.0,0.0,0.0,0.0,0.0,0.0,0.0,0.0,0.0,0.0,0.0,0.0,0.0,0.0,0.0,0.0,0.0,0.0,0.0,0.0,0.0,0.0,0.0,0.0,0.0,0.0,0.0,0.0,0.0,-3.3609,-3.2766,-3.2346,-3.2346,-3.1538,-3.1517,-3.2187,-3.1562,-3.1133,-3.0898,-3.0767,-3.0696,-3.069,-3.0611,-3.0529,-3.0463,-3.0463,-3.0441,-3.0398,-3.0311,-3.0267,-3.0267,-3.0215,-3.0037,-2.9813,-2.9813,-2.957,-2.9289,-2.9289,-2.9156,-2.8994,-2.8994,-2.8815,-2.8489,-2.8129,-2.7589,-2.7115,-2.7115,-2.7115,-2.7051,-2.6758,-2.6691,-2.6691,-2.6691,-2.5892,-2.5221,-2.5221,-2.4307,-2.3465,-2.3009,-2.2965,-2.2521,-2.125,-2.0351,-1.9377,-1.8008,-1.7212,-1.6773,-1.6773,-1.6773,-1.6773,-1.6773,-1.6923,-1.7078,-1.7291,-1.6776,-1.607,-1.517,-1.4631,-1.4022,-1.329,-1.329,-1.3072,-1.2712,-1.3107,-1.3226,-2.6519,0.0,0.0,0.0,0.0,0.0,0.0,0.0,0.0,0.0,0.0,0.0,0.0,0.0,0.0,0.0,0.0,0.0,0.0,0.0,0.0,0.0,0.0,0.0,0.0,0.0,0.0,0.0,0.0,0.0,0.0,0.0,0.0,0.0,0.0,0.0,-3.2647,-3.18,-3.139,-3.139,-3.0882,-3.0977,-3.1546,-3.1092,-3.0898,-3.0898,-3.0816,-3.0745,-3.0693,-3.0661,-3.0606,-3.0545,-3.0545,-3.0498,-3.0441,-3.0441,-3.0417,-3.0398,-3.0398,-3.0222,-2.9999,-2.9999,-2.978,-2.9494,-2.9414,-2.9289,-2.9134,-2.904,-2.8839,-2.859,-2.8386,-2.8174,-2.7805,-2.7192,-2.7051,-2.6918,-2.6385,-2.6488,-2.6607,-2.6319,-2.5711,-2.5221,-2.5221,-2.4307,-2.3377,-2.2785,-2.2298,-2.1485,-2.0167,-1.929,-1.8446,-1.7503,-1.6861,-1.6423,-1.6139,-1.6139,-1.6051,-1.5788,-1.5788,-1.5794,-1.5898,-1.5691,-1.5061,-1.3975,-1.3492,-1.2941,-1.2202,-1.2202,-1.2008,-1.1606,-1.1972,-1.2222,0.0,0.0,0.0,0.0,0.0,0.0,0.0,0.0,0.0,0.0,0.0,0.0,0.0,0.0,0.0,0.0,0.0,0.0,0.0,0.0,0.0,0.0,0.0,0.0,0.0,0.0,0.0,0.0,0.0,0.0,0.0,0.0,0.0,0.0,0.0,0.0,-3.1661,-3.0948,-3.0581,0.0,-3.0587,-3.0594,-3.06,-3.0786,-3.0898,-3.0898,-3.0898,-3.0836,-3.0718,-3.0718,-3.0673,-3.0617,-3.0617,-3.0568,-3.0516,-3.0507,-3.0472,-3.0425,-3.039,-3.0235,-3.0037,-3.0042,-2.9893,-2.9696,-2.9513,-2.9414,-2.9351,-2.9112,-2.9017,-2.8994,-2.8952,-2.8897,-2.8474,-2.6994,-2.669,-2.6486,-2.5659,-2.6031,-2.6302,-2.5561,-2.5196,-2.5006,-2.5032,-2.4133,-2.3201,-2.2563,-2.1433,-2.0438,-1.984,-1.8843,-1.7996,-1.739,-1.6835,-1.6238,-1.5632,-1.5588,-1.532,-1.4744,-1.4698,-1.4422,-1.3815,-1.4329,-1.4061,-1.2822,-1.2774,-1.2403,-1.1616,-1.1616,-1.1266,-1.0626,-1.1088,-1.1423,0.0,0.0,0.0,0.0,0.0,0.0,0.0,0.0,0.0,0.0,0.0,0.0,0.0,0.0,0.0,0.0,0.0,0.0,0.0,0.0,0.0,0.0,0.0,0.0,0.0,0.0,0.0,0.0,0.0,0.0,0.0,0.0,0.0,0.0,0.0,-3.0513,-3.0706,-3.0527,-3.0441,0.0,-3.049,-3.0513,-3.0521,-3.0685,-3.0793,-3.0898,-3.0898,-3.0879,-3.0858,-3.0858,-3.079,-3.068,-3.068,-3.0648,-3.0568,-3.0513,-3.0521,-3.0545,-3.0449,-3.0409,-3.0384,-3.034,-3.0136,-2.9924,-2.9893,-2.9643,-2.9392,-2.933,-2.9178,-2.8929,-2.859,-2.8069,-2.7381,-2.6521,-2.6539,-2.6417,-2.5019,-2.4847,-2.4835,-2.4363,-2.3893,-2.3617,-2.3763,-2.2855,-2.1769,-2.0724,-1.9541,-1.8567,-1.8053,-1.774,-1.7365,-1.6748,-1.6597,-1.6238,-1.5632,-1.5588,-1.532,-1.4744,-1.4698,-1.4422,-1.3815,-1.3909,-1.3379,-1.208,-1.203,-1.1425,-1.021,-1.021,-0.9865,-0.9218,-0.9526,-0.9701,0.0,0.0,0.0,0.0,0.0,0.0,0.0,0.0,0.0,0.0,0.0,0.0,0.0,0.0,0.0,0.0,0.0,0.0,0.0,0.0,0.0,0.0,0.0,0.0,0.0,0.0,0.0,0.0,0.0,0.0,0.0,0.0,0.0,0.0,-3.0641,-3.0398,-3.0398,-3.0398,-3.0198,-2.9775,-2.9813,-2.9631,-2.9334,-3.0263,-3.0528,-3.0248,-3.0702,-3.0664,-3.0312,-3.0723,-3.0604,-3.0169,-3.0169,-2.9877,-2.9498,-2.9872,-2.9997,-3.0017,-3.0346,-3.0463,-3.05,-3.0417,-3.0311,-3.0182,-3.0028,-2.9861,-2.9661,-2.957,-2.9156,-2.8641,-2.8327,-2.7651,-2.68,-2.5814,-2.5781,-2.5575,-2.4254,-2.4269,-2.4343,-2.3773,-2.349,-2.3374,-2.3275,-2.1891,-2.0664,-2.0039,-1.8721,-1.7702,-1.7413,-1.6901,-1.6426,-1.6076,-1.5832,-1.5377,-1.4767,-1.4424,-1.3996,-1.3348,-1.3004,-1.2667,-1.2395,-1.2006,-1.1818,-1.1814,-1.1466,-1.0813,-0.9814,-0.9814,-0.9302,-0.8268,-0.8406,-0.838,0.0,0.0,0.0,0.0,0.0,0.0,0.0,0.0,0.0,0.0,0.0,0.0,0.0,0.0,0.0,0.0,0.0,0.0,0.0,0.0,0.0,0.0,0.0,0.0,0.0,0.0,0.0,0.0,0.0,0.0,0.0,0.0,-3.0398,-3.0398,-3.0398,-3.0398,-3.0398,-3.0256,-2.9813,-2.9102,-2.8948,-2.8569,-2.8031,-2.9557,-2.9881,-2.9311,-3.0093,-3.0039,-2.9434,-3.0156,-3.0039,-2.9375,-2.9375,-2.8903,-2.8298,-2.9015,-2.9207,-2.9216,-2.985,-3.0081,-3.0081,-2.9985,-2.9967,-2.9951,-2.9868,-2.9818,-2.9798,-2.9758,-2.9055,-2.8311,-2.8129,-2.7363,-2.6355,-2.5179,-2.4832,-2.4517,-2.3511,-2.3723,-2.3934,-2.322,-2.319,-2.3155,-2.2718,-2.102,-1.9749,-1.962,-1.8244,-1.7237,-1.7237,-1.6288,-1.5588,-1.5588,-1.505,-1.4468,-1.3862,-1.3062,-1.2318,-1.1648,-1.0889,-1.0434,-1.0434,-0.9864,-1.001,-1.1032,-1.0535,-0.9931,-0.9235,-0.9235,-0.8718,-0.7628,-0.7628,-0.7405,0.0,0.0,0.0,0.0,0.0,0.0,0.0,0.0,0.0,0.0,0.0,0.0,0.0,0.0,0.0,0.0,0.0,0.0,0.0,0.0,0.0,0.0,0.0,0.0,0.0,0.0,0.0,0.0,0.0,0.0,0.0,-3.0746,-3.0398,-3.0398,-3.0398,-3.0398,-3.0398,-2.964,-2.9217,-2.9083,-2.839,-2.8016,-2.7932,-2.8214,-2.8368,-2.8376,-2.8518,-2.853,-2.8476,-2.8594,-2.8574,-2.8476,-2.8476,-2.8398,-2.83,-2.834,-2.8403,-2.8429,-2.8353,-2.8376,-2.8405,-2.8261,-2.8236,-2.8371,-2.9021,-2.9104,-2.9103,-2.976,-2.9089,-2.8129,-2.8109,-2.6857,-2.5472,-2.5009,-2.4365,-2.3695,-2.2963,-2.2685,-2.2433,-2.196,-2.1729,-2.1445,-2.0865,-1.9901,-1.9044,-1.8489,-1.7411,-1.6635,-1.6635,-1.6001,-1.5588,-1.5588,-1.505,-1.4468,-1.3862,-1.2609,-1.1599,-1.0989,-0.9709,-0.8989,-0.8989,-0.8883,-0.8633,-0.8174,-0.8075,-0.767,-0.7009,-0.7009,-0.7192,-0.7453,-0.7453,-0.7187,0.0,0.0,0.0,0.0,0.0,0.0,0.0,0.0,0.0,0.0,0.0,0.0,0.0,0.0,0.0,0.0,0.0,0.0,0.0,0.0,0.0,0.0,0.0,0.0,0.0,0.0,0.0,0.0,0.0,0.0,-3.059,-3.0314,-3.0254,-3.0398,-3.0398,-3.0398,-3.0398,-2.9544,-2.8621,-2.7698,-2.7332,-2.6928,-2.6467,-2.6978,-2.7265,-2.739,-2.792,-2.7888,-2.7493,-2.8036,-2.7962,-2.7513,-2.7558,-2.7245,-2.6849,-2.7304,-2.7498,-2.7576,-2.7923,-2.8108,-2.8149,-2.8034,-2.7987,-2.8106,-2.8917,-2.8747,-2.8574,-2.9858,-2.914,-2.807,-2.8395,-2.7107,-2.5668,-2.541,-2.4366,-2.3346,-2.3045,-2.2738,-2.2347,-2.1731,-2.0921,-2.0258,-2.0004,-1.8942,-1.7891,-1.7299,-1.6492,-1.5864,-1.5511,-1.4653,-1.4032,-1.4032,-1.3127,-1.2425,-1.2141,-1.1351,-1.0742,-1.0458,-0.86,-0.7522,-0.7522,-0.7549,-0.7003,-0.5837,-0.6617,-0.7025,-0.7052,-0.6771,-0.6032,-0.4856,-0.429,-0.3627,0.0,0.0,0.0,0.0,0.0,0.0,0.0,0.0,0.0,0.0,0.0,0.0,0.0,0.0,0.0,0.0,0.0,0.0,0.0,0.0,0.0,0.0,0.0,0.0,0.0,0.0,0.0,0.0,0.0,0.0,-2.9883,-2.9893,-3.0018,-3.0215,-3.0017,-2.9922,-2.9922,-2.8898,-2.7654,-2.6184,-2.6184,-2.5857,-2.5233,-2.5864,-2.6186,-2.6311,-2.7084,-2.7045,-2.6515,-2.7238,-2.7134,-2.6549,-2.6591,-2.6195,-2.5645,-2.6292,-2.6546,-2.6632,-2.7226,-2.7476,-2.7515,-2.7469,-2.7401,-2.752,-2.8334,-2.8285,-2.8251,-2.9696,-2.9173,-2.8233,-2.8434,-2.7253,-2.5906,-2.5558,-2.4466,-2.3424,-2.3063,-2.2764,-2.2368,-2.1562,-2.0505,-1.9662,-1.9447,-1.8207,-1.7133,-1.6689,-1.6046,-1.5454,-1.4971,-1.3831,-1.3054,-1.3133,-1.2054,-1.1209,-1.0845,-1.0533,-0.9676,-0.8088,-0.5806,-0.4508,-0.4385,-0.447,-0.3975,-0.2749,-0.3455,-0.4277,-0.5175,-0.4787,-0.3558,-0.1415,-0.0436,0.0818,0.0,0.0,0.0,0.0,0.0,0.0,0.0,0.0,0.0,0.0,0.0,0.0,0.0,0.0,0.0,0.0,0.0,0.0,0.0,0.0,0.0,0.0,0.0,0.0,0.0,0.0,0.0,0.0,0.0,0.0,-2.9434,-2.9626,-2.9731,-2.9731,-2.899,-2.8591,-2.8591,-2.7162,-2.5996,-2.508,-2.508,-2.5061,-2.501,-2.4934,-2.4966,-2.5103,-2.5412,-2.5544,-2.5571,-2.561,-2.5615,-2.5576,-2.5576,-2.5556,-2.5517,-2.5556,-2.5576,-2.557,-2.562,-2.5644,-2.5643,-2.5644,-2.5625,-2.5795,-2.666,-2.7476,-2.8255,-2.9046,-2.911,-2.8756,-2.7899,-2.6835,-2.5804,-2.5035,-2.4626,-2.4061,-2.2634,-2.2321,-2.2027,-2.1036,-2.0475,-1.9882,-1.9001,-1.7972,-1.7312,-1.7271,-1.6318,-1.5588,-1.5543,-1.4492,-1.3847,-1.4014,-1.3263,-1.2277,-1.0902,-1.0761,-0.8195,-0.2243,-0.0054,0.1201,0.1734,0.1246,0.1246,0.1844,0.3165,0.2898,0.0931,0.0765,0.13,0.2515,0.3517,0.5539,0.0,0.0,0.0,0.0,0.0,0.0,0.0,0.0,0.0,0.0,0.0,0.0,0.0,0.0,0.0,0.0,0.0,0.0,0.0,0.0,0.0,0.0,0.0,0.0,0.0,0.0,0.0,0.0,0.0,0.0,-2.9392,-2.8951,-2.8763,-2.8919,-2.8142,-2.7463,-2.6899,-2.637,-2.5698,-2.4864,-2.4864,-2.4864,-2.4883,-2.4814,-2.4832,-2.4883,-2.4974,-2.5075,-2.5187,-2.5219,-2.5232,-2.526,-2.5279,-2.5357,-2.5434,-2.5441,-2.5434,-2.5441,-2.544,-2.5461,-2.5492,-2.5496,-2.5857,-2.6445,-2.735,-2.7825,-2.8326,-2.9706,-2.9686,-2.9171,-2.8794,-2.7791,-2.6432,-2.4542,-2.4008,-2.3671,-2.2737,-2.2512,-2.2327,-2.1761,-2.002,-1.853,-1.8218,-1.6741,-1.5475,-1.5106,-1.4808,-1.4445,-1.3924,-1.3491,-1.325,-1.3313,-0.7552,-0.3508,-0.3006,-0.2952,-0.1994,0.0261,0.4816,0.818,0.9885,0.9804,0.9791,0.9986,1.1235,0.9357,0.418,0.6269,0.7368,0.753,0.8803,0.9539,0.0,0.0,0.0,0.0,0.0,0.0,0.0,0.0,0.0,0.0,0.0,0.0,0.0,0.0,0.0,0.0,0.0,0.0,0.0,0.0,0.0,0.0,0.0,0.0,0.0,0.0,0.0,0.0,0.0,0.0,-2.8878,-2.8324,-2.7828,-2.7471,-2.6928,-2.6253,-2.5412,-2.5458,-2.5227,-2.47,-2.47,-2.47,-2.47,-2.4623,-2.4639,-2.47,-2.47,-2.4799,-2.4937,-2.4977,-2.5004,-2.4996,-2.5052,-2.5149,-2.5272,-2.5262,-2.5262,-2.5262,-2.5297,-2.5321,-2.5363,-2.5387,-2.6004,-2.6848,-2.7466,-2.8022,-2.8672,-2.9832,-2.9991,-2.973,-2.943,-2.8268,-2.6691,-2.4673,-2.4161,-2.4017,-2.3541,-2.2953,-2.2238,-2.1354,-1.9823,-1.8375,-1.7529,-1.5876,-1.4544,-1.4174,-1.4223,-1.284,-0.8735,-0.7955,-0.7789,-0.7791,-0.1939,0.3273,0.658,0.6847,0.6869,0.6894,1.0822,1.3597,1.4671,1.4789,1.4879,1.4865,1.5782,1.4048,0.9667,1.1132,1.1984,1.2273,1.3026,1.317,0.0,0.0,0.0,0.0,0.0,0.0,0.0,0.0,0.0,0.0,0.0,0.0,0.0,0.0,0.0,0.0,0.0,0.0,0.0,0.0,0.0,0.0,0.0,0.0,0.0,0.0,0.0,0.0,0.0,-2.865,-2.7842,-2.775,-2.6998,-2.5421,-2.5366,-2.4999,-2.4208,-2.4393,-2.4495,-2.4478,-2.4495,-2.4495,-2.4478,-2.4284,-2.4303,-2.4478,-2.4478,-2.4575,-2.4741,-2.479,-2.479,-2.479,-2.479,-2.4864,-2.4979,-2.4979,-2.4979,-2.5003,-2.507,-2.5091,-2.5091,-2.5166,-2.5913,-2.6804,-2.6829,-2.7976,-2.9288,-2.9329,-2.9922,-3.037,-2.9511,-2.8009,-2.6437,-2.5376,-2.5104,-2.5026,-2.4722,-2.3309,-2.1528,-1.955,-1.9671,-1.9174,-1.636,-1.4864,-1.407,-1.407,-1.4104,-1.0424,-0.014,0.2209,0.29,0.286,0.3291,0.744,1.6861,1.7656,1.7671,1.7799,1.784,1.718,1.5714,1.5984,1.6148,1.6197,1.6505,1.7022,1.7664,1.5144,1.485,1.6638,1.5944,1.6401,-2.2773,0.0,0.0,0.0,0.0,0.0,0.0,0.0,0.0,0.0,0.0,0.0,0.0,0.0,0.0,0.0,0.0,0.0,0.0,0.0,0.0,0.0,0.0,0.0,0.0,0.0,0.0,0.0,-2.8994,-2.865,-2.7842,-2.6686,-2.5585,-2.4557,-2.452,-2.4428,-2.419,-2.4266,-2.4154,-2.3903,-2.4172,-2.4172,-2.3921,-2.3858,-2.3878,-2.3921,-2.366,-2.3581,-2.3689,-2.4317,-2.4575,-2.4575,-2.4575,-2.4682,-2.4855,-2.4855,-2.4855,-2.4869,-2.4872,-2.4879,-2.4879,-2.4892,-2.572,-2.6821,-2.7305,-2.8318,-2.9392,-2.9889,-2.9885,-2.9294,-2.7433,-2.5642,-2.4167,-2.3486,-2.3056,-2.208,-1.9408,-1.8282,-1.7015,-1.4282,-1.2813,-0.9777,-0.2808,-0.0383,0.0568,0.0568,-0.0311,0.0103,0.3062,1.1423,1.6729,1.5886,1.5665,1.6406,1.8495,1.8384,1.8205,1.8233,1.8627,1.9063,1.9469,1.9556,2.002,2.0839,2.0929,2.1226,2.1764,1.8343,1.7205,1.8197,1.8601,1.9531,0.0,0.0,0.0,0.0,0.0,0.0,0.0,0.0,0.0,0.0,0.0,0.0,0.0,0.0,0.0,0.0,0.0,0.0,0.0,0.0,0.0,0.0,0.0,0.0,0.0,0.0,0.0,0.0,-2.8503,-2.7944,-2.6662,-2.5238,-2.433,-2.4014,-2.3996,-2.3996,-2.3996,-2.3996,-2.3816,-2.3482,-2.3692,-2.3671,-2.35,-2.35,-2.35,-2.3477,-2.3282,-2.3189,-2.3236,-2.3764,-2.3946,-2.3966,-2.4118,-2.421,-2.4259,-2.4416,-2.4381,-2.4295,-2.4416,-2.4468,-2.4468,-2.4468,-2.548,-2.6748,-2.7006,-2.7823,-2.8762,-2.9178,-2.8707,-2.7582,-2.5295,-2.3165,-2.1316,-2.0172,-1.8993,-1.7258,-1.3956,-1.3123,-1.2237,-0.96,-0.5431,-0.0562,0.5021,1.0275,1.3744,1.3744,1.3057,1.2401,1.199,1.8232,2.2394,2.1774,2.1645,2.1397,2.0923,2.0813,2.0724,2.074,2.1073,2.1539,2.2166,2.2337,2.2711,2.3361,2.3502,2.3773,2.4124,2.1421,2.0373,2.0906,2.1361,2.2042,0.0,0.0,0.0,0.0,0.0,0.0,0.0,-2.6345,0.0,0.0,0.0,0.0,0.0,0.0,0.0,0.0,0.0,0.0,0.0,0.0,0.0,0.0,0.0,0.0,0.0,0.0,-2.8553,-2.7798,-2.7537,-2.6672,-2.4951,-2.3797,-2.3346,-2.3649,-2.3631,-2.3631,-2.3631,-2.3631,-2.3477,-2.3141,-2.3165,-2.3165,-2.3141,-2.3093,-2.3076,-2.3076,-2.3003,-2.2954,-2.2954,-2.2954,-2.3052,-2.3212,-2.3522,-2.3538,-2.3451,-2.3737,-2.3617,-2.335,-2.3658,-2.3777,-2.3777,-2.3777,-2.4904,-2.6162,-2.5807,-2.6483,-2.733,-2.7272,-2.625,-2.4697,-2.2615,-2.0112,-1.7643,-1.5604,-1.3626,-1.1337,-0.8244,-0.7514,-0.6708,-0.4194,0.2116,0.7707,0.9797,1.7857,2.3994,2.4011,2.4025,2.3751,2.293,2.2845,2.2846,2.2858,2.3253,2.3482,2.3418,2.3821,2.4078,2.409,2.4138,2.414,2.4088,2.4365,2.4481,2.4438,2.4735,2.4985,2.5208,2.4068,2.3686,2.3989,2.3933,2.3933,-2.5254,-2.4805,-2.4434,0.0,0.0,0.0,0.0,-2.3776,0.0,0.0,0.0,0.0,0.0,0.0,0.0,0.0,0.0,0.0,0.0,0.0,0.0,0.0,0.0,0.0,0.0,0.0,-2.7844,-2.7434,-2.5943,-2.489,-2.4515,-2.3661,-2.3212,-2.33,-2.33,-2.33,-2.33,-2.33,-2.3117,-2.2797,-2.3069,-2.3069,-2.2797,-2.2478,-2.23,-2.2272,-2.1694,-2.1442,-2.1442,-2.1442,-2.2118,-2.3212,-2.3259,-2.3088,-2.2783,-2.2856,-2.2606,-2.2201,-2.228,-2.2306,-2.2306,-2.2306,-2.2791,-2.3329,-2.2805,-2.3556,-2.4382,-2.3473,-2.0699,-1.7863,-1.714,-1.4585,-1.1627,-0.9536,-0.8423,-0.6495,-0.154,-0.0127,0.1789,0.7143,0.8677,1.1394,1.8638,2.2177,2.3995,2.3991,2.4247,2.4348,2.4155,2.4323,2.4291,2.3866,2.4055,2.4007,2.3511,2.4151,2.4572,2.4567,2.4961,2.5205,2.5186,2.5254,2.5286,2.5273,2.534,2.5361,2.5369,2.5003,2.495,2.5172,2.4786,2.4729,-2.582,-2.5371,-2.5059,-2.5059,0.0,0.0,0.0,0.0,0.0,0.0,0.0,0.0,0.0,0.0,0.0,0.0,0.0,0.0,0.0,0.0,0.0,0.0,0.0,0.0,0.0,0.0,-2.6649,-2.5913,-2.4403,-2.3551,-2.3551,-2.3041,-2.2807,-2.2947,-2.2947,-2.2947,-2.2947,-2.2947,-2.2678,-2.2158,-2.2334,-2.2207,-2.1857,-2.1635,-2.1562,-2.1532,-2.1165,-2.0991,-2.0991,-2.0991,-2.1287,-2.1747,-2.2177,-2.2129,-2.1819,-2.1984,-2.162,-2.1093,-2.1226,-2.1315,-2.1223,-2.065,-2.1023,-2.1485,-2.0162,-1.9553,-1.9137,-1.8164,-1.5723,-1.3043,-1.146,-0.8868,-0.5929,-0.3207,-0.1582,0.0585,0.5061,0.6504,0.8375,1.3331,1.4051,1.507,1.8884,2.076,2.1705,2.1698,2.2677,2.3517,2.3777,2.3921,2.4008,2.4044,2.4132,2.4149,2.4004,2.4366,2.4654,2.4791,2.5054,2.5187,2.5156,2.5163,2.5145,2.5145,2.5159,2.5146,2.5146,2.5083,2.5164,2.5386,2.5153,2.5114,0.0,0.0,0.0,0.0,0.0,-2.4902,0.0,0.0,0.0,0.0,0.0,0.0,0.0,0.0,0.0,0.0,0.0,0.0,0.0,0.0,0.0,0.0,0.0,0.0,0.0,0.0,-2.5082,-2.4131,-2.3049,-2.2453,-2.2608,-2.2426,-2.2415,-2.2625,-2.2608,-2.2608,-2.2608,-2.2538,-2.2186,-2.1582,-2.1521,-2.1306,-2.0991,-2.0894,-2.0862,-2.0862,-2.0682,-2.0616,-2.0583,-2.0353,-2.0085,-1.9882,-2.0879,-2.099,-2.0618,-2.0895,-2.0475,-1.9832,-1.9983,-2.0038,-1.9808,-1.8483,-1.8352,-1.8371,-1.6872,-1.4888,-1.3037,-1.2365,-1.0621,-0.831,-0.5605,-0.3014,-0.0356,0.2882,0.4968,0.713,1.0483,1.17,1.3037,1.6195,1.7357,1.7666,1.7136,1.8456,1.9562,1.9562,2.1021,2.2315,2.2834,2.3012,2.3274,2.3798,2.3955,2.4096,2.4382,2.4437,2.4576,2.4861,2.4879,2.4873,2.4807,2.4807,2.4787,2.4796,2.4809,2.4831,2.4879,2.4922,2.5023,2.5222,2.5222,2.5249,0.0,0.0,0.0,0.0,-2.5625,0.0,0.0,0.0,0.0,0.0,0.0,0.0,0.0,0.0,0.0,0.0,0.0,0.0,0.0,0.0,0.0,0.0,0.0,0.0,0.0,0.0,0.0,-2.2911,-2.1961,-2.1664,-2.2315,-2.2338,-2.2293,-2.2349,-2.2349,-2.2349,-2.2349,-2.1924,-2.1672,-2.1598,-2.1244,-2.1023,-2.1007,-2.0583,-2.0382,-2.0333,-1.9492,-1.914,-1.9051,-1.8048,-1.7905,-1.8493,-1.9813,-1.9813,-1.9038,-1.9097,-1.8792,-1.826,-1.7784,-1.7598,-1.729,-1.5375,-1.2886,-1.0771,-1.1544,-0.9682,-0.7286,-0.6884,-0.4537,-0.1579,0.0615,0.2821,0.5185,0.8095,0.8968,0.9926,1.2791,1.3893,1.4631,1.5596,1.6646,1.7733,1.8877,1.9662,2.0122,2.0122,2.0942,2.1736,2.2152,2.2728,2.3153,2.3283,2.3717,2.4024,2.4045,2.4222,2.4457,2.479,2.4804,2.4808,2.4794,2.4794,2.479,2.4799,2.4799,2.4799,2.4804,2.493,2.4962,2.4943,2.4943,2.5031,0.0,0.0,0.0,0.0,0.0,0.0,0.0,0.0,-2.2414,0.0,0.0,0.0,0.0,0.0,0.0,0.0,0.0,0.0,0.0,0.0,0.0,0.0,0.0,0.0,0.0,0.0,0.0,0.0,0.0,-2.1042,-2.2243,-2.231,-2.231,-2.231,-2.2032,-2.1899,-2.1899,-2.1477,-2.1118,-2.083,-2.0682,-2.0299,-1.9763,-1.9564,-1.931,-1.8985,-1.8232,-1.7918,-1.7839,-1.7003,-1.6641,-1.6612,-1.6805,-1.7277,-1.7784,-1.7048,-1.6459,-1.5862,-1.4783,-1.4417,-1.4061,-1.2032,-0.9709,-0.759,-0.7226,-0.5328,-0.3013,-0.1658,0.0367,0.2683,0.522,0.6597,0.7945,1.0789,1.1474,1.1981,1.3924,1.4789,1.5463,1.6333,1.6902,1.7666,1.8861,1.951,1.9913,2.0172,2.099,2.1698,2.2169,2.2466,2.2652,2.2686,2.289,2.3082,2.3234,2.3334,2.3512,2.3852,2.4044,2.4247,2.4444,2.4444,2.4444,2.4444,2.4444,2.4444,2.4444,2.4508,2.4526,2.4498,2.4934,2.5179,-2.6367,0.0,0.0,0.0,0.0,0.0,0.0,0.0,0.0,0.0,0.0,0.0,0.0,0.0,0.0,0.0,0.0,0.0,0.0,0.0,0.0,0.0,0.0,0.0,0.0,0.0,0.0,0.0,0.0,0.0,-2.1703,-2.1702,-2.1745,-2.1945,-2.1598,-2.143,-2.143,-2.0894,-2.0434,-2.0093,-1.9834,-1.9332,-1.8688,-1.8521,-1.8221,-1.7786,-1.6892,-1.6448,-1.6393,-1.5429,-1.4911,-1.4643,-1.3605,-1.4113,-1.5326,-1.4552,-1.4023,-1.3495,-1.1865,-1.0836,-0.9921,-0.818,-0.6328,-0.4462,-0.2967,-0.1304,0.0548,0.2748,0.4217,0.581,0.8501,0.9344,1.0113,1.2493,1.3062,1.3406,1.4687,1.5276,1.586,1.6741,1.7151,1.7531,1.8271,1.897,1.957,1.9982,2.0717,2.146,2.2032,2.2175,2.2276,2.231,2.2377,2.2473,2.2669,2.2695,2.2848,2.3165,2.3414,2.3671,2.3917,2.3917,2.3917,2.3917,2.4016,2.4074,2.4074,2.4209,2.4284,2.4284,2.4766,2.5037,0.0,0.0,0.0,0.0,0.0,0.0,0.0,0.0,-2.3144,0.0,0.0,0.0,0.0,0.0,0.0,0.0,0.0,0.0,0.0,0.0,0.0,0.0,0.0,0.0,0.0,0.0,0.0,0.0,0.0,0.0,-2.0442,-2.0254,-2.0365,-2.1007,-2.1039,-2.1023,-2.1023,-2.0112,-1.9656,-1.9621,-1.866,-1.8131,-1.8106,-1.7518,-1.7261,-1.7124,-1.5354,-1.4586,-1.4451,-1.2618,-1.2203,-1.2608,-1.0605,-1.0303,-1.0963,-1.154,-1.1707,-1.1398,-0.9349,-0.6848,-0.4409,-0.3627,-0.1968,0.0055,0.1539,0.253,0.3641,0.582,0.6935,0.7967,1.0163,1.1208,1.2052,1.3426,1.3768,1.4086,1.5309,1.5588,1.5764,1.6411,1.6951,1.7312,1.734,1.821,1.9066,1.9534,2.0008,2.0634,2.1521,2.1903,2.2147,2.2293,2.2537,2.2695,2.2695,2.2695,2.2848,2.3165,2.3212,2.3212,2.3212,2.3212,2.3212,2.3212,2.3544,2.3714,2.3714,2.4229,2.4495,2.4495,2.4303,2.4339,0.0,0.0,-2.8476,-2.5586,0.0,0.0,0.0,0.0,0.0,0.0,0.0,0.0,0.0,0.0,0.0,0.0,0.0,0.0,0.0,0.0,0.0,0.0,0.0,0.0,0.0,0.0,0.0,0.0,0.0,0.0,0.0,-2.0598,-2.0751,-2.0991,-2.04,-2.0078,-2.0078,-1.9096,-1.8401,-1.7995,-1.7666,-1.7096,-1.6371,-1.6188,-1.5656,-1.4846,-1.3793,-1.3077,-1.2522,-1.1014,-1.0521,-1.0497,-0.8423,-0.7739,-0.793,-0.8165,-0.821,-0.7829,-0.5222,-0.3042,-0.1261,0.0,0.0876,0.1817,0.3787,0.4873,0.5895,0.8038,0.9188,1.0195,1.226,1.2938,1.3453,1.4675,1.4994,1.5231,1.6008,1.6194,1.6238,1.6479,1.7229,1.7827,1.7827,1.8727,1.9464,1.9585,2.0008,2.0516,2.1118,2.129,2.1383,2.1415,2.1535,2.1681,2.1931,2.2254,2.2554,2.2848,2.3069,2.3189,2.3189,2.3414,2.3522,2.3522,2.3649,2.3816,2.4016,2.421,2.4303,2.4303,2.4228,2.4375,-2.8848,-2.918,0.0,-2.6716,-2.6129,0.0,-2.3277,0.0,0.0,0.0,0.0,0.0,0.0,0.0,0.0,0.0,0.0,0.0,0.0,0.0,0.0,0.0,0.0,0.0,0.0,0.0,-1.7025,-1.8246,-1.7183,0.0,0.0,0.0,-1.9754,-2.0249,-1.9498,-1.9059,-1.9059,-1.8011,-1.73,-1.6902,-1.6511,-1.5799,-1.4869,-1.4642,-1.3829,-1.259,-1.1733,-1.0939,-1.016,-0.8761,-0.8195,-0.7979,-0.5819,-0.4958,-0.4958,-0.4958,-0.4466,-0.3485,-0.1366,0.0165,0.1433,0.2909,0.3558,0.4095,0.607,0.7089,0.7967,0.9621,1.0612,1.1463,1.2735,1.3426,1.405,1.505,1.5454,1.5776,1.638,1.6522,1.6522,1.6522,1.7188,1.7827,1.7827,1.8688,1.95,1.9814,2.0093,2.0483,2.0926,2.0991,2.1055,2.1213,2.1213,2.1385,2.1794,2.2135,2.236,2.2537,2.2755,2.2883,2.2883,2.308,2.32,2.32,2.33,2.3522,2.3837,2.3958,2.4094,2.419,2.419,2.4358]},{"header":{"parameterUnit":"m.s-1","parameterCategory":1,"la1":30.6,"la2":29.2853,"lo1":-89.7004,"lo2":-87.6739,"dy":0.0162,"dx":0.0183,"nx":112,"ny":82,"refTime":"2026-03-16T00:00:00:Z","depth":0,"parameterNumber":3,"parameterNumberName":"V-component_of_WINDS"},"data":[0.0,0.0,0.0,0.0,0.0,0.0,0.0,0.0,0.0,0.0,0.0,0.0,0.0,0.0,0.0,0.0,0.0,0.0,0.0,0.0,0.0,0.0,0.0,0.0,0.0,0.0,0.0,0.0,0.0,0.0,0.0,0.0,0.0,0.0,0.0,0.0,0.0,0.0,0.0,0.0,0.0,0.0,0.0,0.0,0.0,0.0,0.0,0.0,0.0,0.0,0.0,0.0,0.0,0.0,0.0,0.0,0.0,0.0,0.0,0.0,0.0,0.0,0.0,0.0,0.0,0.0,0.0,0.0,0.0,0.0,0.0,0.0,0.0,0.0,0.0,0.0,0.0,0.0,0.0,0.0,0.0,0.0,0.0,0.0,0.0,0.0,0.0,0.0,0.0,0.0,0.0,-2.1437,-2.5657,-2.8572,-2.9025,-2.8398,-2.6389,-2.2673,0.0,0.0,0.0,0.0,0.0,0.0,0.0,0.0,0.0,0.0,0.0,0.0,0.0,0.0,0.0,0.0,0.0,0.0,0.0,0.0,0.0,0.0,0.0,0.0,0.0,0.0,0.0,0.0,0.0,0.0,0.0,0.0,0.0,0.0,0.0,0.0,0.0,0.0,0.0,0.0,0.0,0.0,0.0,0.0,0.0,0.0,0.0,0.0,0.0,0.0,0.0,0.0,0.0,0.0,0.0,0.0,0.0,0.0,0.0,0.0,0.0,0.0,0.0,0.0,0.0,0.0,0.0,0.0,0.0,0.0,0.0,0.0,0.0,0.0,0.0,0.0,0.0,0.0,0.0,0.0,0.0,0.0,0.0,0.0,0.0,0.0,0.0,0.0,0.0,0.0,0.0,0.0,0.0,0.0,0.0,0.0,0.0,0.0,0.0,0.0,0.0,0.0,0.0,0.0,-2.2081,-2.7054,-2.8733,-2.9586,-2.9666,-2.8273,-2.6151,-2.3201,0.0,0.0,0.0,0.0,0.0,0.0,0.0,0.0,0.0,0.0,0.0,0.0,0.0,0.0,0.0,0.0,0.0,0.0,0.0,0.0,0.0,0.0,0.0,0.0,0.0,0.0,0.0,0.0,0.0,0.0,0.0,0.0,0.0,0.0,0.0,0.0,0.0,0.0,0.0,0.0,0.0,0.0,0.0,0.0,0.0,0.0,0.0,0.0,0.0,0.0,0.0,0.0,0.0,0.0,0.0,0.0,0.0,0.0,0.0,0.0,0.0,0.0,0.0,0.0,0.0,0.0,0.0,0.0,0.0,0.0,0.0,0.0,0.0,0.0,0.0,0.0,0.0,0.0,0.0,0.0,0.0,0.0,0.0,0.0,0.0,0.0,0.0,0.0,0.0,0.0,0.0,0.0,0.0,0.0,0.0,0.0,0.0,0.0,0.0,0.0,0.0,0.0,0.0,-2.1127,-2.3646,-2.8363,-2.9453,-2.9792,-2.9792,-2.8247,-2.6101,-2.3253,-2.182,0.0,0.0,0.0,0.0,0.0,0.0,0.0,0.0,0.0,0.0,0.0,0.0,0.0,0.0,0.0,0.0,0.0,0.0,0.0,0.0,0.0,0.0,0.0,0.0,0.0,0.0,0.0,0.0,0.0,0.0,0.0,0.0,0.0,0.0,0.0,0.0,0.0,0.0,0.0,0.0,0.0,0.0,0.0,0.0,0.0,0.0,0.0,0.0,0.0,0.0,0.0,0.0,0.0,0.0,0.0,0.0,0.0,0.0,0.0,0.0,0.0,0.0,0.0,0.0,0.0,0.0,0.0,0.0,0.0,0.0,0.0,0.0,0.0,0.0,0.0,0.0,0.0,0.0,0.0,0.0,0.0,0.0,0.0,0.0,0.0,0.0,0.0,0.0,0.0,0.0,0.0,0.0,0.0,0.0,0.0,0.0,0.0,0.0,0.0,0.0,0.0,0.0,-2.3289,-2.5148,-2.8725,-2.9528,-2.9741,-2.9603,-2.7934,-2.5749,-2.3113,-2.1267,0.0,0.0,0.0,0.0,0.0,0.0,0.0,0.0,0.0,0.0,0.0,0.0,0.0,0.0,0.0,0.0,0.0,0.0,0.0,0.0,0.0,0.0,0.0,0.0,0.0,0.0,0.0,0.0,0.0,0.0,0.0,0.0,0.0,0.0,0.0,0.0,0.0,0.0,0.0,0.0,0.0,0.0,0.0,0.0,0.0,0.0,0.0,0.0,0.0,0.0,0.0,0.0,0.0,0.0,0.0,0.0,0.0,0.0,0.0,0.0,0.0,0.0,0.0,0.0,0.0,0.0,0.0,0.0,0.0,0.0,0.0,0.0,0.0,0.0,0.0,0.0,0.0,0.0,0.0,0.0,0.0,0.0,0.0,0.0,0.0,0.0,0.0,0.0,0.0,0.0,0.0,0.0,0.0,0.0,0.0,0.0,0.0,0.0,0.0,0.0,0.0,0.0,-2.4579,-2.7168,-2.949,-2.9767,-2.9578,-2.9038,-2.6979,-2.4757,-2.251,-2.0338,0.0,0.0,0.0,0.0,0.0,0.0,0.0,0.0,0.0,0.0,0.0,0.0,0.0,0.0,0.0,0.0,0.0,0.0,0.0,0.0,0.0,0.0,0.0,0.0,0.0,0.0,0.0,0.0,0.0,0.0,0.0,0.0,0.0,0.0,0.0,0.0,0.0,0.0,0.0,0.0,0.0,0.0,0.0,0.0,0.0,0.0,0.0,0.0,0.0,0.0,0.0,0.0,0.0,0.0,0.0,0.0,0.0,0.0,0.0,0.0,0.0,0.0,0.0,0.0,0.0,0.0,0.0,0.0,0.0,0.0,0.0,0.0,0.0,0.0,0.0,0.0,0.0,0.0,0.0,0.0,0.0,0.0,0.0,0.0,0.0,0.0,0.0,0.0,0.0,0.0,0.0,0.0,0.0,0.0,0.0,0.0,0.0,0.0,0.0,0.0,0.0,0.0,-2.4341,-2.6553,0.0,-2.9792,-2.9566,-2.8976,-2.7532,-2.5398,-2.2498,0.0,0.0,0.0,0.0,0.0,0.0,0.0,0.0,0.0,0.0,0.0,0.0,0.0,0.0,0.0,0.0,0.0,0.0,0.0,0.0,0.0,0.0,0.0,0.0,0.0,0.0,0.0,0.0,0.0,0.0,0.0,0.0,0.0,0.0,0.0,0.0,0.0,0.0,0.0,0.0,0.0,0.0,0.0,0.0,0.0,0.0,0.0,0.0,0.0,0.0,0.0,0.0,0.0,0.0,0.0,0.0,0.0,0.0,0.0,0.0,0.0,0.0,0.0,0.0,0.0,0.0,0.0,0.0,0.0,0.0,0.0,0.0,0.0,0.0,0.0,0.0,0.0,0.0,0.0,0.0,0.0,0.0,0.0,0.0,0.0,0.0,0.0,0.0,0.0,0.0,0.0,0.0,0.0,0.0,0.0,0.0,0.0,0.0,0.0,0.0,0.0,0.0,-2.2498,-2.4318,-2.6414,0.0,-2.9515,-2.9289,-2.8712,-2.7005,-2.4845,-2.2221,0.0,0.0,0.0,0.0,0.0,0.0,0.0,0.0,0.0,0.0,0.0,0.0,0.0,0.0,0.0,0.0,0.0,0.0,0.0,0.0,0.0,0.0,0.0,0.0,0.0,0.0,0.0,0.0,0.0,0.0,0.0,0.0,0.0,0.0,0.0,0.0,0.0,0.0,0.0,0.0,0.0,0.0,0.0,0.0,0.0,0.0,0.0,0.0,0.0,0.0,0.0,0.0,0.0,0.0,0.0,0.0,0.0,0.0,0.0,0.0,0.0,0.0,0.0,0.0,0.0,0.0,0.0,0.0,0.0,0.0,0.0,0.0,0.0,0.0,0.0,0.0,0.0,0.0,0.0,0.0,0.0,0.0,0.0,0.0,0.0,0.0,0.0,0.0,0.0,0.0,0.0,0.0,0.0,0.0,0.0,0.0,0.0,0.0,0.0,0.0,0.0,0.0,-2.2033,-2.4732,-2.708,-2.8737,-2.8925,-2.8699,-2.8147,-2.5059,-2.2673,0.0,0.0,0.0,0.0,0.0,0.0,0.0,0.0,0.0,0.0,0.0,0.0,0.0,0.0,0.0,0.0,0.0,0.0,0.0,0.0,0.0,0.0,0.0,0.0,0.0,0.0,0.0,0.0,0.0,0.0,0.0,0.0,0.0,0.0,0.0,0.0,0.0,0.0,0.0,0.0,0.0,0.0,0.0,0.0,0.0,0.0,0.0,0.0,0.0,0.0,0.0,0.0,0.0,0.0,0.0,0.0,0.0,0.0,0.0,0.0,0.0,0.0,0.0,0.0,0.0,0.0,0.0,0.0,0.0,0.0,0.0,0.0,0.0,0.0,0.0,0.0,0.0,0.0,0.0,0.0,0.0,0.0,0.0,0.0,0.0,0.0,0.0,0.0,0.0,0.0,0.0,0.0,0.0,0.0,0.0,0.0,0.0,0.0,0.0,0.0,0.0,0.0,0.0,0.0,-2.4381,-2.649,-2.8172,-2.8348,-2.8122,-2.757,-2.5561,-2.3514,-2.1606,0.0,0.0,0.0,0.0,0.0,0.0,0.0,0.0,0.0,0.0,0.0,0.0,0.0,0.0,0.0,0.0,0.0,0.0,0.0,0.0,0.0,0.0,0.0,0.0,0.0,0.0,0.0,0.0,0.0,0.0,0.0,0.0,0.0,0.0,0.0,0.0,0.0,0.0,0.0,0.0,0.0,0.0,0.0,0.0,0.0,0.0,0.0,0.0,0.0,0.0,0.0,0.0,0.0,0.0,0.0,0.0,0.0,0.0,0.0,0.0,0.0,0.0,0.0,0.0,0.0,0.0,0.0,0.0,0.0,0.0,0.0,0.0,0.0,0.0,0.0,0.0,0.0,0.0,0.0,0.0,0.0,0.0,0.0,0.0,0.0,0.0,0.0,0.0,0.0,0.0,0.0,0.0,0.0,0.0,0.0,0.0,0.0,0.0,0.0,0.0,0.0,0.0,-2.1694,-2.4104,-2.6151,-2.762,-2.777,-2.7557,-2.7005,-2.5222,-2.3288,-2.1292,0.0,0.0,0.0,0.0,0.0,0.0,0.0,0.0,0.0,0.0,0.0,0.0,0.0,0.0,0.0,0.0,0.0,0.0,0.0,0.0,0.0,0.0,0.0,0.0,0.0,0.0,0.0,0.0,0.0,0.0,0.0,0.0,0.0,0.0,0.0,0.0,0.0,0.0,0.0,0.0,0.0,0.0,0.0,0.0,0.0,0.0,0.0,0.0,0.0,0.0,0.0,0.0,0.0,0.0,0.0,0.0,0.0,0.0,0.0,0.0,0.0,0.0,0.0,0.0,0.0,0.0,0.0,0.0,0.0,0.0,0.0,0.0,0.0,0.0,0.0,0.0,0.0,0.0,0.0,0.0,0.0,0.0,0.0,0.0,0.0,0.0,0.0,0.0,0.0,0.0,0.0,0.0,0.0,0.0,0.0,0.0,0.0,0.0,0.0,0.0,0.0,0.0,-2.1204,-2.3853,-2.595,-2.708,-2.7205,-2.6979,-2.6496,-2.4431,-2.2498,-2.0907,0.0,0.0,0.0,0.0,0.0,0.0,0.0,0.0,0.0,0.0,0.0,0.0,0.0,0.0,0.0,0.0,0.0,0.0,0.0,0.0,0.0,0.0,0.0,0.0,0.0,0.0,0.0,0.0,0.0,0.0,0.0,0.0,0.0,0.0,0.0,0.0,0.0,0.0,0.0,0.0,0.0,0.0,0.0,0.0,0.0,0.0,0.0,0.0,0.0,0.0,0.0,0.0,0.0,0.0,0.0,0.0,0.0,0.0,0.0,0.0,-0.9615,0.0,0.0,0.0,0.0,0.0,0.0,0.0,0.0,0.0,0.0,0.0,0.0,0.0,0.0,0.0,0.0,0.0,0.0,0.0,0.0,0.0,0.0,0.0,0.0,0.0,0.0,0.0,0.0,0.0,0.0,0.0,0.0,0.0,0.0,0.0,0.0,0.0,0.0,0.0,0.0,0.0,-2.1204,-2.354,-2.541,-2.6515,-2.6697,-2.6402,-2.5824,-2.4569,-2.31,-2.1418,0.0,0.0,0.0,0.0,0.0,0.0,0.0,0.0,0.0,0.0,0.0,0.0,0.0,0.0,0.0,0.0,0.0,0.0,0.0,0.0,0.0,0.0,0.0,0.0,0.0,0.0,0.0,0.0,0.0,0.0,0.0,0.0,0.0,0.0,0.0,0.0,0.0,0.0,0.0,0.0,0.0,0.0,0.0,0.0,0.0,0.0,0.0,0.0,0.0,0.0,0.0,0.0,0.0,0.0,0.0,0.0,0.0,0.0,0.0,0.0,0.0,-1.016,0.0,0.0,0.0,0.0,0.0,0.0,0.0,0.0,0.0,0.0,0.0,0.0,0.0,0.0,0.0,0.0,0.0,0.0,0.0,0.0,0.0,0.0,0.0,0.0,0.0,0.0,0.0,0.0,0.0,0.0,0.0,0.0,0.0,0.0,0.0,0.0,0.0,0.0,0.0,0.0,-2.084,-2.305,-2.4745,-2.5586,-2.5674,-2.5448,-2.487,-2.4067,-2.2874,-2.1204,-1.9271,0.0,0.0,0.0,0.0,0.0,0.0,0.0,0.0,0.0,0.0,0.0,0.0,0.0,0.0,0.0,0.0,0.0,0.0,0.0,0.0,0.0,0.0,0.0,0.0,0.0,0.0,0.0,0.0,0.0,0.0,0.0,0.0,0.0,0.0,0.0,0.0,0.0,0.0,0.0,0.0,0.0,0.0,0.0,0.0,0.0,0.0,0.0,0.0,0.0,0.0,0.0,0.0,0.0,0.0,0.0,-1.2265,-1.2505,-1.2772,-1.2999,-1.2024,-1.1597,-1.151,0.0,0.0,0.0,0.0,0.0,0.0,0.0,0.0,0.0,0.0,0.0,0.0,0.0,0.0,0.0,0.0,0.0,0.0,0.0,0.0,0.0,0.0,0.0,0.0,0.0,-1.6084,-1.5781,0.0,0.0,0.0,0.0,0.0,0.0,0.0,0.0,0.0,0.0,0.0,0.0,-2.0589,-2.2673,-2.4217,-2.4757,-2.482,-2.4594,-2.4054,-2.3552,-2.2585,-2.097,-1.9434,-1.7928,0.0,0.0,0.0,0.0,0.0,0.0,0.0,0.0,0.0,0.0,0.0,0.0,0.0,0.0,0.0,0.0,0.0,0.0,0.0,0.0,0.0,0.0,0.0,0.0,0.0,0.0,0.0,0.0,0.0,0.0,0.0,0.0,-0.444,-0.4613,0.0,0.0,0.0,0.0,0.0,0.0,0.0,0.0,0.0,0.0,0.0,0.0,0.0,0.0,-1.2064,-1.2886,-1.3313,-1.336,-1.3948,-1.4075,-1.3794,-1.3834,-1.4008,-1.4275,-1.4122,0.0,-1.2138,-1.151,0.0,0.0,0.0,0.0,0.0,0.0,0.0,0.0,0.0,0.0,0.0,0.0,0.0,0.0,0.0,0.0,0.0,0.0,0.0,0.0,0.0,0.0,-1.7432,-1.7187,-1.7451,-1.7461,0.0,-1.4982,-1.3896,-1.335,0.0,0.0,0.0,0.0,0.0,0.0,0.0,0.0,-2.1167,-2.2912,-2.4217,-2.4757,-2.482,-2.4594,-2.4054,-2.3929,-2.3163,-2.1493,-2.0727,-1.9811,-1.8643,-1.666,0.0,0.0,0.0,0.0,0.0,0.0,0.0,0.0,0.0,0.0,0.0,0.0,0.0,0.0,0.0,0.0,0.0,0.0,0.0,0.0,0.0,0.0,0.0,0.0,0.0,0.0,0.0,0.0,0.0,-0.4433,-0.4711,-0.4694,-0.4836,-0.484,0.0,0.0,0.0,0.0,0.0,0.0,0.0,0.0,0.0,-0.898,-1.0456,-1.1922,-1.33,-1.3854,-1.4222,-1.4389,-1.4816,-1.4943,-1.4823,-1.4823,-1.4983,-1.5237,-1.491,-1.4489,-1.3961,-1.2872,-1.2178,-1.1794,0.0,0.0,0.0,0.0,0.0,-1.2092,-1.3652,0.0,0.0,0.0,0.0,0.0,0.0,0.0,0.0,0.0,0.0,0.0,0.0,0.0,0.0,-1.8379,-1.8594,-1.8623,-1.8252,-1.7187,-1.5967,0.0,-1.4899,-1.5014,-1.4413,0.0,0.0,0.0,0.0,0.0,-2.0891,-2.2485,-2.3602,-2.3841,-2.3816,-2.3778,-2.3527,-2.3514,-2.2937,-2.1568,-2.102,-2.0371,-1.9571,-1.7702,-1.6961,0.0,0.0,0.0,0.0,0.0,0.0,0.0,0.0,0.0,0.0,0.0,0.0,0.0,0.0,0.0,0.0,0.0,0.0,0.0,0.0,0.0,0.0,0.0,0.0,0.0,0.0,0.0,0.0,-0.4691,-0.4931,-0.4816,-0.5067,-0.5101,0.0,0.0,0.0,0.0,0.0,0.0,-0.5803,-0.7082,-0.8415,-0.9853,-1.1404,-1.2866,-1.4416,-1.471,-1.4963,-1.519,-1.5404,-1.5504,-1.5504,-1.5504,-1.5625,-1.5805,-1.5371,-1.5304,-1.5404,-1.4088,-1.3367,-1.3097,-1.2492,-1.2175,0.0,-1.2453,-1.2506,-1.2692,-1.4289,-1.4864,-1.5122,-1.65,0.0,-1.6446,-1.5834,0.0,0.0,0.0,0.0,-1.6738,-1.751,0.0,-1.8662,-1.9297,-1.9541,-1.958,-1.9473,-1.8945,-1.7988,0.0,-1.6361,-1.6563,-1.5906,0.0,0.0,0.0,0.0,-2.0439,-2.1016,-2.2284,-2.3078,-2.3078,-2.3078,-2.3078,-2.3078,-2.294,-2.2523,-2.1543,-2.102,-2.0526,-2.0202,-1.8655,-1.8229,0.0,0.0,0.0,0.0,0.0,0.0,0.0,0.0,0.0,0.0,0.0,0.0,0.0,0.0,0.0,0.0,0.0,0.0,0.0,0.0,0.0,0.0,0.0,0.0,0.0,0.0,0.0,0.0,0.0,0.0,-0.5108,-0.5379,0.0,0.0,0.0,0.0,-0.5555,-0.5959,-0.6271,-0.642,-0.8819,-1.0478,-1.1025,-1.3444,-1.5017,-1.5324,-1.5618,-1.5772,-1.5785,-1.5798,-1.5805,-1.5805,-1.5805,-1.5812,-1.5832,-1.5798,-1.5792,-1.5738,-1.483,-1.4282,-1.4072,-1.4529,-1.4336,-1.3916,-1.4154,-1.4736,-1.5446,-1.5912,-1.6807,-1.7924,-1.9276,-1.9156,-1.8407,-1.7998,-1.7275,0.0,0.0,-1.7588,-1.8018,-1.8457,-1.9199,-1.9824,-1.9873,-2.0195,-2.0391,-1.9971,-1.9853,-1.9316,0.0,-1.7798,-1.8057,-1.7556,0.0,0.0,-2.0376,-2.1004,-2.1606,-2.2159,-2.2761,-2.3078,-2.3078,-2.3078,-2.3078,-2.3078,-2.2661,-2.2108,-2.1531,-2.102,-2.0705,-2.0782,-1.9567,-1.9135,-1.9666,-1.777,0.0,0.0,0.0,0.0,0.0,0.0,0.0,0.0,0.0,0.0,0.0,0.0,0.0,0.0,0.0,0.0,0.0,0.0,0.0,0.0,0.0,0.0,0.0,0.0,0.0,0.0,0.0,0.0,-0.5562,-0.5915,0.0,0.0,-0.5956,-0.6159,-0.6159,-0.6488,-0.7126,-0.8237,-0.9261,-1.0695,-1.2757,-1.3758,-1.4703,-1.5671,-1.5778,-1.5832,-1.5832,-1.5832,-1.5832,-1.5832,-1.5832,-1.5832,-1.5832,-1.5832,-1.5832,-1.5805,-1.5491,-1.519,-1.4897,-1.4945,-1.4864,-1.4691,-1.4709,-1.5416,-1.6472,-1.7343,-1.8379,-1.9469,-2.0139,-1.9756,-1.9023,-1.8877,-1.8623,-1.8408,-1.8564,-1.8906,-1.9268,-1.9424,-1.9893,-2.0332,-2.0332,-2.0449,-2.0518,-2.0361,-2.0117,-1.9797,-1.9524,-1.9194,-1.8986,-1.9241,-1.9793,-2.0324,-2.0636,-2.1443,-2.2083,-2.2284,-2.2799,-2.3078,-2.3078,-2.3078,-2.2927,-2.2636,-2.2422,-2.1769,-2.0489,-2.0225,-2.0129,-2.0243,-1.9101,-1.9055,-2.0318,-1.8264,-1.6775,0.0,0.0,0.0,0.0,0.0,0.0,0.0,0.0,0.0,0.0,0.0,0.0,0.0,0.0,0.0,0.0,0.0,0.0,0.0,0.0,0.0,0.0,0.0,0.0,0.0,0.0,-0.5976,-0.6023,-0.6424,-0.6563,-0.6217,-0.6542,-0.6776,-0.6776,-0.7054,-0.7847,-0.9426,-0.9983,-1.1377,-1.372,-1.4272,-1.4949,-1.5825,-1.5832,-1.5832,-1.5832,-1.5832,-1.5832,-1.5832,-1.5832,-1.5832,-1.5832,-1.5832,-1.5832,-1.5832,-1.5832,-1.5718,-1.5524,-1.5331,-1.5197,-1.5201,-1.5632,-1.6433,-1.7541,-1.9016,-2.0138,-2.0791,-2.0777,-2.04,-1.9922,-1.9766,-1.9717,-1.9717,-1.9717,-1.9922,-2.0137,-2.0137,-2.0352,-2.0566,-2.0566,-2.0566,-2.0566,-2.0566,-2.0225,-2.0148,-2.0899,-2.0454,-2.0117,-2.0663,-2.1067,-2.1378,-2.1487,-2.2121,-2.2585,-2.2585,-2.2852,-2.3078,-2.3078,-2.3078,-2.2852,-2.2359,-2.2133,-2.1481,-2.0175,-1.9748,-1.9726,-2.0158,-1.9073,-1.9169,-2.0669,-1.855,-1.719,-1.6697,0.0,0.0,0.0,0.0,0.0,0.0,0.0,0.0,0.0,0.0,0.0,0.0,0.0,0.0,0.0,0.0,0.0,0.0,0.0,0.0,0.0,0.0,0.0,-0.4097,-0.5393,-0.6335,-0.6474,-0.6885,-0.7099,-0.6963,-0.7214,-0.7387,-0.7387,-0.7655,-0.839,-0.9723,-1.1153,-1.2528,-1.3872,-1.514,-1.5832,-1.5832,-1.5832,-1.5832,-1.5832,-1.5832,-1.5832,-1.5832,-1.5832,-1.5832,-1.5832,-1.5832,-1.5832,-1.5832,-1.5832,-1.5832,-1.5832,-1.5832,-1.5658,-1.5589,-1.6737,-1.7679,-1.8793,-2.1136,-2.1914,-2.1836,-2.1416,-2.126,-2.1152,-2.0713,-2.0576,-2.0566,-2.0566,-2.0566,-2.0566,-2.0566,-2.0566,-2.0566,-2.0566,-2.0566,-2.0566,-2.0566,-2.0225,-2.0286,-2.1662,-2.1508,-2.1348,-2.1835,-2.2567,-2.3078,-2.3078,-2.3078,0.0,-2.3078,-2.3078,-2.3078,-2.3078,-2.3078,-2.2912,-2.2334,-2.1794,-2.123,-2.068,-1.9585,-1.9529,-2.068,-1.9568,-1.944,-2.0639,-1.8713,-1.7399,-1.6741,0.0,0.0,0.0,0.0,0.0,0.0,0.0,0.0,0.0,0.0,0.0,0.0,0.0,0.0,0.0,0.0,0.0,0.0,0.0,0.0,0.0,0.0,-0.421,-0.4415,-0.5747,-0.6797,-0.6939,-0.7261,-0.7458,-0.7421,-0.7584,-0.7689,-0.7689,-0.7868,-0.8561,-0.9922,-1.1234,-1.2528,-1.3872,-1.514,-1.5832,-1.5832,-1.5832,-1.5832,-1.5832,-1.5832,-1.5832,-1.5832,-1.5832,-1.5832,-1.5832,-1.5832,-1.5832,-1.5832,-1.5832,-1.5832,-1.5832,-1.5832,-1.5778,-1.5705,-1.6067,-1.7467,-1.9558,-2.1976,-2.2598,-2.2314,-2.2197,-2.1738,-2.1211,-2.1094,-2.082,-2.0566,-2.0566,-2.0566,-2.0566,-2.0566,-2.0566,-2.0566,-2.0566,-2.0566,-2.0566,-2.0566,-2.0225,-2.0286,-2.1662,-2.1508,-2.1544,-2.2592,-2.2944,-2.3078,-2.3078,0.0,0.0,-2.3078,-2.3078,-2.3078,-2.3078,-2.3078,-2.2749,-2.1794,-2.1581,-2.074,0.0,-1.8951,-1.8935,-1.8852,-1.8894,-1.9228,-1.9959,-1.8957,-1.8119,0.0,0.0,0.0,0.0,0.0,0.0,0.0,0.0,0.0,0.0,0.0,0.0,0.0,0.0,0.0,0.0,0.0,0.0,0.0,0.0,0.0,0.0,-0.1906,-0.3569,-0.4116,-0.5905,-0.719,-0.7397,-0.7634,-0.7784,-0.7784,-0.7858,-0.7906,-0.7906,-0.7987,-0.8627,-0.9899,-1.1165,-1.2528,-1.3872,-1.514,-1.5832,-1.5832,-1.5832,-1.5832,-1.5832,-1.5832,-1.5832,-1.5832,-1.5832,-1.5832,0.0,-1.5832,-1.5832,-1.5832,-1.5832,-1.5832,0.0,0.0,0.0,0.0,0.0,-1.8572,-2.0486,-2.2413,-2.2978,-2.2744,-2.2568,-2.2178,-2.1709,-2.1348,-2.1055,-2.081,-2.0615,-2.0566,-2.0566,-2.0566,-2.0566,-2.0566,-2.0566,-2.0566,-2.0712,-2.1078,-2.0662,-2.0638,-2.2172,0.0,0.0,-2.2934,-2.3078,-2.3078,-2.3078,-2.3078,-2.3078,0.0,-2.3078,-2.3078,-2.3078,-2.3078,-2.2686,-2.1581,-2.1493,0.0,0.0,0.0,-1.8846,-1.8461,-1.8968,0.0,0.0,0.0,0.0,0.0,0.0,0.0,0.0,-1.7458,-1.7413,0.0,0.0,0.0,0.0,0.0,0.0,0.0,0.0,0.0,0.0,0.0,0.0,0.0,0.0,0.0,0.0,-0.1012,-0.2209,-0.3467,-0.5663,-0.7403,-0.7777,-0.7946,-0.8038,-0.8038,-0.8038,-0.8038,-0.8038,-0.8038,-0.8531,-0.9706,0.0,0.0,0.0,0.0,-1.5635,-1.5832,-1.5832,-1.5832,-1.5832,-1.5832,-1.5832,-1.5832,-1.5832,-1.5832,-1.5832,-1.5832,-1.5832,-1.5832,-1.5832,-1.5832,-1.5832,-1.5832,-1.5832,-1.6103,-1.8395,-2.0034,0.0,0.0,0.0,0.0,-2.2705,-2.2549,-2.2363,-2.1553,-2.1279,-2.1143,-2.0693,-2.0566,-2.0566,-2.0566,-2.0566,-2.0566,-2.0566,-2.0566,-2.0867,-2.1659,-2.1104,-2.1015,-2.2796,-2.2386,-2.2063,-2.2944,-2.3078,-2.3078,-2.3078,-2.3078,0.0,-2.3078,-2.3078,-2.3078,-2.3078,0.0,0.0,-2.1581,-2.1493,-2.1033,-1.9888,-1.9439,-1.9203,-1.9243,-1.9664,-1.9914,-1.9914,-2.0513,-2.0827,-2.0827,-2.141,-2.1695,-2.1635,-1.9271,-1.8792,0.0,0.0,0.0,0.0,0.0,0.0,0.0,0.0,0.0,0.0,0.0,0.0,0.0,0.0,0.0,0.0,-0.0984,-0.1917,-0.233,-0.4518,-0.6564,-0.7691,-0.7946,-0.8038,-0.8038,-0.8038,-0.8038,-0.8038,-0.8038,-0.8137,-0.8333,-0.9608,0.0,-1.2237,-1.359,-1.4752,-1.5825,-1.5832,-1.5832,-1.5832,0.0,0.0,-1.5832,-1.5832,-1.5832,-1.5832,-1.5832,-1.5832,-1.5832,-1.5832,-1.5832,-1.5832,-1.5832,-1.5832,-1.6015,-1.7498,-1.8772,-2.0034,-2.1212,-2.2306,-2.3125,-2.3047,-2.2783,-2.2422,-2.1914,-2.1514,0.0,-2.0693,-2.0566,-2.0566,-2.0566,-2.0566,-2.0566,-2.0566,-2.0566,-2.0634,-2.0857,-2.0183,-2.0053,-2.184,-2.1461,-2.1353,-2.2823,-2.3078,-2.3078,-2.3078,-2.3078,-2.3078,-2.3078,-2.3078,-2.3078,-2.3078,-2.3078,-2.2686,-2.1581,-2.1493,-2.1085,-2.0022,-2.0299,-2.0707,-2.1149,-2.1267,-2.1306,-2.1306,-2.144,-2.1515,-2.1515,-2.1635,-2.1695,-2.168,-2.1171,-2.1066,0.0,0.0,0.0,0.0,0.0,0.0,0.0,0.0,0.0,0.0,0.0,0.0,0.0,0.0,0.0,0.0,-0.0515,-0.1169,-0.189,-0.3065,-0.4653,-0.6623,-0.7592,-0.8038,-0.8038,-0.8038,-0.8038,-0.8038,-0.8038,-0.8038,-0.8038,-0.9312,-1.0583,-1.1848,-1.3199,-1.4555,-1.5825,-1.5832,-1.5832,-1.5832,-1.5832,-1.5832,-1.5832,-1.5832,-1.5832,-1.5832,-1.5832,-1.5832,-1.5832,-1.5832,-1.5832,-1.5832,-1.5832,-1.5832,-1.592,-1.7225,-1.8503,-1.967,-2.0845,-2.212,-2.3135,-2.3135,-2.2998,-2.2705,-2.208,-2.1738,-2.1426,-2.0752,-2.0566,-2.0566,-2.0566,-2.0566,-2.0566,-2.0566,-2.0566,-2.0712,-2.1231,-2.0958,-2.1015,-2.2321,-2.218,-2.2113,-2.2944,-2.3078,-2.3078,-2.3078,-2.3078,-2.3078,-2.3078,-2.3078,-2.3078,-2.3078,-2.3078,-2.2686,-2.1581,-2.1291,-2.0784,-1.9969,-2.0787,-2.1265,-2.1193,-2.1505,-2.1695,-2.1695,-2.2024,-2.2188,-2.2188,-2.2503,-2.2652,-2.2652,-2.2652,-2.2488,0.0,0.0,0.0,0.0,0.0,0.0,0.0,0.0,0.1952,0.1466,0.0615,0.0,0.0,0.0,0.0,0.0,0.0,-0.0366,-0.1429,-0.1842,-0.285,-0.4986,-0.6617,-0.7736,-0.7939,-0.8038,-0.8038,-0.8038,-0.8038,-0.8038,-0.8038,-0.9019,-1.019,-1.1463,-1.2813,-1.4172,-1.5439,-1.5635,-1.5832,-1.5832,-1.5832,-1.5832,-1.5832,-1.5832,-1.5832,-1.5832,-1.5832,-1.5832,-1.5832,-1.5832,-1.5832,-1.5832,-1.5832,-1.5832,-1.592,-1.6943,-1.8226,-1.967,-2.0567,-2.1854,-2.3135,-2.3135,-2.3086,-2.2881,-2.2119,-2.1826,-2.1592,-2.0791,-2.0566,-2.0566,-2.0566,-2.0566,-2.0566,-2.0566,-2.0566,-2.0789,-2.1593,-2.1532,-2.1702,-2.2796,-2.2771,-2.2689,-2.3065,-2.3078,-2.3078,-2.3078,-2.3078,-2.3078,-2.3078,-2.3078,-2.3078,-2.3078,-2.3078,-2.2686,-2.1581,-2.1264,-2.0864,-2.0231,-2.1383,-2.183,-2.1294,-2.178,-2.2069,-2.2069,-2.2592,-2.2862,-2.2862,-2.3355,-2.3595,-2.3595,-2.3595,-2.3325,0.407,0.3982,0.0,0.4317,0.4453,0.4329,0.0,0.0,0.23,0.1676,0.0759,0.0,0.0,0.0,0.0,0.0,0.0,-0.0094,-0.0195,-0.1272,-0.2153,-0.2451,-0.4674,-0.6731,-0.7839,-0.8038,-0.8038,-0.8038,-0.8038,-0.8038,-0.8038,-0.8137,-0.8825,-1.0194,-1.1458,-1.2716,-1.407,-1.5242,-1.5832,-1.5832,-1.5832,-1.5832,-1.5832,-1.5832,-1.5832,-1.5832,-1.5832,-1.5832,-1.5832,-1.5832,-1.5832,-1.5832,-1.5832,-1.5832,-1.5825,-1.592,-1.7483,-1.9497,-1.967,-2.1221,-2.3135,-2.3135,-2.2891,-2.249,-2.2031,-2.1611,-2.1201,-2.0703,-2.0566,-2.0566,-2.0566,-2.0566,-2.0566,-2.0566,-2.0566,-2.0644,-2.0712,-2.0108,-2.0053,-2.1702,-2.1395,-2.1353,-2.2811,-2.3078,-2.3078,-2.3078,-2.3078,-2.3078,-2.3078,-2.3078,-2.3078,-2.3078,-2.3078,-2.2686,-2.1581,-2.2034,-2.213,-2.1547,-2.2685,-2.3359,-2.3284,-2.3342,-2.3385,-2.3385,-2.346,-2.349,-2.349,-2.3565,-2.3595,-2.3595,-2.3595,-2.3565,0.4334,0.0,0.0,0.0,0.4792,0.4839,0.4919,0.4286,0.3423,0.252,0.1688,0.0836,0.0169,0.0,0.0,0.0,0.0,0.0,0.0,-0.049,-0.1077,-0.1858,-0.3605,-0.5273,-0.6712,-0.7588,-0.8038,-0.8038,-0.8038,-0.8038,-0.8038,-0.8038,-0.8627,-0.9998,-1.0485,-1.1745,-1.3878,-1.4459,-1.5045,-1.5832,-1.5832,-1.5832,-1.5832,-1.5832,-1.5832,-1.5832,-1.5832,-1.5832,-1.5832,-1.5832,-1.5832,-1.5832,-1.5832,-1.5832,-1.592,-1.6669,-1.8041,-1.9579,-2.0305,-2.1676,-2.3096,-2.2852,-2.2656,-2.2383,-2.1709,-2.1377,-2.1143,-2.0693,-2.0566,-2.0566,-2.0566,-2.0566,-2.0566,-2.0566,-2.0566,-2.0498,-2.0244,-2.049,-2.0941,-2.1406,-2.1777,-2.231,-2.3005,-2.3078,-2.3078,-2.3078,-2.3078,-2.3078,-2.3078,-2.3078,-2.3078,-2.3078,-2.2849,-2.245,-2.2073,-2.2049,-2.1943,-2.169,-2.2575,-2.3054,-2.3054,-2.3421,-2.3595,-2.3595,-2.3595,-2.3595,-2.3595,-2.3595,-2.3595,-2.3595,-2.3595,-2.3819,0.4545,0.0,0.0,0.4992,0.5152,0.5338,0.5644,0.5064,0.4254,0.353,0.255,0.1451,0.0602,0.0176,0.0,0.0,0.0,0.0,0.0,0.0,-0.0391,-0.1351,-0.2579,-0.3811,-0.5281,-0.6979,-0.7994,-0.8035,-0.8038,-0.8038,-0.8038,-0.8038,-0.8432,-0.941,-0.9805,-1.0872,-1.2813,-1.3584,-1.4364,-1.5242,-1.5635,-1.5832,-1.5832,-1.5832,-1.5832,-1.5832,-1.5832,-1.5832,-1.5832,-1.5832,-1.5832,-1.5832,-1.5832,-1.5832,-1.592,-1.7225,-1.8503,-1.9579,-2.0486,-2.178,-2.292,-2.2607,-2.2353,-2.2041,-2.1426,-2.1152,-2.0986,-2.0654,-2.0566,-2.0566,-2.0566,-2.0566,-2.0566,-2.0566,-2.0566,-2.0449,-2.001,-2.0772,-2.149,-2.1275,-2.2084,-2.2823,-2.3078,-2.3078,-2.3078,-2.3078,-2.3078,-2.3078,-2.3078,-2.3078,-2.3078,-2.3078,-2.2774,-2.2407,-2.2169,-2.2141,-2.1968,-2.1704,-2.2483,-2.2965,-2.2965,-2.3377,-2.3595,-2.3595,-2.3595,-2.3595,-2.3595,-2.3595,-2.3595,-2.3595,-2.3789,-2.4148,0.0,0.0,0.4982,0.5274,0.5464,0.5654,0.5949,0.519,0.4503,0.4644,0.3,0.1556,0.1589,0.0685,0.0,0.0,0.0,0.0,0.0,0.0,0.0,-0.0093,-0.1224,-0.2549,0.0,-0.6211,-0.7879,-0.8028,-0.8038,-0.8038,-0.8038,-0.8038,-0.8041,-0.8038,-0.9312,-0.9998,-1.0096,-1.2614,-1.3872,-1.3974,-1.5242,-1.5832,-1.5832,-1.5832,-1.5832,-1.5832,-1.5832,-1.5832,-1.5832,-1.5832,-1.5832,-1.5832,-1.5832,-1.5832,-1.592,-1.7225,-1.8503,-1.9497,-1.9588,-2.089,-2.2529,-2.2519,-2.1953,-2.1269,-2.124,-2.0937,-2.0586,-2.0566,-2.0566,-2.0566,-2.0566,-2.0566,-2.0566,-2.0566,-2.0566,-2.0449,-2.001,-2.0285,-2.0737,-2.1141,-2.1574,-2.2199,-2.2944,-2.3078,-2.3078,-2.3078,-2.3078,-2.3078,-2.3078,-2.3078,-2.3078,-2.3078,-2.3065,-2.2673,-2.1637,-2.2658,-2.2844,-2.1779,-2.2891,-2.3551,-2.3551,-2.3595,-2.3595,-2.3595,-2.3595,-2.3595,-2.3595,-2.3595,-2.3595,-2.361,-2.4283,-2.4567,0.0,0.0,0.5284,0.5579,0.5769,0.5935,0.6135,0.6018,0.5635,0.4839,0.4129,0.3248,0.1885,0.1157,0.0674,0.0087,0.0,0.0,0.0,0.0,0.0,0.0,-0.1116,0.0,0.0,0.0,0.0,-0.7778,-0.7889,-0.7933,-0.8035,-0.8038,-0.8038,-0.8038,-0.8432,-0.9118,-0.9998,-1.0872,-1.2226,-1.3878,-1.5146,-1.5832,-1.5832,-1.5832,-1.5832,-1.5832,-1.5832,-1.5832,-1.5832,-1.5832,-1.5832,-1.5832,-1.5832,-1.5832,-1.5825,-1.6292,-1.7072,-1.8135,-1.8954,-2.0122,-2.1256,-2.0717,-2.0866,-2.1182,-2.0879,-2.0684,-2.0566,-2.0566,-2.0566,-2.0566,-2.0566,-2.0566,-2.0566,-2.0566,-2.0566,-2.0449,-2.001,-2.0295,-2.0537,-2.0396,-2.1175,-2.2013,-2.2261,-2.2763,-2.3078,-2.3078,-2.3078,-2.3078,-2.3078,-2.3078,-2.3078,-2.3078,-2.3078,-2.285,-2.2153,-2.2105,-2.2009,-2.1732,-2.2086,-2.256,-2.2965,-2.3377,-2.3595,-2.3595,-2.3595,-2.3595,-2.3595,-2.3595,-2.3834,-2.4283,-2.4477,-2.5091,0.0,0.5294,0.5579,0.5823,0.6,0.6139,0.6237,0.6288,0.6077,0.5288,0.475,0.3936,0.2339,0.1641,0.0956,0.0169,0.0,0.0,0.0,0.0,0.0,0.0,-0.065,0.0,0.0,0.0,0.0,-0.7018,-0.7566,-0.7936,-0.8035,-0.8038,-0.8038,-0.8038,-0.8038,-0.8432,-0.9312,-0.9805,-1.1068,-1.3199,-1.4465,-1.5146,-1.514,-1.5629,-1.5832,-1.5832,-1.5832,-1.5832,-1.5832,-1.5832,-1.5832,-1.5832,-1.5832,-1.5832,-1.5818,-1.5712,-1.6003,-1.6813,-1.8418,-1.9574,-2.0295,-2.0218,-2.0533,-2.0937,-2.0654,-2.0566,-2.0566,-2.0566,-2.0566,-2.0566,-2.0566,-2.0566,-2.0566,-2.0566,-2.0566,-2.041,-1.9814,-2.0183,-2.0485,-2.0183,-2.1126,-2.2002,-2.2261,-2.2763,-2.3078,-2.3078,-2.3078,-2.3078,-2.3078,-2.3078,-2.3078,-2.3078,-2.2902,-2.2635,-2.214,-2.1977,-2.185,-2.1718,-2.2132,-2.256,-2.3009,-2.3377,-2.3595,-2.3595,-2.3595,-2.3595,-2.3595,-2.3595,-2.3954,-2.4582,-2.4821,-2.5555,0.5294,0.5589,0.585,0.6003,0.6152,0.6257,0.6251,0.6135,0.6027,0.601,0.4976,0.3858,0.0,0.0,0.0893,0.016,0.0,0.0,0.0,0.0,0.0,0.0,0.0,0.0,0.0,0.0,0.0,-0.556,0.0,-0.7932,-0.8038,-0.8038,-0.8038,-0.8038,-0.8038,-0.8038,-0.8038,-0.9316,-1.0583,-1.1848,-1.3199,-1.3872,-1.3974,-1.5146,-1.573,-1.5832,-1.5832,-1.5832,-1.5832,-1.5832,-1.5832,-1.5832,-1.5812,-1.5805,-1.5772,-1.5484,-1.5364,-1.5711,-1.7916,-1.9042,-1.9707,-2.07,-2.0829,-2.0566,-2.0566,-2.0566,-2.0566,-2.0566,-2.0566,-2.0566,-2.0566,-2.0566,-2.0566,-2.0566,-2.0547,-2.0312,-1.9492,-1.9981,-2.0519,-2.0543,-2.1313,-2.2137,-2.2944,-2.3078,-2.3078,-2.3078,-2.3078,-2.3078,-2.3078,-2.3078,-2.3078,-2.3078,-2.2661,-2.2121,-2.1543,-2.2114,-2.2317,-2.1704,-2.2831,-2.3508,-2.3551,-2.3595,-2.3595,-2.3595,-2.3595,-2.3595,-2.3595,-2.3595,-2.3969,-2.4642,-2.5315,-2.5974,0.5481,0.5745,0.601,0.6162,0.6234,0.623,0.6115,0.6057,0.5969,0.5745,0.5339,0.4582,0.0,0.0,0.0,0.0229,0.0,0.0,0.0,0.0,0.0,0.0,0.0,-0.0096,-0.0382,-0.135,0.0,0.0,-0.5101,-0.6828,-0.7932,-0.8038,-0.8038,-0.8038,-0.8038,-0.8038,-0.8038,-0.9316,-1.0194,-1.0485,-1.175,-1.2909,-1.3878,-1.4262,-1.4854,-1.5832,-1.5832,-1.5832,-1.5832,-1.5832,-1.5832,-1.5805,-1.5591,-1.5504,-1.5471,-1.5177,-1.4937,-1.4913,-1.6349,-1.7427,-1.8254,-1.8301,-1.9356,-2.0566,-2.0566,-2.0566,-2.0566,-2.0566,-2.0566,-2.0566,-2.0566,-2.0566,-2.0566,-2.0566,-2.0312,-2.0019,-1.9805,-1.9393,-1.9274,-1.998,-2.1031,-2.2137,-2.2944,-2.3078,-2.3078,-2.3078,-2.3078,-2.3078,-2.3078,-2.3078,-2.3078,-2.3078,-2.2952,-2.2535,-2.1568,-2.1674,-2.1576,-2.1046,-2.1758,-2.2423,-2.292,-2.3377,-2.3595,-2.3595,-2.3595,-2.3595,-2.3595,-2.3595,-2.4208,-2.536,-2.554,-2.6228,0.5742,0.5952,0.6152,0.624,0.621,0.6118,0.5966,0.583,0.5671,0.5437,0.5216,0.0,0.0,0.0,0.0,0.0,0.0,0.0,0.0,0.0,0.0,0.0,0.0,0.0,0.0,-0.0691,-0.1388,0.0,-0.4449,-0.6259,-0.703,-0.7637,-0.8038,-0.8038,-0.8038,-0.8038,-0.8038,-0.8726,-0.9118,-0.9118,-1.0485,-1.1458,-1.2226,-1.3392,-1.4268,-1.4943,0.0,-1.5638,-1.5631,-1.5504,-1.5451,-1.5431,-1.5271,-1.5204,-1.517,-1.4877,-1.4663,-1.4583,-1.5028,-1.598,-1.6945,-1.7237,-1.847,-1.9923,-1.9923,-2.0245,-2.0566,-2.0566,-2.0566,-2.0566,-2.0566,-2.0566,-2.0566,-2.0566,-2.0234,-1.9863,-1.9678,-1.9111,-1.8914,-1.9977,-2.1412,-2.2567,-2.3005,-2.3078,-2.3078,-2.3078,-2.3078,-2.3078,-2.3078,-2.3078,-2.3078,-2.3078,-2.2865,-2.2422,-2.1556,-2.153,-2.1314,-2.0812,-2.1629,-2.23,-2.2694,-2.329,-2.3595,-2.3595,-2.3595,-2.3595,-2.3595,-2.3909,-2.4582,-2.5615,-2.5899,-2.6587,0.5993,0.6142,0.6338,0.6338,0.6142,0.5983,0.5813,0.5559,0.5308,0.5111,0.0,0.0,0.2841,0.0,0.1724,0.0356,0.0,0.0,0.0,0.0,0.0,0.0,0.0,0.0,0.0,0.0,-0.0504,-0.1611,-0.4021,-0.5627,-0.6029,-0.7132,-0.7839,-0.8038,-0.8038,-0.8038,-0.8038,-0.8038,-0.8038,-0.8041,-0.9217,-0.9801,-1.0096,-1.2328,-1.3567,-1.3909,0.0,0.0,-1.5317,-1.507,-1.4963,-1.4963,-1.4917,-1.4903,-1.487,-1.4576,-1.4462,-1.4429,-1.4175,-1.4734,-1.5621,-1.6764,-1.7989,-1.9036,-1.9036,-1.9766,-2.0566,-2.0566,-2.0566,-2.0566,-2.0566,-2.0566,-2.0566,-2.0566,-2.0185,-1.9727,-1.9365,-1.9039,-1.9247,-2.0346,-2.1928,-2.3078,-2.3078,-2.3078,-2.3078,-2.3078,-2.3078,-2.3078,-2.3078,-2.3078,-2.3078,-2.3078,-2.2636,-2.2153,-2.1643,-2.1587,-2.1467,-2.1082,-2.2081,-2.274,-2.283,-2.3334,-2.3595,-2.3595,-2.3595,-2.3595,-2.3595,-2.4193,-2.4881,-2.5615,-2.6198,-2.6856,0.6023,0.6142,0.6338,0.6338,0.6142,0.5959,0.5688,0.5491,0.0,0.0,0.0,0.4368,0.3359,0.261,0.0,0.1043,0.0,0.0,0.0,0.0,0.0,0.0,0.0,0.0,0.0,0.0,0.0,0.0,0.0,0.0,-0.5929,-0.6229,-0.6833,-0.7939,-0.8038,-0.8038,-0.8038,-0.8038,-0.8038,-0.8038,-0.8233,-0.892,-0.9998,-1.0485,-1.1737,-1.3461,0.0,0.0,-1.5037,-1.4983,-1.4963,-1.4937,-1.4696,-1.4596,-1.4563,-1.4269,-1.4162,-1.4155,-1.4108,-1.425,-1.4573,-1.5621,-1.7326,-1.9036,-1.9036,-1.9766,-2.0566,-2.0566,-2.0566,-2.0566,-2.0566,-2.0566,-2.0566,-2.0566,-1.9971,-1.9375,-1.9307,-1.9817,-2.0303,-2.0537,-2.1928,-2.3078,-2.3078,-2.3078,-2.3078,-2.3078,-2.3078,-2.3078,-2.3078,-2.3078,-2.3078,-2.3078,-2.2636,-2.2299,-2.2265,-2.1839,-2.1807,-2.2356,-2.2558,-2.292,-2.3421,-2.3551,-2.3595,-2.3595,-2.3595,-2.3595,-2.3595,-2.3729,-2.4403,-2.5615,-2.5734,-2.6422,0.6129,0.6203,0.6338,0.6338,0.6084,0.5833,0.5538,0.0,0.0,0.0,0.0,0.4323,0.3522,0.0,0.0,0.0,0.0,0.0,0.0,0.0,0.0,0.0,0.0,0.0,0.0,0.0,0.0,0.0,0.0,0.0,-0.3819,-0.5225,-0.6631,-0.7939,-0.8038,-0.8038,-0.8038,-0.8038,-0.8038,-0.8038,-0.8038,-0.829,-0.8886,-0.9563,-1.041,-1.1414,0.0,0.0,-1.3894,-1.4294,-1.4509,-1.4496,-1.4349,-1.4295,-1.4282,-1.4135,-1.4088,-1.4088,-1.4088,-1.4088,-1.4166,-1.4734,-1.5951,-1.7415,-1.798,-1.8877,-1.9844,-2.0401,-2.0566,-2.0566,-2.0566,-2.04,-2.0225,-2.0225,-1.957,-1.8887,-1.8672,-1.9287,-2.0074,-2.0526,-2.1616,-2.2628,-2.3005,-2.3078,-2.3078,-2.3078,-2.3078,-2.3078,-2.3078,-2.2887,-2.2811,-2.304,-2.2636,-2.2198,-2.195,-2.1746,-2.1605,-2.1698,-2.2314,-2.283,-2.3098,-2.3421,-2.3595,-2.3595,-2.3595,-2.3595,-2.3595,-2.3969,-2.4462,-2.5106,-2.545,-2.5944,0.6217,0.6338,0.6338,0.6338,0.603,0.5725,0.543,0.5131,0.0,0.0,0.0,0.0,0.0,0.0,0.0,0.0,0.0,0.0,0.0,0.0,0.0,0.0,0.0,0.0,0.0,0.0,0.0,0.0,0.0,0.0,0.0,-0.4722,-0.6631,-0.7939,-0.8038,-0.8038,-0.8038,-0.8038,-0.8024,-0.7991,-0.7991,-0.7913,-0.7763,-0.8806,-0.9366,-0.9543,0.0,0.0,0.0,-1.3297,-1.373,-1.373,-1.3997,-1.4088,-1.4088,-1.4088,-1.4088,-1.4082,-1.4015,-1.3988,-1.3981,-1.3921,-1.4871,-1.6191,-1.7009,-1.823,-1.9502,-2.0217,-2.042,-2.041,-2.0312,-2.0039,-1.9756,-1.9668,-1.9121,-1.8525,-1.8105,-1.8844,-1.9759,-2.0462,-2.1428,-2.2384,-2.3005,-2.3078,-2.3078,-2.3078,-2.2977,-2.2902,-2.2902,-2.2472,-2.2297,-2.2736,-2.2284,-2.1838,-2.1564,-2.1603,-2.1522,-2.1202,-2.2267,-2.2875,-2.2875,-2.3334,-2.3595,-2.3595,-2.3595,-2.3595,-2.3595,-2.4148,-2.4433,-2.4597,-2.5151,-2.548,0.6217,0.6338,0.6338,0.6338,0.603,0.5725,0.543,0.0,0.0,0.0,0.4519,0.4463,0.4405,0.0,0.0,0.0,0.0,0.0,0.0,0.0,0.0,0.0,0.0,0.0,0.0,0.0,0.0,0.0,0.0,0.0,0.0,-0.5222,-0.6631,-0.7939,-0.8038,-0.8038,-0.8038,-0.8038,-0.797,-0.7831,-0.7831,-0.7756,-0.7621,-0.7712,-0.8266,-0.9178,0.0,0.0,0.0,-1.1997,-1.2498,-1.2589,-1.3646,-1.4088,-1.4088,-1.4088,-1.4088,-1.4048,-1.3774,-1.3687,-1.3641,-1.338,-1.5072,-1.718,-1.7253,-1.8789,-2.0401,-2.0088,-1.9971,-1.9883,-1.9502,-1.9375,-1.9248,-1.8848,-1.8691,-1.8525,-1.8105,-1.9309,-2.0526,-2.059,-2.1865,-2.3017,-2.3078,-2.3078,-2.3078,-2.3078,-2.2711,-2.2385,-2.2385,-2.1907,-2.1581,-2.1631,-2.1142,-2.1046,-2.1551,-2.1664,-2.1921,-2.2512,-2.3143,-2.3508,-2.3508,-2.3551,-2.3595,-2.3595,-2.3595,-2.3595,-2.3595,-2.367,-2.4014,-2.4582,-2.4642,-2.5031,0.6057,0.619,0.6338,0.6338,0.603,0.5725,0.543,0.0,0.0,0.458,0.4519,0.4519,0.4519,0.0,0.0,0.0,0.0,0.0,0.0,0.0,0.0,0.0,0.0,0.0,0.0,0.0,0.0,0.0,0.0,0.0,0.0,-0.4069,-0.5824,-0.7939,-0.795,-0.7902,-0.7902,-0.7818,-0.7743,-0.7685,-0.7685,-0.7607,-0.7461,-0.7461,-0.7647,-0.7934,0.0,0.0,0.0,-1.1552,-1.2328,-1.2413,-1.3646,-1.4088,-1.4068,-1.3888,-1.3821,-1.3774,-1.3487,-1.3387,-1.336,-1.3247,-1.4367,-1.5819,-1.5819,-1.6821,-1.8038,-1.8583,-1.9077,-1.9502,-1.9336,-1.9092,-1.8789,-1.8359,-1.8262,-1.8213,-1.8047,-1.8529,-1.9365,-2.0398,-2.1164,-2.1928,-2.2944,-2.3078,-2.2965,-2.2686,-2.2447,-2.2184,-2.1857,-2.133,-2.0991,-2.0991,-2.0857,-2.0813,-2.1013,-2.1435,-2.1805,-2.21,-2.3039,-2.3595,-2.3595,-2.3595,-2.3595,-2.3595,-2.3595,-2.3595,-2.3595,-2.3595,-2.3744,-2.4014,-2.4014,-2.4148,0.5881,0.6074,0.6193,0.6193,0.5962,0.5661,0.0,0.0,0.4775,0.4573,0.4519,0.4519,0.4519,0.4519,0.407,0.0,0.0,0.0,0.0,0.0,0.0,0.0,0.0,0.0,0.0,0.0,0.0,0.0,0.0,0.0,0.0,-0.2925,-0.4642,-0.7312,-0.7215,-0.7359,-0.775,-0.7648,-0.7577,-0.7533,-0.7533,-0.7451,-0.7302,-0.7302,-0.7244,0.0,0.0,0.0,0.0,-1.0354,-1.1337,-1.1674,-1.2881,-1.3572,-1.3801,-1.3594,-1.3514,-1.3474,-1.3173,-1.3073,-1.306,-1.2973,-1.346,-1.4052,-1.4052,-1.5315,-1.6899,-1.7852,-1.8489,-1.8916,-1.8916,-1.8682,-1.8379,-1.8076,-1.8008,-1.8008,-1.8008,-1.8202,-1.8721,-2.0009,-2.0655,-2.1353,-2.2567,-2.2944,-2.2949,-2.2397,-2.2171,-2.187,-2.1317,-2.0752,-2.0401,-2.0401,-2.0401,-2.0401,-2.0401,-2.1193,-2.1697,-2.1697,-2.2891,-2.3595,-2.3595,-2.3595,-2.3595,-2.3595,-2.3595,-2.3595,-2.3595,-2.3595,-2.3595,-2.3595,-2.3595,-2.3595,0.5725,0.5915,0.603,0.603,0.581,0.5511,0.0,0.4904,0.465,0.4549,0.4519,0.4519,0.4519,0.4519,0.4236,0.0,0.0,0.0,0.0,0.0,0.0,0.0,0.0,0.0,0.0,0.0,0.0,0.0,0.0,0.0,0.0,0.0,-0.3232,-0.5787,-0.5787,-0.6358,-0.76,-0.76,-0.7522,-0.7373,-0.7373,-0.7292,-0.7143,-0.7143,0.0,0.0,0.0,0.0,0.0,-0.7994,-0.9055,-1.0024,-1.1261,-1.232,-1.322,-1.322,-1.3213,-1.3173,-1.2936,-1.2829,-1.2775,-1.2405,-1.2311,-1.2311,-1.2311,-1.4938,-1.7999,-1.8475,-1.834,-1.8018,-1.8018,-1.8018,-1.8018,-1.8008,-1.8008,-1.8008,-1.8008,-1.8654,-1.9299,-1.9299,-2.0719,-2.1877,-2.1877,-2.2567,-2.2949,-2.2397,-2.1845,-2.1292,-2.0806,-2.0175,-1.9811,-1.9811,-1.9811,-1.9811,-1.9811,-2.0953,-2.1697,-2.1697,-2.2891,-2.3595,-2.3595,-2.3595,-2.3595,-2.3595,-2.3595,-2.3595,-2.3595,-2.3595,-2.3595,-2.3595,-2.3595,-2.3595,0.5291,0.5457,0.5572,0.5572,0.5423,0.5223,0.503,0.4833,0.4646,0.4549,0.4519,0.4519,0.4519,0.4519,0.4271,0.3621,0.0,0.0,0.0,0.0,0.0,0.0,0.0,0.0,0.0,0.0,0.0,0.0,0.0,0.0,0.0,0.0,-0.185,-0.4456,-0.5244,-0.586,-0.6236,-0.6882,-0.7261,-0.7214,-0.7214,-0.7187,-0.7136,-0.7041,0.0,0.0,0.0,0.0,0.0,-0.8669,-0.9614,-1.0105,-1.1982,-1.2883,-1.3186,-1.2973,-1.2893,-1.2846,-1.2552,-1.2445,-1.2425,-1.2331,-1.2305,-1.2445,-1.3098,-1.4099,-1.534,-1.6792,-1.7596,-1.8008,-1.8008,-1.8008,-1.8008,-1.8008,-1.8008,-1.8008,-1.8008,-1.8202,-1.8787,-1.9955,-2.0655,-2.1365,-2.2506,-2.2645,-2.2385,-2.1832,-2.128,-2.0715,-2.015,-1.9911,-1.9798,-1.9798,-2.0194,-2.0295,-1.985,-2.0988,-2.1697,-2.1697,-2.2891,-2.3595,-2.3595,-2.3595,-2.3595,-2.3595,-2.3595,-2.3595,-2.3595,-2.3595,-2.3595,-2.3595,-2.3595,-2.3595,0.0,0.5162,0.5274,0.5274,0.5162,0.5013,0.4867,0.4714,0.4579,0.4536,0.4519,0.4519,0.4519,0.4519,0.4379,0.4014,0.0,0.0,0.0,0.0,0.0,0.0,0.0,0.0,0.0,0.0,0.0,0.0,0.0,0.0,0.0,0.0,-0.0724,-0.248,-0.3564,-0.4645,-0.5556,-0.6112,-0.6694,-0.7139,-0.7085,-0.7061,-0.7054,0.0,0.0,0.0,0.0,0.0,0.0,-0.7986,-0.875,-0.93,-1.1054,-1.1924,-1.2293,-1.2494,-1.2579,-1.2552,-1.2365,-1.2305,-1.2305,-1.2305,-1.2305,-1.2445,-1.3455,-1.4243,-1.51,-1.6715,-1.7569,-1.8008,-1.8008,-1.8008,-1.8008,-1.8008,-1.8008,-1.8008,-1.8008,-1.8269,-1.8787,-1.989,-2.0655,-2.1358,-2.2165,-2.2288,-2.2058,-2.1292,-2.0891,-2.0451,-1.9874,-1.9798,-1.9901,-2.0144,-2.0547,-2.0733,-2.0521,-2.1472,-2.21,-2.21,-2.3039,-2.3595,-2.3595,-2.3595,-2.3595,-2.3595,-2.3595,-2.3595,-2.3595,-2.3595,-2.3595,-2.3595,-2.3595,-2.3724,0.0,0.4982,0.5084,0.5084,0.4986,0.485,0.4707,0.4565,0.0,0.4519,0.4519,0.4522,0.4532,0.4525,0.4525,0.4546,0.0,0.0,0.0,0.0,0.0,0.0,0.0,0.0,0.0,0.0,0.0,0.0,0.0,0.0,0.0,0.0,0.0,0.0,-0.106,-0.2759,-0.5156,-0.5245,-0.5866,-0.6929,-0.68,-0.6826,-0.6909,0.0,0.0,0.0,0.0,0.0,0.0,-0.6393,-0.6945,-0.7936,-0.8917,-0.9895,-1.0938,-1.1848,-1.2224,-1.2305,-1.2305,-1.2305,-1.2305,-1.2305,-1.2305,-1.2445,-1.3455,-1.5029,-1.6673,-1.7657,-1.794,-1.8008,-1.8008,-1.8008,-1.8008,-1.8008,-1.8008,-1.8008,-1.8008,-1.8664,-1.9233,-1.9257,-2.0598,-2.159,-2.1044,-2.166,-2.1845,-2.0869,-2.068,-2.0401,-1.9874,-1.985,-2.0105,-2.0746,-2.0894,-2.1161,-2.171,-2.2346,-2.2694,-2.2694,-2.329,-2.3595,-2.3595,-2.3595,-2.3595,-2.3595,-2.3595,-2.3595,-2.3595,-2.3595,-2.3595,-2.3595,-2.3595,-2.3879,0.4551,0.0,0.4619,0.4619,0.4596,0.4562,0.0,0.4543,0.4519,0.0,0.0,0.0,0.0,0.0,0.0,0.0,0.0,0.0,0.0,0.0,0.0,0.0,0.0,0.0,0.0,0.0,0.0,0.0,0.0,0.0,0.0,0.0,0.0,0.0,-0.0256,-0.1109,-0.2637,-0.3574,-0.4507,-0.5605,-0.5577,-0.599,-0.6749,0.0,0.0,0.0,0.0,0.0,-0.6386,-0.7115,-0.7557,-0.7936,-0.8917,-0.9895,-1.0858,-1.1087,-1.162,-1.2305,-1.2305,-1.2305,-1.2305,-1.2305,-1.2305,-1.2445,-1.3455,-1.453,-1.5728,-1.6645,-1.7432,-1.8008,-1.8008,-1.8008,-1.8008,-1.8008,-1.8008,-1.8008,-1.8008,-1.8134,-1.8429,-1.8708,-1.9569,-2.0293,-2.0511,-2.0858,-2.0966,-2.0756,-2.0288,-1.9962,-1.9823,-2.0258,-2.066,-2.0795,-2.1657,-2.2314,-2.2452,-2.2603,-2.2694,-2.2694,-2.329,-2.3595,-2.3595,-2.3595,-2.3595,-2.3595,-2.3595,-2.3595,-2.3595,-2.3595,-2.3595,-2.3595,-2.3595,-2.3681,0.4519,0.457,0.4568,0.4568,0.4568,0.4568,0.4568,0.0,0.0,0.0,0.0,0.0,0.0,0.0,0.0,0.0,0.0,0.0,0.0,0.0,0.0,0.0,0.0,0.0,0.0,0.0,0.0,0.0,0.0,0.0,0.0,0.0,0.0,0.0,0.0,-0.0582,-0.176,-0.243,-0.335,-0.4435,-0.4804,-0.5276,-0.5849,0.0,0.0,0.0,0.0,0.0,-0.6338,-0.6868,-0.7099,-0.7176,-0.8237,-0.9216,-1.019,-1.064,-1.1465,-1.2305,-1.2305,-1.2305,-1.2305,-1.2305,-1.2305,-1.2445,-1.3455,-1.4378,-1.5376,-1.6349,-1.7285,-1.8008,-1.8008,-1.8008,-1.8008,-1.8008,-1.7861,-1.7725,-1.7725,-1.7879,-1.8039,-1.8281,-1.926,-2.0004,-2.0034,-2.0404,-2.063,-2.0313,-1.9999,-1.9798,-1.9798,-2.0396,-2.0894,-2.121,-2.2128,-2.2785,-2.3098,-2.3098,-2.3098,-2.3098,-2.3421,-2.3595,-2.3595,-2.3595,-2.3595,-2.3595,-2.3595,-2.3595,-2.3595,-2.3595,-2.3595,-2.3595,-2.3595,-2.3709,0.4546,0.4609,0.4714,0.4667,0.4674,0.4684,0.466,0.0,0.0,0.0,0.0,0.0,0.0,0.0,0.0,0.0,0.0,0.0,0.0,0.0,0.0,0.0,0.0,0.0,0.0,0.0,0.0,0.0,0.0,0.0,0.0,0.0,0.0,0.0,0.0,-0.049,-0.1494,-0.1494,-0.2158,-0.3318,-0.4065,-0.4591,-0.4908,-0.5683,0.0,0.0,0.0,0.0,-0.6338,-0.6338,-0.6338,-0.6416,-0.7249,-0.8161,-0.914,-0.9996,-1.1051,-1.2077,-1.2224,-1.2271,-1.2238,-1.2238,-1.2204,-1.231,-1.3093,-1.4088,-1.5068,-1.5964,-1.7045,-1.7978,-1.7852,-1.7861,-1.79,-1.7832,-1.7549,-1.7285,-1.7285,-1.7547,-1.7791,-1.784,-1.907,-1.9966,-1.9555,-2.0072,-2.0363,-1.9874,-1.9798,-1.9798,-1.9798,-2.0497,-2.1113,-2.1663,-2.2392,-2.3054,-2.3551,-2.3595,-2.3595,-2.3595,-2.3595,-2.3595,-2.3595,-2.3595,-2.3595,-2.3595,-2.3595,-2.3638,-2.3709,-2.3709,-2.3752,-2.3837,-2.3837,-2.4074,0.4619,0.4769,0.4823,0.4562,0.4596,0.4657,0.0,0.0,0.0,0.0,0.0,0.0,0.0,0.0,0.0,0.0,0.0,0.0,0.0,0.0,0.0,0.0,0.0,0.0,0.0,0.0,0.0,0.0,0.0,0.0,0.0,0.0,0.0,0.0,0.0,-0.0079,-0.0238,-0.0238,-0.0793,-0.1901,-0.2051,-0.3067,-0.4711,-0.4851,-0.547,0.0,0.0,-0.6338,-0.6338,-0.6338,-0.6338,-0.6338,-0.649,-0.7176,-0.8067,-0.804,-0.9268,-1.1162,-1.1996,-1.2138,-1.1937,-1.1937,-1.1764,-1.1563,-1.1695,-1.2445,-1.3458,-1.4247,-1.6206,-1.7842,-1.7119,-1.7197,-1.7383,-1.7021,-1.6875,-1.6836,-1.6836,-1.6841,-1.6976,-1.7251,-1.8043,-1.8669,-1.8821,-1.9442,-1.9911,-1.9811,-1.9798,-1.9798,-1.9798,-2.0855,-2.1615,-2.1697,-2.2741,-2.3508,-2.3595,-2.3595,-2.3595,-2.3595,-2.3595,-2.3595,-2.3595,-2.3595,-2.3595,-2.3595,-2.3595,-2.3837,-2.4266,-2.4266,-2.4511,-2.4934,-2.4934,-2.4989,0.4548,0.4677,0.4762,0.4619,0.4758,0.4911,0.0,0.0,0.0,0.0,0.0,0.0,0.0,0.0,0.0,0.0,0.0,0.0,0.0,0.0,0.0,0.0,0.0,0.0,0.0,0.0,0.0,0.0,0.0,0.0,0.0,0.0,0.0,0.0,0.0,0.0,0.0,0.0,-0.0235,-0.0706,-0.1333,-0.2115,-0.3051,-0.3595,-0.4453,-0.5467,0.0,-0.567,-0.6129,-0.6047,-0.6013,-0.6013,-0.6013,-0.667,-0.7608,-0.8019,-0.9124,-1.0527,-1.0963,-1.1314,-1.163,-1.163,-1.1536,-1.1423,-1.1423,-1.2429,-1.3587,-1.3721,-1.5159,-1.6675,-1.6699,-1.6885,-1.6982,-1.6777,-1.6543,-1.6367,-1.6367,-1.6191,-1.6138,-1.6732,-1.7416,-1.8069,-1.859,-1.9319,-1.9798,-1.9798,-1.9798,-1.9952,-2.0295,-2.1148,-2.1852,-2.2193,-2.3039,-2.3595,-2.3595,-2.3595,-2.3595,-2.3595,-2.3595,-2.3595,-2.3595,-2.3595,-2.3595,-2.3595,-2.3595,-2.3879,-2.4389,-2.4389,-2.4672,-2.5221,-2.5221,-2.5221,0.4504,0.4602,0.4701,0.4735,0.0,0.0,0.0,0.0,0.0,0.0,0.0,0.0,0.0,0.0,0.0,0.0,0.0,0.0,0.0,0.0,0.0,0.0,0.0,0.0,0.0,0.0,0.0,0.0,0.0,0.0,0.0,0.0,0.0,0.0,0.0,0.0,0.0,0.0,0.0,0.0,-0.0863,-0.1329,-0.1632,-0.2404,-0.3321,-0.4299,-0.444,-0.4927,-0.5667,-0.5775,-0.58,-0.58,-0.58,-0.6275,-0.7086,-0.8318,-0.9147,-0.9737,-1.0221,-1.0829,-1.1323,-1.1323,-1.1276,-1.1223,-1.1223,-1.2204,-1.3259,-1.3044,-1.3794,-1.4916,-1.6095,-1.6504,-1.6553,-1.6445,-1.6162,-1.5908,-1.5908,-1.5644,-1.5642,-1.6379,-1.709,-1.7841,-1.8555,-1.9319,-1.9798,-1.9798,-1.9798,-2.0003,-2.0497,-2.1245,-2.1899,-2.2406,-2.3143,-2.3535,-2.3385,-2.3385,-2.3385,-2.3385,-2.352,-2.3595,-2.3595,-2.3595,-2.3595,-2.3595,-2.3595,-2.3921,-2.4592,-2.4592,-2.4934,-2.5561,-2.5561,-2.5561,0.4461,0.468,0.4724,0.4867,0.0,0.0,0.0,0.0,0.0,0.0,0.0,0.0,0.0,0.0,0.0,0.0,0.0,0.0,0.0,0.0,0.0,0.0,0.0,0.0,0.0,0.0,0.0,0.0,0.0,0.0,0.0,0.0,0.0,0.0,0.0,0.0,0.0,0.0,0.0,0.0,-0.0079,-0.062,-0.159,-0.1666,-0.2242,-0.3285,-0.4145,-0.4576,-0.4648,-0.544,-0.58,-0.58,-0.58,-0.5789,-0.5964,-0.7925,-0.8562,-0.8815,-1.0635,-1.1182,-1.1022,-1.1022,-1.0842,-1.0685,-1.0685,-1.0749,-1.0989,-1.1692,-1.2003,-1.2575,-1.4899,-1.5811,-1.6006,-1.5605,-1.5478,-1.5459,-1.5459,-1.543,-1.5642,-1.6379,-1.709,-1.7841,-1.8555,-1.9319,-1.9798,-1.9798,-1.9798,-1.9798,-1.985,-2.0939,-2.1697,-2.1758,-2.2891,-2.337,-2.2787,-2.2742,-2.2742,-2.2742,-2.3281,-2.3595,-2.3595,-2.3595,-2.3595,-2.3595,-2.3595,-2.4116,-2.5144,-2.5144,-2.5635,-2.6573,-2.6573,-2.6573,0.3736,0.4333,0.4847,0.4904,0.0,0.0,0.0,0.0,0.0,0.0,0.0,0.0,0.0,0.0,0.0,0.0,0.0,0.0,0.0,0.0,0.0,0.0,0.0,0.0,0.0,0.0,0.0,0.0,0.0,0.0,0.0,0.0,0.0,0.0,0.0,0.0,0.0,0.0,0.0,0.0,0.0,-0.0229,-0.0605,-0.0595,-0.1174,-0.2178,-0.2995,-0.375,-0.4383,-0.5218,-0.5528,-0.5528,-0.5528,-0.5494,-0.5589,-0.6312,-0.6894,-0.7432,-0.8241,-0.9151,-0.9941,-0.9941,-1.0258,-1.0624,-1.0624,-1.0926,-1.1413,-1.171,-1.2504,-1.3476,-1.4451,-1.4809,-1.5012,-1.5332,-1.541,-1.541,-1.541,-1.541,-1.5642,-1.6379,-1.709,-1.7841,-1.8555,-1.9319,-1.9798,-1.9798,-1.9798,-1.9952,-2.0346,-2.1148,-2.1713,-2.1716,-2.2118,-2.2323,-2.2084,-2.2069,-2.2069,-2.2069,-2.3026,-2.3595,-2.3595,-2.3921,-2.3876,-2.3437,-2.373,-2.4261,-2.4968,-2.4968,-2.557,-2.6691,-2.6691,-2.6691,0.3289,0.4035,0.4799,0.0,0.0,0.0,0.0,0.0,0.0,0.0,0.0,0.0,0.0,0.0,0.0,0.0,0.0,0.0,0.0,0.0,0.0,0.0,0.0,0.0,0.0,0.0,0.0,0.0,0.0,0.0,0.0,0.0,0.0,0.0,0.0,0.0,0.0543,0.0151,0.0,0.0,0.0,0.0,0.0,0.0,-0.043,-0.1135,-0.1946,-0.2617,-0.337,-0.452,-0.516,-0.5428,-0.5428,-0.5428,-0.5428,-0.5686,-0.6203,-0.6719,-0.7046,-0.8091,-0.9274,-0.9274,-0.9913,-1.0624,-1.0624,-1.0989,-1.1406,-1.1406,-1.2205,-1.3114,-1.3356,-1.4025,-1.4746,-1.5294,-1.541,-1.541,-1.541,-1.541,-1.5526,-1.6036,-1.6922,-1.7731,-1.8286,-1.915,-1.9798,-1.9798,-1.9798,-1.9952,-2.0459,-2.1197,-2.1755,-2.2004,-2.1632,-2.138,-2.138,-2.138,-2.138,-2.138,-2.2398,-2.308,-2.3175,-2.3529,-2.3592,-2.3203,-2.3581,-2.4003,-2.446,-2.446,-2.4979,-2.5998,-2.6234,-2.6353,0.3178,0.3904,0.0,0.0,0.0,0.0,0.0,0.0,0.0,0.0,0.0,0.0,0.0,0.0,0.0,0.0,0.0,0.0,0.0,0.0,0.0,0.0,0.0,0.0,0.0,0.0,0.0,0.0,0.0,0.0,0.0,0.0,0.0,0.0,0.0,0.0,0.1585,0.059,0.0,0.0,0.0,0.0,0.0,0.0,0.0,-0.0067,-0.094,-0.1273,-0.1407,-0.3211,-0.4553,-0.5362,-0.5362,-0.5362,-0.5491,-0.6396,-0.6719,-0.6785,-0.7702,-0.8549,-0.9274,-0.9274,-0.9849,-1.0561,-1.0561,-1.0561,-1.0624,-1.0624,-1.0624,-1.0807,-1.1586,-1.3588,-1.541,-1.541,-1.541,-1.541,-1.541,-1.541,-1.541,-1.541,-1.6574,-1.7578,-1.7578,-1.8821,-1.9798,-1.9798,-1.9798,-1.9798,-1.9798,-2.0926,-2.1925,-2.2629,-2.1485,-2.0707,-2.0707,-2.0707,-2.0707,-2.0707,-2.1321,-2.1862,-2.2278,-2.2315,-2.254,-2.2992,-2.2992,-2.3243,-2.3704,-2.3704,-2.3998,-2.4523,-2.5253,-2.5609,0.2357,0.3341,0.0,0.0,0.0,0.0,0.0,0.0,0.0,0.0,0.0,0.0,0.0,0.0,0.0,0.0,0.0,0.0,0.0,0.0,0.0,0.0,0.0,0.0,0.0,0.0,0.0,0.0,0.0,0.0,0.0,0.0,0.0,0.0,0.0,0.0,0.235,0.2076,0.1908,0.1908,0.1239,0.0619,0.0,0.0,0.0,-0.0067,-0.094,-0.1273,-0.1407,-0.2611,-0.3613,-0.4417,-0.4417,-0.4821,-0.5428,-0.5686,-0.5815,-0.5815,-0.6079,-0.6728,-0.7502,-0.7502,-0.8479,-0.9658,-0.9658,-1.011,-1.0624,-1.0624,-1.0989,-1.1655,-1.2451,-1.3606,-1.4569,-1.4569,-1.4569,-1.4688,-1.5294,-1.541,-1.541,-1.541,-1.6574,-1.7578,-1.7578,-1.8821,-1.9952,-2.0446,-2.0497,-2.0637,-2.1065,-2.1074,-2.1054,-2.1272,-2.0513,-1.9989,-1.9989,-1.9989,-1.9989,-1.9989,-2.0168,-2.0903,-2.2231,-2.2671,-2.2844,-2.2703,-2.3077,-2.3452,-2.3852,-2.3852,-2.4328,-2.522,-2.6004,-2.6382,0.2087,0.0,0.0,0.0,0.0,0.0,0.0,0.0,0.0,0.0,0.0,0.0,0.0,0.0,0.0,0.0,0.0,0.0,0.0,0.0,0.0,0.0,0.0,0.0,0.0,0.0,0.0,0.0,0.0,0.0,0.0,0.0,0.0,0.0,0.0,0.0,0.3287,0.2922,0.2677,0.2677,0.2159,0.1556,0.1033,0.0339,0.0,0.0,-0.0538,-0.1006,-0.134,-0.1942,-0.2678,-0.348,-0.348,-0.4015,-0.4821,-0.4821,-0.509,-0.5428,-0.5428,-0.5943,-0.6719,-0.6719,-0.7632,-0.8877,-0.9204,-0.9658,-1.0174,-1.0498,-1.0926,-1.1406,-1.1903,-1.2397,-1.3114,-1.4382,-1.4688,-1.4768,-1.508,-1.5293,-1.5361,-1.5195,-1.6458,-1.7578,-1.7578,-1.8821,-2.0055,-2.0696,-2.0793,-2.1021,-2.1626,-2.0868,-2.0396,-2.0676,-2.0094,-1.9747,-1.9929,-1.9929,-2.0,-2.0208,-2.0208,-2.0771,-2.1982,-2.2202,-2.2329,-2.2474,-2.279,-2.3107,-2.344,-2.344,-2.3824,-2.4607,-2.5385,-2.5915,0.0,0.0,0.0,0.0,0.0,0.0,0.0,0.0,0.0,0.0,0.0,0.0,0.0,0.0,0.0,0.0,0.0,0.0,0.0,0.0,0.0,0.0,0.0,0.0,0.0,0.0,0.0,0.0,0.0,0.0,0.0,0.0,0.0,0.0,0.0,0.0,0.4309,0.3389,0.2945,0.0,0.2878,0.2811,0.2744,0.0941,0.0067,0.0,0.0,-0.0471,-0.1207,-0.1207,-0.1742,-0.2544,-0.2544,-0.3078,-0.3882,-0.3949,-0.4486,-0.516,-0.5359,-0.5877,-0.6453,-0.6523,-0.7177,-0.8027,-0.8812,-0.9204,-0.9466,-1.0238,-1.0561,-1.0624,-1.0681,-1.0661,-1.1432,-1.4505,-1.5177,-1.5061,-1.4814,-1.5029,-1.5186,-1.4907,-1.6284,-1.751,-1.7609,-1.8855,-2.008,-2.0766,-2.0879,-2.1072,-2.1557,-2.0563,-1.9986,-2.0542,-2.0064,-1.9874,-2.028,-2.0314,-2.0516,-2.0959,-2.0991,-2.1181,-2.1582,-2.1244,-2.1446,-2.2321,-2.2349,-2.249,-2.2797,-2.2797,-2.2972,-2.3318,-2.4052,-2.4779,0.0,0.0,0.0,0.0,0.0,0.0,0.0,0.0,0.0,0.0,0.0,0.0,0.0,0.0,0.0,0.0,0.0,0.0,0.0,0.0,0.0,0.0,0.0,0.0,0.0,0.0,0.0,0.0,0.0,0.0,0.0,0.0,0.0,0.0,0.0,0.5106,0.5138,0.4903,0.4821,0.0,0.4082,0.3747,0.368,0.1877,0.0672,0.0,0.0,-0.0135,-0.0269,-0.0269,-0.0806,-0.1608,-0.1608,-0.2143,-0.3078,-0.3747,-0.368,-0.348,-0.4891,-0.502,-0.4677,-0.5418,-0.6268,-0.7046,-0.7177,-0.8221,-0.9338,-0.953,-1.0047,-1.0744,-1.1406,-1.1341,-1.1623,-1.3513,-1.3522,-1.3243,-1.4083,-1.4346,-1.4483,-1.493,-1.5814,-1.6768,-1.7664,-1.9008,-2.03,-2.1366,-2.1513,-2.1359,-2.0951,-2.0679,-2.0332,-1.9959,-1.9779,-1.9874,-2.028,-2.0314,-2.0516,-2.0959,-2.0991,-2.1181,-2.1582,-2.1521,-2.1832,-2.2599,-2.2625,-2.2915,-2.3482,-2.3482,-2.3671,-2.4014,-2.4816,-2.5272,0.0,0.0,0.0,0.0,0.0,0.0,0.0,0.0,0.0,0.0,0.0,0.0,0.0,0.0,0.0,0.0,0.0,0.0,0.0,0.0,0.0,0.0,0.0,0.0,0.0,0.0,0.0,0.0,0.0,0.0,0.0,0.0,0.0,0.0,0.5403,0.5428,0.5428,0.5428,0.5325,0.525,0.4789,0.4296,0.3732,0.205,0.1066,0.0594,0.0201,0.0,0.0,0.0,-0.0267,-0.0658,-0.0658,-0.1239,-0.2063,-0.2548,-0.269,-0.289,-0.4265,-0.4417,-0.4151,-0.509,-0.5686,-0.6141,-0.6588,-0.7307,-0.8156,-0.8549,-0.8914,-0.9375,-1.017,-1.0201,-1.0355,-1.1696,-1.2366,-1.2961,-1.3652,-1.3941,-1.4125,-1.4284,-1.5109,-1.599,-1.691,-1.8697,-2.013,-2.0751,-2.1067,-2.1096,-2.0752,-2.0593,-2.0375,-2.003,-2.0174,-2.0499,-2.0894,-2.1085,-2.1348,-2.1782,-2.1967,-2.2163,-2.2361,-2.2461,-2.2583,-2.2695,-2.2873,-2.3189,-2.3692,-2.3692,-2.3919,-2.4358,-2.4764,-2.5227,0.0,0.0,0.0,0.0,0.0,0.0,0.0,0.0,0.0,0.0,0.0,0.0,0.0,0.0,0.0,0.0,0.0,0.0,0.0,0.0,0.0,0.0,0.0,0.0,0.0,0.0,0.0,0.0,0.0,0.0,0.0,0.0,0.5428,0.5428,0.5428,0.5428,0.5428,0.5335,0.5257,0.5131,0.5104,0.4653,0.3753,0.2326,0.1566,0.1216,0.0525,0.0131,0.0,0.0,0.0,0.0,0.0,-0.0441,-0.1112,-0.1267,-0.1722,-0.2428,-0.3533,-0.3893,-0.3893,-0.495,-0.5284,-0.5484,-0.6213,-0.6542,-0.6811,-0.7558,-0.7853,-0.8051,-0.8667,-0.8759,-0.8946,-1.0046,-1.1448,-1.2627,-1.3099,-1.3559,-1.3818,-1.3609,-1.4561,-1.5618,-1.628,-1.8272,-1.9749,-1.9878,-2.0262,-2.0543,-2.0543,-2.0386,-2.0314,-2.0314,-2.0715,-2.115,-2.1552,-2.1955,-2.2337,-2.2737,-2.3088,-2.3298,-2.3298,-2.3523,-2.344,-2.2999,-2.3252,-2.3538,-2.3903,-2.3903,-2.4117,-2.4566,-2.4566,-2.5,0.0,0.0,0.0,0.0,0.0,0.0,0.0,0.0,0.0,0.0,0.0,0.0,0.0,0.0,0.0,0.0,0.0,0.0,0.0,0.0,0.0,0.0,0.0,0.0,0.0,0.0,0.0,0.0,0.0,0.0,0.0,0.5907,0.5428,0.5428,0.5428,0.5428,0.5428,0.5226,0.5152,0.5128,0.5006,0.4877,0.4674,0.3714,0.2482,0.1115,0.0996,0.056,0.0,0.0,0.0,0.0,0.0,-0.0062,-0.0247,-0.1052,-0.093,-0.0682,-0.3043,-0.3359,-0.2923,-0.4476,-0.4979,-0.5003,-0.5248,-0.5855,-0.6519,-0.6802,-0.7726,-0.8667,-0.8795,-0.8986,-0.9334,-1.0104,-1.028,-1.055,-1.1763,-1.2575,-1.3214,-1.3655,-1.5074,-1.6456,-1.7124,-1.8236,-1.9211,-1.9826,-1.9853,-1.9824,-1.9824,-2.0115,-2.0314,-2.0314,-2.0715,-2.115,-2.1552,-2.2061,-2.2521,-2.2911,-2.344,-2.3725,-2.3725,-2.4078,-2.421,-2.408,-2.4134,-2.4327,-2.4648,-2.4648,-2.4676,-2.4762,-2.4762,-2.4861,0.0,0.0,0.0,0.0,0.0,0.0,0.0,0.0,0.0,0.0,0.0,0.0,0.0,0.0,0.0,0.0,0.0,0.0,0.0,0.0,0.0,0.0,0.0,0.0,0.0,0.0,0.0,0.0,0.0,0.0,0.6852,0.6374,0.5881,0.5428,0.5428,0.5428,0.5428,0.5209,0.5047,0.4884,0.4819,0.4748,0.4667,0.4333,0.3589,0.2457,0.1952,0.1523,0.12,0.0795,0.061,0.06,0.018,0.0238,0.0586,0.0179,0.03,0.0361,-0.1219,-0.1781,-0.203,-0.3256,-0.3933,-0.4326,-0.4451,-0.5004,-0.5619,-0.5871,-0.626,-0.6739,-0.7212,-0.7645,-0.8093,-0.8811,-0.9659,-1.0517,-1.1116,-1.1774,-1.2579,-1.3579,-1.52,-1.6478,-1.6785,-1.7975,-1.9102,-1.9639,-1.9918,-2.0124,-2.0398,-2.0927,-2.1301,-2.1301,-2.1848,-2.23,-2.2478,-2.3017,-2.3437,-2.3629,-2.4118,-2.4414,-2.4414,-2.4692,-2.4832,-2.4791,-2.4695,-2.4704,-2.4798,-2.4836,-2.4885,-2.4982,-2.4966,-2.5012,0.0,0.0,0.0,0.0,0.0,0.0,0.0,0.0,0.0,0.0,0.0,0.0,0.0,0.0,0.0,0.0,0.0,0.0,0.0,0.0,0.0,0.0,0.0,0.0,0.0,0.0,0.0,0.0,0.0,0.0,0.7381,0.7177,0.6724,0.6079,0.5971,0.5952,0.5952,0.5486,0.5125,0.4912,0.4912,0.4851,0.4791,0.5027,0.4794,0.405,0.2966,0.2366,0.2145,0.1606,0.1363,0.1333,0.0754,0.0915,0.14,0.1378,0.1391,0.1221,0.0178,-0.048,-0.1141,-0.2222,-0.294,-0.344,-0.3542,-0.3912,-0.4411,-0.4903,-0.4947,-0.5105,-0.5914,-0.6543,-0.7002,-0.7449,-0.8844,-1.0246,-1.1124,-1.1724,-1.2463,-1.3737,-1.5173,-1.628,-1.6536,-1.7892,-1.9029,-1.9368,-1.9904,-2.0416,-2.0797,-2.1502,-2.2051,-2.2185,-2.279,-2.3239,-2.3389,-2.3937,-2.4254,-2.4171,-2.4658,-2.4928,-2.487,-2.5034,-2.5097,-2.5104,-2.4977,-2.4889,-2.4878,-2.4915,-2.4923,-2.4921,-2.4977,-2.4987,0.0,0.0,0.0,0.0,0.0,0.0,0.0,0.0,0.0,0.0,0.0,0.0,0.0,0.0,0.0,0.0,0.0,0.0,0.0,0.0,0.0,0.0,0.0,0.0,0.0,0.0,0.0,0.0,0.0,0.0,0.9139,0.8355,0.7897,0.7897,0.7565,0.7394,0.7394,0.6333,0.5644,0.5445,0.5445,0.5441,0.5487,0.6159,0.6109,0.5336,0.3855,0.2854,0.2181,0.2184,0.2128,0.2125,0.2125,0.2124,0.212,0.2124,0.2125,0.1956,0.0503,-0.0056,-0.028,-0.1737,-0.2242,-0.2313,-0.2508,-0.2585,-0.2845,-0.3824,-0.448,-0.507,-0.5803,-0.6443,-0.6854,-0.6708,-0.7295,-0.8758,-1.2098,-1.2822,-1.317,-1.4323,-1.5081,-1.5886,-1.6959,-1.8129,-1.8893,-1.893,-1.9707,-2.0314,-2.0348,-2.1086,-2.184,-2.2427,-2.2856,-2.3335,-2.3922,-2.4456,-2.4671,-2.4409,-2.4824,-2.501,-2.4803,-2.4812,-2.4812,-2.4814,-2.4878,-2.4949,-2.508,-2.5027,-2.481,-2.4441,-2.4633,-2.4479,0.0,0.0,0.0,0.0,0.0,0.0,0.0,0.0,0.0,0.0,0.0,0.0,0.0,0.0,0.0,0.0,0.0,0.0,0.0,0.0,0.0,0.0,0.0,0.0,0.0,0.0,0.0,0.0,0.0,0.0,0.9338,0.8782,0.8248,0.7681,0.7409,0.723,0.7145,0.6697,0.6407,0.6199,0.6199,0.6199,0.6204,0.6475,0.648,0.6204,0.5651,0.4988,0.4271,0.3825,0.3602,0.355,0.3104,0.2945,0.2954,0.2899,0.2954,0.2899,0.2338,0.1836,0.1336,0.0779,0.0338,-0.0115,-0.0836,-0.1215,-0.1732,-0.286,-0.3251,-0.3453,-0.3791,-0.5026,-0.6529,-0.8271,-0.8443,-0.8968,-1.1648,-1.2159,-1.2376,-1.327,-1.5362,-1.7129,-1.7517,-1.909,-2.0351,-2.0602,-2.1247,-2.1824,-2.2068,-2.2904,-2.3539,-2.3772,-2.3771,-2.3825,-2.4051,-2.4038,-2.3999,-2.3885,-2.4213,-2.4099,-2.343,-2.3379,-2.3067,-2.2428,-2.229,-2.3014,-2.4648,-2.4685,-2.4482,-2.4064,-2.3545,-2.3172,0.0,0.0,0.0,0.0,0.0,0.0,0.0,0.0,0.0,0.0,0.0,0.0,0.0,0.0,0.0,0.0,0.0,0.0,0.0,0.0,0.0,0.0,0.0,0.0,0.0,0.0,0.0,0.0,0.0,0.0,0.9592,0.934,0.8908,0.8072,0.7913,0.7714,0.7527,0.73,0.7115,0.6966,0.6966,0.6966,0.6966,0.7235,0.7182,0.6966,0.6966,0.6529,0.5814,0.5366,0.5144,0.5085,0.4587,0.4265,0.4116,0.4058,0.4058,0.4058,0.3837,0.339,0.289,0.2668,0.2161,0.1583,0.0899,0.055,0.0,-0.1368,-0.1703,-0.1818,-0.2445,-0.3596,-0.5067,-0.7133,-0.7214,-0.7285,-0.8978,-1.0764,-1.2454,-1.3736,-1.6053,-1.8057,-1.8798,-2.0412,-2.1664,-2.1931,-2.2434,-2.2694,-2.2463,-2.3102,-2.3447,-2.3117,-2.273,-2.2576,-2.2759,-2.2395,-2.2122,-2.2032,-2.2189,-2.1973,-2.1247,-2.1023,-2.0574,-1.9906,-1.9489,-2.0063,-2.1586,-2.245,-2.2539,-2.1915,-2.1361,-2.0974,0.0,0.0,0.0,0.0,0.0,0.0,0.0,0.0,0.0,0.0,0.0,0.0,0.0,0.0,0.0,0.0,0.0,0.0,0.0,0.0,0.0,0.0,0.0,0.0,0.0,0.0,0.0,0.0,0.0,1.0428,1.0134,1.01,0.9826,0.919,0.917,0.9037,0.8811,0.8103,0.7723,0.7777,0.7723,0.7723,0.7777,0.848,0.8427,0.7777,0.7777,0.7396,0.6745,0.6642,0.6642,0.6642,0.6642,0.6199,0.5538,0.5538,0.5538,0.5429,0.4703,0.4481,0.4368,0.3649,0.3067,0.264,0.2583,0.2694,0.2498,0.064,0.0131,-0.0199,-0.187,-0.2081,-0.2139,-0.2947,-0.3082,-0.3239,-0.3971,-0.8484,-1.3128,-1.5551,-1.6875,-1.8355,-2.0753,-2.2037,-2.2737,-2.2737,-2.3129,-2.2873,-2.1386,-2.1469,-2.1307,-2.0347,-1.9668,-1.9508,-2.0094,-1.9609,-1.92,-1.8921,-1.8882,-1.8749,-1.848,-1.783,-1.7469,-1.737,-1.6723,-1.6224,-1.5905,-1.8371,-1.9008,-1.792,-1.81,-1.7899,0.0,0.0,0.0,0.0,0.0,0.0,0.0,0.0,0.0,0.0,0.0,0.0,0.0,0.0,0.0,0.0,0.0,0.0,0.0,0.0,0.0,0.0,0.0,0.0,0.0,0.0,0.0,0.0,1.0624,1.0428,1.0134,0.9713,0.9312,0.8938,0.8925,0.8891,0.8804,0.8593,0.8732,0.9235,0.8738,0.8738,0.9242,0.9458,0.9406,0.9242,0.974,0.9828,0.9511,0.8019,0.7396,0.7396,0.7396,0.6961,0.6312,0.6312,0.6312,0.6258,0.6086,0.5973,0.5973,0.5747,0.6234,0.6501,0.4631,0.5185,0.5913,0.3538,0.3736,0.4443,0.3186,0.3775,0.4098,0.1797,0.2017,0.2711,0.2512,0.0838,-0.2429,-0.8539,-1.1689,-1.4772,-1.9072,-2.195,-2.3645,-2.3645,-2.3748,-2.3672,-2.3256,-2.2062,-2.0658,-1.9101,-1.8751,-1.8708,-1.8902,-1.9037,-1.9101,-1.9047,-1.8385,-1.7932,-1.784,-1.7686,-1.643,-1.4056,-1.3852,-1.3719,-1.36,-1.5392,-1.5973,-1.5473,-1.5265,-1.4518,0.0,0.0,0.0,0.0,0.0,0.0,0.0,0.0,0.0,0.0,0.0,0.0,0.0,0.0,0.0,0.0,0.0,0.0,0.0,0.0,0.0,0.0,0.0,0.0,0.0,0.0,0.0,0.0,1.0374,1.0309,1.0168,1.0005,0.9645,0.9218,0.9211,0.9211,0.9211,0.9211,0.9562,1.021,0.9814,0.9865,1.0218,1.0218,1.0218,1.0269,1.061,1.0813,1.0712,0.9481,0.9013,0.896,0.8659,0.8277,0.7882,0.7581,0.7629,0.7835,0.7581,0.7481,0.7481,0.7481,0.7912,0.8305,0.7047,0.7912,0.8931,0.714,0.7091,0.739,0.6719,0.7583,0.8343,0.7045,0.7578,0.8232,0.7816,0.7425,0.5163,-0.1563,-0.4618,-0.7342,-1.1212,-1.4142,-1.595,-1.595,-1.6342,-1.6991,-1.7945,-1.7076,-1.5826,-1.4344,-1.5798,-1.6868,-1.6867,-1.663,-1.5759,-1.3924,-1.3232,-1.2498,-1.1477,-1.1443,-1.059,-0.8792,-0.908,-0.9245,-0.926,-1.1631,-1.2546,-1.207,-1.1902,-1.1291,0.0,0.0,0.0,0.0,0.0,0.0,0.0,0.2305,0.0,0.0,0.0,0.0,0.0,0.0,0.0,0.0,0.0,0.0,0.0,0.0,0.0,0.0,0.0,0.0,0.0,0.0,1.0463,1.0255,1.0227,1.0305,1.0399,1.0657,1.0517,0.9917,0.9909,0.9909,0.9909,0.9909,1.0269,1.0914,1.0864,1.0864,1.0914,1.1015,1.1007,1.1007,1.1157,1.1258,1.1258,1.1258,1.1057,1.0762,1.0167,0.9931,0.9834,0.9231,0.9482,0.9972,0.9379,0.9127,0.9127,0.9127,0.9126,0.9264,0.9778,1.0834,1.1742,1.1019,1.0473,1.0041,0.9951,1.0807,1.1844,1.2636,1.3274,1.351,1.2695,1.2506,1.1054,0.6218,0.3896,0.2246,0.0728,-0.1092,-0.2469,-0.2683,-0.3752,-0.5211,-0.723,-0.7922,-0.7978,-0.7262,-1.072,-1.3151,-1.3384,-1.24,-1.0158,-0.623,-0.5628,-0.4474,-0.2319,-0.2078,-0.2088,-0.2353,-0.3202,-0.3678,-0.3767,-0.7647,-0.9092,-0.826,-0.8241,-0.8241,0.0,0.0,0.0,0.0,0.0,0.0,0.0,0.1246,0.0,0.0,0.0,0.0,0.0,0.0,0.0,0.0,0.0,0.0,0.0,0.0,0.0,0.0,0.0,0.0,0.0,0.0,1.041,1.0876,1.1012,1.1082,1.1108,1.0908,1.0762,1.0618,1.0618,1.0618,1.0618,1.0618,1.0965,1.1616,1.1065,1.1065,1.1616,1.2141,1.2425,1.2473,1.349,1.3924,1.3924,1.3924,1.2706,1.0762,1.0661,1.0889,1.1297,1.1148,1.1518,1.2117,1.1972,1.1923,1.1923,1.1923,1.2504,1.3065,1.2641,1.3259,1.4291,1.4882,1.5598,1.6297,1.6917,1.7693,1.8251,1.7935,1.8376,1.8998,1.9568,1.9433,1.9018,1.8367,1.3298,0.9905,1.2395,1.2483,1.1574,0.9754,0.829,0.727,0.6813,0.3744,0.1114,-0.0208,-0.1788,-0.3481,-0.5212,-0.5023,-0.4388,-0.3562,-0.0981,0.0715,0.121,0.2432,0.3049,0.2991,0.1605,0.0719,0.0332,-0.4747,-0.6569,-0.5293,-0.5325,-0.5313,0.0,0.0,0.0,0.0,0.0,0.0,0.0,0.0,0.0,0.0,0.0,0.0,0.0,0.0,0.0,0.0,0.0,0.0,0.0,0.0,0.0,0.0,0.0,0.0,0.0,0.0,1.0632,1.1133,1.1444,1.155,1.155,1.174,1.1683,1.1316,1.1316,1.1316,1.1316,1.1316,1.1805,1.2793,1.2444,1.2628,1.3263,1.3585,1.3737,1.3784,1.4411,1.4698,1.4698,1.4698,1.4089,1.3067,1.2483,1.2648,1.3175,1.2821,1.3314,1.4028,1.3719,1.3579,1.3651,1.4126,1.4652,1.5184,1.5752,1.6923,1.8081,1.8323,1.9159,1.9988,2.0153,2.0891,2.1563,2.1461,2.1935,2.2336,2.2144,2.1784,2.1261,2.043,1.7121,1.5202,1.7609,1.7037,1.5915,1.4774,1.3027,1.1661,1.1214,0.9242,0.7512,0.633,0.5738,0.4421,0.1942,0.1811,0.1886,0.1897,0.3465,0.4498,0.4776,0.5521,0.569,0.523,0.4436,0.4039,0.4039,0.1315,-0.0769,-0.2277,-0.2256,-0.2252,0.0,0.0,0.0,0.0,0.0,0.0163,0.0,0.0,0.0,0.0,0.0,0.0,0.0,0.0,0.0,0.0,0.0,0.0,0.0,0.0,0.0,0.0,0.0,0.0,0.0,0.0,1.1036,1.1381,1.1681,1.1938,1.2021,1.2559,1.2618,1.203,1.2021,1.2021,1.2021,1.211,1.2745,1.3815,1.3909,1.4236,1.4698,1.4835,1.488,1.488,1.5096,1.5186,1.5231,1.5407,1.5692,1.5886,1.4552,1.4494,1.5118,1.4563,1.5081,1.5917,1.5473,1.5306,1.5476,1.6425,1.689,1.7357,1.8738,2.0398,2.1697,2.1097,2.1657,2.2374,2.1871,2.2514,2.3337,2.3476,2.3883,2.388,2.261,2.2005,2.1171,1.9301,1.8532,1.8373,1.8948,1.7437,1.6126,1.6126,1.438,1.2754,1.1886,1.1536,1.1226,1.0845,1.0541,0.9492,0.7222,0.6892,0.6758,0.6603,0.6608,0.6781,0.7231,0.7231,0.6874,0.6067,0.6013,0.6249,0.6608,0.6445,0.4638,0.1267,0.1267,0.1102,0.0,0.0,0.0,0.0,0.0,0.0,0.0,0.0,0.0,0.0,0.0,0.0,0.0,0.0,0.0,0.0,0.0,0.0,0.0,0.0,0.0,0.0,0.0,0.0,0.0,0.0,0.0,1.1737,1.1986,1.2319,1.2754,1.2832,1.2871,1.2774,1.2774,1.2774,1.2774,1.3304,1.3674,1.3826,1.4329,1.4652,1.4709,1.5231,1.5499,1.5531,1.6574,1.7008,1.7079,1.797,1.814,1.7626,1.5972,1.5972,1.6918,1.6822,1.722,1.7866,1.8177,1.8303,1.846,1.9415,2.0621,2.1604,2.0934,2.2135,2.3465,2.2342,2.3074,2.4089,2.3488,2.3837,2.4137,2.3343,2.3211,2.2966,2.1933,2.1393,2.0895,2.0234,1.9405,1.8363,1.6922,1.6065,1.558,1.558,1.446,1.3385,1.2725,1.158,1.0797,1.0795,0.9703,0.8803,0.8515,0.787,0.7245,0.6642,0.6588,0.6647,0.6701,0.6701,0.6642,0.6529,0.6529,0.6529,0.6588,0.5928,0.5706,0.5873,0.5873,0.5206,0.0,0.0,0.0,0.0,0.0,0.0,0.0,0.0,0.0587,0.0,0.0,0.0,0.0,0.0,0.0,0.0,0.0,0.0,0.0,0.0,0.0,0.0,0.0,0.0,0.0,0.0,0.0,0.0,0.0,1.2148,1.2842,1.2881,1.2881,1.2881,1.3238,1.342,1.342,1.4014,1.4514,1.4858,1.5096,1.5576,1.6219,1.6489,1.6786,1.7094,1.7839,1.8154,1.8232,1.8883,1.9228,1.9279,1.8746,1.8366,1.8177,1.8605,1.9102,1.9676,2.0161,2.0305,2.0458,2.1266,2.2464,2.3533,2.3095,2.3786,2.4542,2.3712,2.404,2.4502,2.379,2.379,2.3745,2.2747,2.2519,2.2297,2.1442,2.0926,2.0335,1.9465,1.9104,1.8454,1.7057,1.6371,1.591,1.5548,1.4494,1.3558,1.2929,1.2325,1.1981,1.1999,1.1475,1.0948,1.0527,1.0207,0.9739,0.9096,0.8692,0.829,0.7883,0.7883,0.7883,0.7883,0.7883,0.7883,0.7883,0.7551,0.7557,0.7842,0.6159,0.5066,0.0,0.0,0.0,0.0,0.0,0.0,0.0,0.0,0.0,0.0,0.0,0.0,0.0,0.0,0.0,0.0,0.0,0.0,0.0,0.0,0.0,0.0,0.0,0.0,0.0,0.0,0.0,0.0,0.0,0.0,1.2912,1.3104,1.326,1.3382,1.3826,1.405,1.405,1.4767,1.5398,1.584,1.6133,1.6731,1.7504,1.7653,1.7906,1.8338,1.9009,1.9343,1.9364,2.0017,2.043,2.0719,2.1253,2.0825,1.9973,2.0401,2.0791,2.1184,2.1739,2.2095,2.2414,2.2941,2.3822,2.4678,2.4607,2.4888,2.5092,2.4593,2.4543,2.4436,2.3676,2.342,2.3119,2.2194,2.1955,2.177,2.0975,2.055,2.0028,1.909,1.8881,1.8636,1.7799,1.7081,1.6421,1.5823,1.4914,1.4003,1.3238,1.2997,1.2861,1.2881,1.2725,1.2393,1.1864,1.1814,1.1516,1.0864,1.0364,0.9865,0.9361,0.9361,0.9361,0.9361,0.9159,0.9061,0.9061,0.8692,0.848,0.848,0.6578,0.555,0.0,0.0,0.0,0.0,0.0,0.0,0.0,0.0,0.0202,0.0,0.0,0.0,0.0,0.0,0.0,0.0,0.0,0.0,0.0,0.0,0.0,0.0,0.0,0.0,0.0,0.0,0.0,0.0,0.0,0.0,1.3023,1.3597,1.4127,1.4641,1.4663,1.4652,1.4652,1.5784,1.6348,1.6391,1.7477,1.8052,1.8106,1.8541,1.8754,1.8852,2.01,2.0639,2.0734,2.1966,2.2243,2.1949,2.3005,2.3142,2.2729,2.2287,2.2134,2.225,2.2996,2.3881,2.4688,2.4637,2.5001,2.543,2.5168,2.5127,2.5108,2.4715,2.4385,2.3985,2.3374,2.2979,2.2548,2.1803,2.1612,2.1383,2.0501,2.0314,2.0177,1.9732,1.9244,1.8893,1.8841,1.7973,1.7092,1.6464,1.5915,1.5129,1.3909,1.3226,1.2851,1.2871,1.2236,1.1814,1.1814,1.1814,1.1516,1.0864,1.0762,1.0762,1.0762,1.0762,1.0762,1.0762,1.0115,0.9762,0.9762,0.8402,0.7723,0.7723,0.8368,0.8262,0.0,0.0,0.0,0.0,0.0,0.0,0.0,0.0,0.0,0.0,0.0,0.0,0.0,0.0,0.0,0.0,0.0,0.0,0.0,0.0,0.0,0.0,0.0,0.0,0.0,0.0,0.0,0.0,0.0,0.0,0.0,1.3959,1.453,1.4698,1.5443,1.5828,1.5828,1.697,1.7693,1.7995,1.8373,1.8904,1.951,1.9637,2.0039,2.0622,2.1341,2.1764,2.2021,2.2834,2.3087,2.3033,2.3787,2.3998,2.3874,2.3712,2.3675,2.3742,2.4309,2.4775,2.5105,2.5,2.5082,2.5188,2.4968,2.4779,2.4556,2.4023,2.3628,2.3169,2.2346,2.2074,2.174,2.0959,2.0732,2.0583,2.0035,1.9909,1.9874,1.9726,1.8968,1.838,1.838,1.7463,1.6697,1.6434,1.5915,1.532,1.4514,1.4226,1.4086,1.4107,1.3852,1.3548,1.3178,1.2783,1.2246,1.1516,1.1065,1.0813,1.0813,1.0364,1.0167,1.0167,0.9917,0.9562,0.9159,0.8633,0.8427,0.8427,0.8699,0.8156,0.0,0.0,0.0,0.0408,0.0456,0.0,0.0457,0.0,0.0,0.0,0.0,0.0,0.0,0.0,0.0,0.0,0.0,0.0,0.0,0.0,0.0,0.0,0.0,0.0,0.0,0.0,1.0079,1.0855,1.1159,0.0,0.0,0.0,1.5226,1.5608,1.6506,1.7011,1.7011,1.809,1.8797,1.9104,1.9417,1.9951,2.0654,2.0815,2.1294,2.2027,2.2539,2.2935,2.3227,2.3748,2.397,2.4022,2.4474,2.4643,2.4643,2.4643,2.4697,2.4795,2.5021,2.5175,2.5233,2.5046,2.4923,2.4801,2.4574,2.432,2.3985,2.3518,2.3152,2.2743,2.2169,2.1803,2.143,2.0715,2.0416,2.0193,1.9782,1.969,1.969,1.969,1.9006,1.838,1.838,1.7504,1.6655,1.6188,1.584,1.5365,1.4789,1.4698,1.4606,1.4376,1.4376,1.4154,1.3552,1.3104,1.2715,1.2236,1.1783,1.1534,1.1534,1.1133,1.088,1.088,1.0618,1.0167,0.951,0.9256,0.9008,0.8804,0.8804,0.8268]}]]